<?xml version='1.0' encoding='UTF-8'?><gpx version="1.1" creator="JPX - https://github.com/jenetics/jpx" xmlns="http://www.topografix.com/GPX/1/1"><trk><trkseg><trkpt lat="45.7547919" lon="8.7633155"><ele>338.0</ele><time>2026-05-01T08:41:10.524Z</time></trkpt><trkpt lat="45.7548469" lon="8.763379"><ele>338.0</ele><time>2026-05-01T08:41:11.524Z</time></trkpt><trkpt lat="45.7549205" lon="8.7634356"><ele>338.0</ele><time>2026-05-01T08:41:12.523Z</time></trkpt><trkpt lat="45.7549895" lon="8.7634852"><ele>338.0</ele><time>2026-05-01T08:41:13.523Z</time></trkpt><trkpt lat="45.7550663" lon="8.7635124"><ele>338.0</ele><time>2026-05-01T08:41:14.524Z</time></trkpt><trkpt lat="45.7551204" lon="8.7635615"><ele>338.0</ele><time>2026-05-01T08:41:15.524Z</time></trkpt><trkpt lat="45.7551804" lon="8.7635899"><ele>338.0</ele><time>2026-05-01T08:41:16.523Z</time></trkpt><trkpt lat="45.7552622" lon="8.7636887"><ele>338.0</ele><time>2026-05-01T08:41:18.524Z</time></trkpt><trkpt lat="45.755325" lon="8.7637529"><ele>338.0</ele><time>2026-05-01T08:41:20.524Z</time></trkpt><trkpt lat="45.7553948" lon="8.7637088"><ele>338.0</ele><time>2026-05-01T08:41:22.524Z</time></trkpt><trkpt lat="45.755481" lon="8.7636153"><ele>338.0</ele><time>2026-05-01T08:41:24.524Z</time></trkpt><trkpt lat="45.7555682" lon="8.7635257"><ele>338.0</ele><time>2026-05-01T08:41:26.524Z</time></trkpt><trkpt lat="45.7556169" lon="8.7634156"><ele>337.6666666666667</ele><time>2026-05-01T08:41:28.524Z</time></trkpt><trkpt lat="45.7556659" lon="8.7632449"><ele>337.33333333333337</ele><time>2026-05-01T08:41:30.524Z</time></trkpt><trkpt lat="45.755702" lon="8.7631623"><ele>337.0</ele><time>2026-05-01T08:41:31.524Z</time></trkpt><trkpt lat="45.75574" lon="8.7630679"><ele>336.6666666666667</ele><time>2026-05-01T08:41:32.524Z</time></trkpt><trkpt lat="45.755789" lon="8.7629883"><ele>336.3333333333333</ele><time>2026-05-01T08:41:33.524Z</time></trkpt><trkpt lat="45.7558281" lon="8.7629002"><ele>336.0</ele><time>2026-05-01T08:41:34.523Z</time></trkpt><trkpt lat="45.7558727" lon="8.7628321"><ele>334.6</ele><time>2026-05-01T08:41:35.524Z</time></trkpt><trkpt lat="45.7559438" lon="8.7626952"><ele>333.20000000000005</ele><time>2026-05-01T08:41:37.523Z</time></trkpt><trkpt lat="45.756017" lon="8.7625809"><ele>331.79999999999995</ele><time>2026-05-01T08:41:39.524Z</time></trkpt><trkpt lat="45.7560027" lon="8.7624679"><ele>330.4</ele><time>2026-05-01T08:41:40.523Z</time></trkpt><trkpt lat="45.7560036" lon="8.7623626"><ele>329.0</ele><time>2026-05-01T08:41:41.524Z</time></trkpt><trkpt lat="45.7559834" lon="8.762235"><ele>329.0</ele><time>2026-05-01T08:41:42.524Z</time></trkpt><trkpt lat="45.7559825" lon="8.7621317"><ele>329.0</ele><time>2026-05-01T08:41:43.523Z</time></trkpt><trkpt lat="45.7560296" lon="8.7619986"><ele>329.0</ele><time>2026-05-01T08:41:45.524Z</time></trkpt><trkpt lat="45.7560413" lon="8.7618882"><ele>329.0</ele><time>2026-05-01T08:41:47.524Z</time></trkpt><trkpt lat="45.7559877" lon="8.7617519"><ele>329.0</ele><time>2026-05-01T08:41:49.525Z</time></trkpt><trkpt lat="45.7559473" lon="8.7616821"><ele>329.0</ele><time>2026-05-01T08:41:50.524Z</time></trkpt><trkpt lat="45.7559036" lon="8.7616001"><ele>326.75</ele><time>2026-05-01T08:41:51.524Z</time></trkpt><trkpt lat="45.7558331" lon="8.7614598"><ele>324.5</ele><time>2026-05-01T08:41:53.524Z</time></trkpt><trkpt lat="45.7557635" lon="8.7613395"><ele>322.25</ele><time>2026-05-01T08:41:55.524Z</time></trkpt><trkpt lat="45.7556903" lon="8.7612049"><ele>320.0</ele><time>2026-05-01T08:41:57.524Z</time></trkpt><trkpt lat="45.7556332" lon="8.7610577"><ele>318.8</ele><time>2026-05-01T08:41:59.524Z</time></trkpt><trkpt lat="45.7555952" lon="8.7609453"><ele>317.6</ele><time>2026-05-01T08:42:01.523Z</time></trkpt><trkpt lat="45.7555457" lon="8.7608434"><ele>316.4</ele><time>2026-05-01T08:42:03.524Z</time></trkpt><trkpt lat="45.755508" lon="8.7607479"><ele>315.2</ele><time>2026-05-01T08:42:08.523Z</time></trkpt><trkpt lat="45.7555006" lon="8.7606364"><ele>314.0</ele><time>2026-05-01T08:42:10.525Z</time></trkpt><trkpt lat="45.75544" lon="8.7604619"><ele>314.0</ele><time>2026-05-01T08:42:12.524Z</time></trkpt><trkpt lat="45.7554098" lon="8.7603802"><ele>314.0</ele><time>2026-05-01T08:42:13.524Z</time></trkpt><trkpt lat="45.7553612" lon="8.7603036"><ele>314.0</ele><time>2026-05-01T08:42:14.524Z</time></trkpt><trkpt lat="45.7553146" lon="8.7602163"><ele>314.0</ele><time>2026-05-01T08:42:15.524Z</time></trkpt><trkpt lat="45.7552594" lon="8.7601179"><ele>314.0</ele><time>2026-05-01T08:42:16.524Z</time></trkpt><trkpt lat="45.7552043" lon="8.7600223"><ele>314.0</ele><time>2026-05-01T08:42:17.524Z</time></trkpt><trkpt lat="45.7551439" lon="8.7599215"><ele>315.79999999999995</ele><time>2026-05-01T08:42:18.524Z</time></trkpt><trkpt lat="45.7550839" lon="8.7598116"><ele>317.59999999999997</ele><time>2026-05-01T08:42:19.523Z</time></trkpt><trkpt lat="45.7550272" lon="8.7597022"><ele>319.4</ele><time>2026-05-01T08:42:20.524Z</time></trkpt><trkpt lat="45.7549655" lon="8.7595879"><ele>321.2</ele><time>2026-05-01T08:42:21.525Z</time></trkpt><trkpt lat="45.7548905" lon="8.7594881"><ele>323.0</ele><time>2026-05-01T08:42:22.523Z</time></trkpt><trkpt lat="45.7548212" lon="8.7593746"><ele>321.4</ele><time>2026-05-01T08:42:23.523Z</time></trkpt><trkpt lat="45.7547611" lon="8.7592765"><ele>319.79999999999995</ele><time>2026-05-01T08:42:24.524Z</time></trkpt><trkpt lat="45.7547092" lon="8.7591675"><ele>318.2</ele><time>2026-05-01T08:42:25.523Z</time></trkpt><trkpt lat="45.7546519" lon="8.7590372"><ele>316.6</ele><time>2026-05-01T08:42:26.523Z</time></trkpt><trkpt lat="45.7545905" lon="8.7589091"><ele>315.0</ele><time>2026-05-01T08:42:27.524Z</time></trkpt><trkpt lat="45.7545275" lon="8.7587991"><ele>315.0</ele><time>2026-05-01T08:42:28.524Z</time></trkpt><trkpt lat="45.7544699" lon="8.7586869"><ele>315.0</ele><time>2026-05-01T08:42:29.524Z</time></trkpt><trkpt lat="45.754391" lon="8.7585888"><ele>315.0</ele><time>2026-05-01T08:42:30.524Z</time></trkpt><trkpt lat="45.7543311" lon="8.7584816"><ele>315.0</ele><time>2026-05-01T08:42:31.523Z</time></trkpt><trkpt lat="45.7542709" lon="8.7583778"><ele>315.0</ele><time>2026-05-01T08:42:32.524Z</time></trkpt><trkpt lat="45.7542074" lon="8.7582793"><ele>316.0</ele><time>2026-05-01T08:42:33.523Z</time></trkpt><trkpt lat="45.7541458" lon="8.758201"><ele>317.0</ele><time>2026-05-01T08:42:34.523Z</time></trkpt><trkpt lat="45.754111" lon="8.758124"><ele>318.0</ele><time>2026-05-01T08:42:35.524Z</time></trkpt><trkpt lat="45.7540905" lon="8.758029"><ele>319.0</ele><time>2026-05-01T08:42:36.524Z</time></trkpt><trkpt lat="45.7540123" lon="8.7578632"><ele>320.0</ele><time>2026-05-01T08:42:38.524Z</time></trkpt><trkpt lat="45.7539507" lon="8.7577847"><ele>321.0</ele><time>2026-05-01T08:42:39.525Z</time></trkpt><trkpt lat="45.7538855" lon="8.7577212"><ele>319.5</ele><time>2026-05-01T08:42:40.523Z</time></trkpt><trkpt lat="45.7538222" lon="8.7576435"><ele>318.0</ele><time>2026-05-01T08:42:41.524Z</time></trkpt><trkpt lat="45.7537815" lon="8.7575569"><ele>316.5</ele><time>2026-05-01T08:42:42.524Z</time></trkpt><trkpt lat="45.7537444" lon="8.7574756"><ele>315.0</ele><time>2026-05-01T08:42:43.524Z</time></trkpt><trkpt lat="45.7537155" lon="8.7573723"><ele>313.5</ele><time>2026-05-01T08:42:44.525Z</time></trkpt><trkpt lat="45.7537089" lon="8.7572499"><ele>312.0</ele><time>2026-05-01T08:42:45.524Z</time></trkpt><trkpt lat="45.7537049" lon="8.7571175"><ele>312.0</ele><time>2026-05-01T08:42:46.523Z</time></trkpt><trkpt lat="45.7537022" lon="8.7569744"><ele>312.0</ele><time>2026-05-01T08:42:47.525Z</time></trkpt><trkpt lat="45.7536947" lon="8.7568474"><ele>312.0</ele><time>2026-05-01T08:42:48.524Z</time></trkpt><trkpt lat="45.7536798" lon="8.7567115"><ele>312.0</ele><time>2026-05-01T08:42:49.523Z</time></trkpt><trkpt lat="45.7536263" lon="8.756583"><ele>312.0</ele><time>2026-05-01T08:42:50.523Z</time></trkpt><trkpt lat="45.7535959" lon="8.7564594"><ele>313.0</ele><time>2026-05-01T08:42:51.525Z</time></trkpt><trkpt lat="45.7535585" lon="8.7563611"><ele>314.0</ele><time>2026-05-01T08:42:52.524Z</time></trkpt><trkpt lat="45.7535292" lon="8.7562725"><ele>315.0</ele><time>2026-05-01T08:42:53.524Z</time></trkpt><trkpt lat="45.7535498" lon="8.7561139"><ele>316.0</ele><time>2026-05-01T08:42:55.524Z</time></trkpt><trkpt lat="45.7535737" lon="8.7559046"><ele>317.0</ele><time>2026-05-01T08:42:57.524Z</time></trkpt><trkpt lat="45.7535578" lon="8.7557828"><ele>316.0</ele><time>2026-05-01T08:42:58.524Z</time></trkpt><trkpt lat="45.7535381" lon="8.7556421"><ele>315.0</ele><time>2026-05-01T08:42:59.524Z</time></trkpt><trkpt lat="45.7535" lon="8.7554973"><ele>314.0</ele><time>2026-05-01T08:43:00.524Z</time></trkpt><trkpt lat="45.7534699" lon="8.7553652"><ele>313.0</ele><time>2026-05-01T08:43:01.523Z</time></trkpt><trkpt lat="45.7534483" lon="8.7552372"><ele>312.0</ele><time>2026-05-01T08:43:02.523Z</time></trkpt><trkpt lat="45.7534284" lon="8.7551127"><ele>310.8333333333333</ele><time>2026-05-01T08:43:03.523Z</time></trkpt><trkpt lat="45.753417" lon="8.7549877"><ele>309.6666666666667</ele><time>2026-05-01T08:43:04.524Z</time></trkpt><trkpt lat="45.7534044" lon="8.7548702"><ele>308.5</ele><time>2026-05-01T08:43:05.523Z</time></trkpt><trkpt lat="45.7533942" lon="8.7547554"><ele>307.33333333333337</ele><time>2026-05-01T08:43:06.523Z</time></trkpt><trkpt lat="45.7533901" lon="8.7546497"><ele>306.1666666666667</ele><time>2026-05-01T08:43:07.524Z</time></trkpt><trkpt lat="45.7533865" lon="8.7545541"><ele>305.0</ele><time>2026-05-01T08:43:08.524Z</time></trkpt><trkpt lat="45.7533672" lon="8.7543962"><ele>305.0</ele><time>2026-05-01T08:43:10.523Z</time></trkpt><trkpt lat="45.7533821" lon="8.7542995"><ele>305.0</ele><time>2026-05-01T08:43:13.524Z</time></trkpt><trkpt lat="45.7534494" lon="8.7542381"><ele>305.0</ele><time>2026-05-01T08:43:15.524Z</time></trkpt><trkpt lat="45.7535028" lon="8.7541622"><ele>305.0</ele><time>2026-05-01T08:43:16.524Z</time></trkpt><trkpt lat="45.7535581" lon="8.7540597"><ele>305.0</ele><time>2026-05-01T08:43:17.523Z</time></trkpt><trkpt lat="45.753612" lon="8.7539358"><ele>305.0</ele><time>2026-05-01T08:43:18.523Z</time></trkpt><trkpt lat="45.7536459" lon="8.7538122"><ele>303.4</ele><time>2026-05-01T08:43:19.523Z</time></trkpt><trkpt lat="45.7536691" lon="8.753672"><ele>301.8</ele><time>2026-05-01T08:43:20.524Z</time></trkpt><trkpt lat="45.7536816" lon="8.7535233"><ele>300.2</ele><time>2026-05-01T08:43:21.523Z</time></trkpt><trkpt lat="45.7536938" lon="8.7533598"><ele>298.6</ele><time>2026-05-01T08:43:22.524Z</time></trkpt><trkpt lat="45.7537076" lon="8.7531933"><ele>297.0</ele><time>2026-05-01T08:43:23.524Z</time></trkpt><trkpt lat="45.7537334" lon="8.7530112"><ele>296.75</ele><time>2026-05-01T08:43:24.524Z</time></trkpt><trkpt lat="45.7537671" lon="8.7528187"><ele>296.5</ele><time>2026-05-01T08:43:25.524Z</time></trkpt><trkpt lat="45.7537971" lon="8.7526291"><ele>296.25</ele><time>2026-05-01T08:43:26.524Z</time></trkpt><trkpt lat="45.7538537" lon="8.7524204"><ele>296.0</ele><time>2026-05-01T08:43:27.524Z</time></trkpt><trkpt lat="45.7539016" lon="8.7522159"><ele>296.0</ele><time>2026-05-01T08:43:28.524Z</time></trkpt><trkpt lat="45.7539491" lon="8.7520031"><ele>296.0</ele><time>2026-05-01T08:43:29.524Z</time></trkpt><trkpt lat="45.754" lon="8.7518186"><ele>296.0</ele><time>2026-05-01T08:43:30.523Z</time></trkpt><trkpt lat="45.7540342" lon="8.751641"><ele>296.0</ele><time>2026-05-01T08:43:31.523Z</time></trkpt><trkpt lat="45.7540709" lon="8.7514786"><ele>297.6</ele><time>2026-05-01T08:43:32.524Z</time></trkpt><trkpt lat="45.7541001" lon="8.7513291"><ele>299.20000000000005</ele><time>2026-05-01T08:43:33.524Z</time></trkpt><trkpt lat="45.7541443" lon="8.7511978"><ele>300.79999999999995</ele><time>2026-05-01T08:43:34.523Z</time></trkpt><trkpt lat="45.7541966" lon="8.7510672"><ele>302.4</ele><time>2026-05-01T08:43:35.524Z</time></trkpt><trkpt lat="45.7542537" lon="8.7509501"><ele>304.0</ele><time>2026-05-01T08:43:36.524Z</time></trkpt><trkpt lat="45.7543323" lon="8.7508539"><ele>303.4</ele><time>2026-05-01T08:43:37.523Z</time></trkpt><trkpt lat="45.7544199" lon="8.7507584"><ele>302.79999999999995</ele><time>2026-05-01T08:43:38.524Z</time></trkpt><trkpt lat="45.7545105" lon="8.7506642"><ele>302.20000000000005</ele><time>2026-05-01T08:43:39.525Z</time></trkpt><trkpt lat="45.7546007" lon="8.75057"><ele>301.6</ele><time>2026-05-01T08:43:40.524Z</time></trkpt><trkpt lat="45.7546774" lon="8.7504865"><ele>301.0</ele><time>2026-05-01T08:43:41.524Z</time></trkpt><trkpt lat="45.7547514" lon="8.7503965"><ele>301.0</ele><time>2026-05-01T08:43:42.524Z</time></trkpt><trkpt lat="45.7548168" lon="8.7503123"><ele>301.0</ele><time>2026-05-01T08:43:43.524Z</time></trkpt><trkpt lat="45.7549004" lon="8.7502565"><ele>301.0</ele><time>2026-05-01T08:43:45.525Z</time></trkpt><trkpt lat="45.7549708" lon="8.7502774"><ele>301.0</ele><time>2026-05-01T08:43:46.524Z</time></trkpt><trkpt lat="45.7550724" lon="8.7502917"><ele>301.0</ele><time>2026-05-01T08:43:47.523Z</time></trkpt><trkpt lat="45.7551877" lon="8.7503082"><ele>299.5</ele><time>2026-05-01T08:43:48.523Z</time></trkpt><trkpt lat="45.7553134" lon="8.7503275"><ele>298.0</ele><time>2026-05-01T08:43:49.523Z</time></trkpt><trkpt lat="45.7554454" lon="8.7503404"><ele>296.5</ele><time>2026-05-01T08:43:50.523Z</time></trkpt><trkpt lat="45.7555825" lon="8.7503481"><ele>295.0</ele><time>2026-05-01T08:43:51.524Z</time></trkpt><trkpt lat="45.7557152" lon="8.7503825"><ele>295.0</ele><time>2026-05-01T08:43:52.525Z</time></trkpt><trkpt lat="45.755853" lon="8.7504201"><ele>295.0</ele><time>2026-05-01T08:43:53.523Z</time></trkpt><trkpt lat="45.7559893" lon="8.7504672"><ele>295.0</ele><time>2026-05-01T08:43:54.524Z</time></trkpt><trkpt lat="45.7561181" lon="8.7505201"><ele>295.0</ele><time>2026-05-01T08:43:55.524Z</time></trkpt><trkpt lat="45.7562365" lon="8.7505533"><ele>295.0</ele><time>2026-05-01T08:43:56.524Z</time></trkpt><trkpt lat="45.7563499" lon="8.7505716"><ele>295.0</ele><time>2026-05-01T08:43:57.523Z</time></trkpt><trkpt lat="45.7564594" lon="8.7505652"><ele>295.0</ele><time>2026-05-01T08:43:58.523Z</time></trkpt><trkpt lat="45.7565712" lon="8.7505413"><ele>295.0</ele><time>2026-05-01T08:43:59.523Z</time></trkpt><trkpt lat="45.7566874" lon="8.7505173"><ele>295.0</ele><time>2026-05-01T08:44:00.523Z</time></trkpt><trkpt lat="45.756802" lon="8.7505002"><ele>295.0</ele><time>2026-05-01T08:44:01.523Z</time></trkpt><trkpt lat="45.7569181" lon="8.750488"><ele>295.0</ele><time>2026-05-01T08:44:02.524Z</time></trkpt><trkpt lat="45.7570318" lon="8.7504726"><ele>295.0</ele><time>2026-05-01T08:44:03.524Z</time></trkpt><trkpt lat="45.7571354" lon="8.7504512"><ele>296.5</ele><time>2026-05-01T08:44:04.525Z</time></trkpt><trkpt lat="45.7572264" lon="8.7504243"><ele>298.0</ele><time>2026-05-01T08:44:05.523Z</time></trkpt><trkpt lat="45.7572884" lon="8.7503774"><ele>299.5</ele><time>2026-05-01T08:44:06.523Z</time></trkpt><trkpt lat="45.7573238" lon="8.7502991"><ele>301.0</ele><time>2026-05-01T08:44:07.524Z</time></trkpt><trkpt lat="45.7573419" lon="8.7501939"><ele>302.5</ele><time>2026-05-01T08:44:08.524Z</time></trkpt><trkpt lat="45.7573598" lon="8.7500752"><ele>304.0</ele><time>2026-05-01T08:44:09.524Z</time></trkpt><trkpt lat="45.7573937" lon="8.7499627"><ele>304.0</ele><time>2026-05-01T08:44:10.525Z</time></trkpt><trkpt lat="45.757437" lon="8.74986"><ele>304.0</ele><time>2026-05-01T08:44:11.523Z</time></trkpt><trkpt lat="45.7574931" lon="8.7497639"><ele>304.0</ele><time>2026-05-01T08:44:12.524Z</time></trkpt><trkpt lat="45.7575508" lon="8.7496631"><ele>304.0</ele><time>2026-05-01T08:44:13.524Z</time></trkpt><trkpt lat="45.757608" lon="8.7495503"><ele>304.0</ele><time>2026-05-01T08:44:14.524Z</time></trkpt><trkpt lat="45.7576611" lon="8.7494315"><ele>306.59999999999997</ele><time>2026-05-01T08:44:15.523Z</time></trkpt><trkpt lat="45.757703" lon="8.749312"><ele>309.2</ele><time>2026-05-01T08:44:16.524Z</time></trkpt><trkpt lat="45.7577424" lon="8.7491792"><ele>311.79999999999995</ele><time>2026-05-01T08:44:17.524Z</time></trkpt><trkpt lat="45.7577789" lon="8.7490467"><ele>314.4</ele><time>2026-05-01T08:44:18.523Z</time></trkpt><trkpt lat="45.7578119" lon="8.7489182"><ele>317.0</ele><time>2026-05-01T08:44:19.525Z</time></trkpt><trkpt lat="45.757852" lon="8.7487962"><ele>317.0</ele><time>2026-05-01T08:44:20.525Z</time></trkpt><trkpt lat="45.7578908" lon="8.7486881"><ele>317.0</ele><time>2026-05-01T08:44:21.524Z</time></trkpt><trkpt lat="45.757927" lon="8.7485894"><ele>317.0</ele><time>2026-05-01T08:44:22.524Z</time></trkpt><trkpt lat="45.7579744" lon="8.7484858"><ele>317.0</ele><time>2026-05-01T08:44:24.524Z</time></trkpt><trkpt lat="45.7580442" lon="8.7484963"><ele>317.0</ele><time>2026-05-01T08:44:26.524Z</time></trkpt><trkpt lat="45.7581706" lon="8.7485468"><ele>317.0</ele><time>2026-05-01T08:44:28.523Z</time></trkpt><trkpt lat="45.7582666" lon="8.7485518"><ele>317.0</ele><time>2026-05-01T08:44:29.523Z</time></trkpt><trkpt lat="45.7583352" lon="8.7485494"><ele>317.0</ele><time>2026-05-01T08:44:30.524Z</time></trkpt><trkpt lat="45.7583973" lon="8.7485721"><ele>317.0</ele><time>2026-05-01T08:44:31.524Z</time></trkpt><trkpt lat="45.7584845" lon="8.7486073"><ele>317.0</ele><time>2026-05-01T08:44:33.524Z</time></trkpt><trkpt lat="45.7585787" lon="8.7486056"><ele>317.0</ele><time>2026-05-01T08:44:35.524Z</time></trkpt><trkpt lat="45.7586427" lon="8.7486007"><ele>314.6</ele><time>2026-05-01T08:44:36.525Z</time></trkpt><trkpt lat="45.7587654" lon="8.7486573"><ele>312.2</ele><time>2026-05-01T08:44:38.524Z</time></trkpt><trkpt lat="45.7588397" lon="8.7487316"><ele>309.8</ele><time>2026-05-01T08:44:39.523Z</time></trkpt><trkpt lat="45.7589074" lon="8.7488131"><ele>307.4</ele><time>2026-05-01T08:44:40.524Z</time></trkpt><trkpt lat="45.7589829" lon="8.7489076"><ele>305.0</ele><time>2026-05-01T08:44:41.525Z</time></trkpt><trkpt lat="45.7590731" lon="8.7490273"><ele>305.0</ele><time>2026-05-01T08:44:42.524Z</time></trkpt><trkpt lat="45.7591529" lon="8.7491745"><ele>305.0</ele><time>2026-05-01T08:44:43.523Z</time></trkpt><trkpt lat="45.7592313" lon="8.7493183"><ele>305.0</ele><time>2026-05-01T08:44:44.524Z</time></trkpt><trkpt lat="45.759295" lon="8.7494571"><ele>305.0</ele><time>2026-05-01T08:44:45.524Z</time></trkpt><trkpt lat="45.7593468" lon="8.7495882"><ele>302.2</ele><time>2026-05-01T08:44:46.523Z</time></trkpt><trkpt lat="45.7593916" lon="8.749705"><ele>299.4</ele><time>2026-05-01T08:44:47.524Z</time></trkpt><trkpt lat="45.7594354" lon="8.7498119"><ele>296.6</ele><time>2026-05-01T08:44:49.524Z</time></trkpt><trkpt lat="45.7595076" lon="8.7497281"><ele>293.8</ele><time>2026-05-01T08:44:59.524Z</time></trkpt><trkpt lat="45.7595339" lon="8.7495514"><ele>291.0</ele><time>2026-05-01T08:45:01.523Z</time></trkpt><trkpt lat="45.7595379" lon="8.7494105"><ele>292.75</ele><time>2026-05-01T08:45:02.524Z</time></trkpt><trkpt lat="45.7595355" lon="8.7492598"><ele>294.5</ele><time>2026-05-01T08:45:03.524Z</time></trkpt><trkpt lat="45.7595279" lon="8.7490876"><ele>296.25</ele><time>2026-05-01T08:45:04.524Z</time></trkpt><trkpt lat="45.7595218" lon="8.7489036"><ele>298.0</ele><time>2026-05-01T08:45:05.523Z</time></trkpt><trkpt lat="45.7595198" lon="8.7487123"><ele>299.75</ele><time>2026-05-01T08:45:06.525Z</time></trkpt><trkpt lat="45.7595182" lon="8.7485106"><ele>301.5</ele><time>2026-05-01T08:45:07.523Z</time></trkpt><trkpt lat="45.759518" lon="8.7483056"><ele>303.25</ele><time>2026-05-01T08:45:08.524Z</time></trkpt><trkpt lat="45.759518" lon="8.7481013"><ele>305.0</ele><time>2026-05-01T08:45:09.524Z</time></trkpt><trkpt lat="45.7595167" lon="8.747898"><ele>306.0</ele><time>2026-05-01T08:45:10.525Z</time></trkpt><trkpt lat="45.7595143" lon="8.7477003"><ele>307.0</ele><time>2026-05-01T08:45:11.524Z</time></trkpt><trkpt lat="45.7595037" lon="8.747508"><ele>308.0</ele><time>2026-05-01T08:45:12.524Z</time></trkpt><trkpt lat="45.7594797" lon="8.7473237"><ele>309.0</ele><time>2026-05-01T08:45:13.525Z</time></trkpt><trkpt lat="45.7594426" lon="8.7471506"><ele>309.0</ele><time>2026-05-01T08:45:14.524Z</time></trkpt><trkpt lat="45.7593958" lon="8.7469869"><ele>309.0</ele><time>2026-05-01T08:45:15.524Z</time></trkpt><trkpt lat="45.7593389" lon="8.7468339"><ele>309.0</ele><time>2026-05-01T08:45:16.525Z</time></trkpt><trkpt lat="45.7592699" lon="8.7466911"><ele>309.0</ele><time>2026-05-01T08:45:17.524Z</time></trkpt><trkpt lat="45.7591942" lon="8.7465607"><ele>307.8</ele><time>2026-05-01T08:45:18.523Z</time></trkpt><trkpt lat="45.7591191" lon="8.7464425"><ele>306.59999999999997</ele><time>2026-05-01T08:45:19.524Z</time></trkpt><trkpt lat="45.7590484" lon="8.7463373"><ele>305.4</ele><time>2026-05-01T08:45:20.524Z</time></trkpt><trkpt lat="45.7589827" lon="8.7462408"><ele>304.2</ele><time>2026-05-01T08:45:21.524Z</time></trkpt><trkpt lat="45.7589164" lon="8.7461445"><ele>303.0</ele><time>2026-05-01T08:45:22.524Z</time></trkpt><trkpt lat="45.7588418" lon="8.7460477"><ele>304.5</ele><time>2026-05-01T08:45:23.524Z</time></trkpt><trkpt lat="45.7587576" lon="8.7459483"><ele>306.0</ele><time>2026-05-01T08:45:24.523Z</time></trkpt><trkpt lat="45.7586627" lon="8.7458524"><ele>307.5</ele><time>2026-05-01T08:45:25.524Z</time></trkpt><trkpt lat="45.7585606" lon="8.7457551"><ele>309.0</ele><time>2026-05-01T08:45:26.524Z</time></trkpt><trkpt lat="45.758453" lon="8.7456615"><ele>309.0</ele><time>2026-05-01T08:45:27.524Z</time></trkpt><trkpt lat="45.7583505" lon="8.7455718"><ele>309.0</ele><time>2026-05-01T08:45:28.524Z</time></trkpt><trkpt lat="45.7582603" lon="8.7454911"><ele>309.0</ele><time>2026-05-01T08:45:29.524Z</time></trkpt><trkpt lat="45.7581971" lon="8.7454368"><ele>309.0</ele><time>2026-05-01T08:45:30.523Z</time></trkpt><trkpt lat="45.7581505" lon="8.7453591"><ele>309.0</ele><time>2026-05-01T08:45:32.524Z</time></trkpt><trkpt lat="45.7581399" lon="8.7452109"><ele>311.2</ele><time>2026-05-01T08:45:34.523Z</time></trkpt><trkpt lat="45.758134" lon="8.7450233"><ele>313.4</ele><time>2026-05-01T08:45:36.524Z</time></trkpt><trkpt lat="45.7581418" lon="8.7448858"><ele>315.6</ele><time>2026-05-01T08:45:37.524Z</time></trkpt><trkpt lat="45.7581382" lon="8.7447731"><ele>317.8</ele><time>2026-05-01T08:45:38.524Z</time></trkpt><trkpt lat="45.7581305" lon="8.7446788"><ele>320.0</ele><time>2026-05-01T08:45:39.524Z</time></trkpt><trkpt lat="45.7580909" lon="8.7445437"><ele>320.0</ele><time>2026-05-01T08:45:41.524Z</time></trkpt><trkpt lat="45.758038" lon="8.7444707"><ele>320.0</ele><time>2026-05-01T08:45:45.524Z</time></trkpt><trkpt lat="45.7579745" lon="8.7444512"><ele>320.0</ele><time>2026-05-01T08:45:48.524Z</time></trkpt><trkpt lat="45.7579379" lon="8.7443617"><ele>320.0</ele><time>2026-05-01T08:45:51.524Z</time></trkpt><trkpt lat="45.7579596" lon="8.7442624"><ele>320.0</ele><time>2026-05-01T08:45:53.524Z</time></trkpt><trkpt lat="45.7579608" lon="8.7441181"><ele>320.0</ele><time>2026-05-01T08:45:55.524Z</time></trkpt><trkpt lat="45.7579274" lon="8.7440149"><ele>321.0</ele><time>2026-05-01T08:45:56.523Z</time></trkpt><trkpt lat="45.7578945" lon="8.7439257"><ele>322.0</ele><time>2026-05-01T08:45:57.524Z</time></trkpt><trkpt lat="45.7578479" lon="8.7438186"><ele>323.0</ele><time>2026-05-01T08:45:58.523Z</time></trkpt><trkpt lat="45.7578335" lon="8.7437117"><ele>324.0</ele><time>2026-05-01T08:45:59.524Z</time></trkpt><trkpt lat="45.7578468" lon="8.7435918"><ele>325.0</ele><time>2026-05-01T08:46:00.524Z</time></trkpt><trkpt lat="45.7578511" lon="8.7434741"><ele>326.0</ele><time>2026-05-01T08:46:01.524Z</time></trkpt><trkpt lat="45.7578606" lon="8.7433541"><ele>326.33333333333337</ele><time>2026-05-01T08:46:02.524Z</time></trkpt><trkpt lat="45.7578752" lon="8.7432481"><ele>326.6666666666667</ele><time>2026-05-01T08:46:03.524Z</time></trkpt><trkpt lat="45.7579348" lon="8.7431671"><ele>327.0</ele><time>2026-05-01T08:46:04.524Z</time></trkpt><trkpt lat="45.7579623" lon="8.7430842"><ele>327.3333333333333</ele><time>2026-05-01T08:46:05.524Z</time></trkpt><trkpt lat="45.7580005" lon="8.743002"><ele>327.66666666666663</ele><time>2026-05-01T08:46:06.523Z</time></trkpt><trkpt lat="45.7580419" lon="8.7429212"><ele>328.0</ele><time>2026-05-01T08:46:07.524Z</time></trkpt><trkpt lat="45.758092" lon="8.7427431"><ele>328.0</ele><time>2026-05-01T08:46:09.524Z</time></trkpt><trkpt lat="45.7581266" lon="8.7426367"><ele>328.0</ele><time>2026-05-01T08:46:10.525Z</time></trkpt><trkpt lat="45.7581642" lon="8.7425265"><ele>328.0</ele><time>2026-05-01T08:46:11.524Z</time></trkpt><trkpt lat="45.7582286" lon="8.7423911"><ele>328.0</ele><time>2026-05-01T08:46:13.523Z</time></trkpt><trkpt lat="45.7582825" lon="8.7423238"><ele>328.0</ele><time>2026-05-01T08:46:18.524Z</time></trkpt><trkpt lat="45.75835" lon="8.7422359"><ele>328.0</ele><time>2026-05-01T08:46:20.524Z</time></trkpt><trkpt lat="45.7584103" lon="8.7421646"><ele>328.0</ele><time>2026-05-01T08:46:21.523Z</time></trkpt><trkpt lat="45.7584725" lon="8.7420445"><ele>328.0</ele><time>2026-05-01T08:46:22.523Z</time></trkpt><trkpt lat="45.7585229" lon="8.7419732"><ele>328.0</ele><time>2026-05-01T08:46:23.524Z</time></trkpt><trkpt lat="45.7585876" lon="8.7418945"><ele>328.0</ele><time>2026-05-01T08:46:24.524Z</time></trkpt><trkpt lat="45.7586499" lon="8.7418136"><ele>328.0</ele><time>2026-05-01T08:46:25.524Z</time></trkpt><trkpt lat="45.7587468" lon="8.7417506"><ele>328.0</ele><time>2026-05-01T08:46:26.523Z</time></trkpt><trkpt lat="45.7588346" lon="8.7416817"><ele>328.0</ele><time>2026-05-01T08:46:27.524Z</time></trkpt><trkpt lat="45.7589195" lon="8.7416145"><ele>328.0</ele><time>2026-05-01T08:46:28.523Z</time></trkpt><trkpt lat="45.7590009" lon="8.7415459"><ele>328.0</ele><time>2026-05-01T08:46:29.524Z</time></trkpt><trkpt lat="45.7590795" lon="8.7414672"><ele>328.0</ele><time>2026-05-01T08:46:30.524Z</time></trkpt><trkpt lat="45.7591741" lon="8.7413794"><ele>328.0</ele><time>2026-05-01T08:46:32.525Z</time></trkpt><trkpt lat="45.7592482" lon="8.7413307"><ele>328.0</ele><time>2026-05-01T08:46:34.524Z</time></trkpt><trkpt lat="45.7593939" lon="8.7412817"><ele>328.0</ele><time>2026-05-01T08:46:36.523Z</time></trkpt><trkpt lat="45.7594906" lon="8.7412586"><ele>328.0</ele><time>2026-05-01T08:46:37.525Z</time></trkpt><trkpt lat="45.7596075" lon="8.7412373"><ele>328.0</ele><time>2026-05-01T08:46:38.524Z</time></trkpt><trkpt lat="45.7597325" lon="8.7412138"><ele>328.5</ele><time>2026-05-01T08:46:39.525Z</time></trkpt><trkpt lat="45.759857" lon="8.741189"><ele>329.0</ele><time>2026-05-01T08:46:40.524Z</time></trkpt><trkpt lat="45.7599829" lon="8.7411645"><ele>329.5</ele><time>2026-05-01T08:46:41.523Z</time></trkpt><trkpt lat="45.760107" lon="8.741146"><ele>330.0</ele><time>2026-05-01T08:46:42.523Z</time></trkpt><trkpt lat="45.7602237" lon="8.7411298"><ele>330.0</ele><time>2026-05-01T08:46:43.524Z</time></trkpt><trkpt lat="45.7603294" lon="8.7411176"><ele>330.0</ele><time>2026-05-01T08:46:44.525Z</time></trkpt><trkpt lat="45.760427" lon="8.7411034"><ele>330.0</ele><time>2026-05-01T08:46:45.523Z</time></trkpt><trkpt lat="45.7605213" lon="8.7410856"><ele>330.0</ele><time>2026-05-01T08:46:46.524Z</time></trkpt><trkpt lat="45.7606077" lon="8.74107"><ele>330.0</ele><time>2026-05-01T08:46:47.523Z</time></trkpt><trkpt lat="45.760687" lon="8.741062"><ele>330.0</ele><time>2026-05-01T08:46:48.524Z</time></trkpt><trkpt lat="45.7607508" lon="8.7410623"><ele>330.0</ele><time>2026-05-01T08:46:49.525Z</time></trkpt><trkpt lat="45.7608264" lon="8.741041"><ele>330.0</ele><time>2026-05-01T08:46:51.524Z</time></trkpt><trkpt lat="45.7608359" lon="8.7409023"><ele>330.0</ele><time>2026-05-01T08:46:53.524Z</time></trkpt><trkpt lat="45.7608127" lon="8.740789"><ele>330.0</ele><time>2026-05-01T08:46:54.524Z</time></trkpt><trkpt lat="45.7607837" lon="8.740642"><ele>330.0</ele><time>2026-05-01T08:46:55.523Z</time></trkpt><trkpt lat="45.7607631" lon="8.7404952"><ele>327.0</ele><time>2026-05-01T08:46:56.524Z</time></trkpt><trkpt lat="45.7607509" lon="8.7403495"><ele>324.0</ele><time>2026-05-01T08:46:57.524Z</time></trkpt><trkpt lat="45.7607482" lon="8.7402041"><ele>321.0</ele><time>2026-05-01T08:46:58.524Z</time></trkpt><trkpt lat="45.7607481" lon="8.7400419"><ele>318.0</ele><time>2026-05-01T08:46:59.524Z</time></trkpt><trkpt lat="45.7607483" lon="8.7399074"><ele>315.0</ele><time>2026-05-01T08:47:00.524Z</time></trkpt><trkpt lat="45.7607482" lon="8.7398046"><ele>315.0</ele><time>2026-05-01T08:47:01.524Z</time></trkpt><trkpt lat="45.7607395" lon="8.739652"><ele>315.0</ele><time>2026-05-01T08:47:03.523Z</time></trkpt><trkpt lat="45.7607936" lon="8.739571"><ele>315.0</ele><time>2026-05-01T08:47:05.524Z</time></trkpt><trkpt lat="45.7608987" lon="8.7394809"><ele>315.0</ele><time>2026-05-01T08:47:07.523Z</time></trkpt><trkpt lat="45.7609624" lon="8.7393391"><ele>315.0</ele><time>2026-05-01T08:47:09.523Z</time></trkpt><trkpt lat="45.7609883" lon="8.7392353"><ele>317.4</ele><time>2026-05-01T08:47:10.523Z</time></trkpt><trkpt lat="45.761037" lon="8.7391365"><ele>319.8</ele><time>2026-05-01T08:47:11.524Z</time></trkpt><trkpt lat="45.7610996" lon="8.7390051"><ele>322.20000000000005</ele><time>2026-05-01T08:47:12.524Z</time></trkpt><trkpt lat="45.7611397" lon="8.7388907"><ele>324.6</ele><time>2026-05-01T08:47:13.523Z</time></trkpt><trkpt lat="45.761183" lon="8.7387887"><ele>327.0</ele><time>2026-05-01T08:47:14.524Z</time></trkpt><trkpt lat="45.7612394" lon="8.7386837"><ele>327.0</ele><time>2026-05-01T08:47:15.524Z</time></trkpt><trkpt lat="45.7612959" lon="8.7385807"><ele>327.0</ele><time>2026-05-01T08:47:16.524Z</time></trkpt><trkpt lat="45.7613396" lon="8.7384838"><ele>327.0</ele><time>2026-05-01T08:47:17.523Z</time></trkpt><trkpt lat="45.7613849" lon="8.7383742"><ele>327.0</ele><time>2026-05-01T08:47:18.523Z</time></trkpt><trkpt lat="45.761424" lon="8.7382638"><ele>327.0</ele><time>2026-05-01T08:47:19.523Z</time></trkpt><trkpt lat="45.7614473" lon="8.7381736"><ele>327.0</ele><time>2026-05-01T08:47:20.523Z</time></trkpt><trkpt lat="45.7614559" lon="8.7380307"><ele>329.20000000000005</ele><time>2026-05-01T08:47:22.523Z</time></trkpt><trkpt lat="45.7614981" lon="8.737942"><ele>331.4</ele><time>2026-05-01T08:47:24.525Z</time></trkpt><trkpt lat="45.7616597" lon="8.7377754"><ele>333.6</ele><time>2026-05-01T08:47:26.524Z</time></trkpt><trkpt lat="45.7617279" lon="8.7376938"><ele>335.79999999999995</ele><time>2026-05-01T08:47:27.524Z</time></trkpt><trkpt lat="45.7617907" lon="8.737626"><ele>338.0</ele><time>2026-05-01T08:47:28.523Z</time></trkpt><trkpt lat="45.7618238" lon="8.7374898"><ele>338.83333333333337</ele><time>2026-05-01T08:47:30.524Z</time></trkpt><trkpt lat="45.7618878" lon="8.737395"><ele>339.6666666666667</ele><time>2026-05-01T08:47:32.523Z</time></trkpt><trkpt lat="45.7619259" lon="8.7372888"><ele>340.5</ele><time>2026-05-01T08:47:34.524Z</time></trkpt><trkpt lat="45.7618921" lon="8.7372112"><ele>341.3333333333333</ele><time>2026-05-01T08:47:40.524Z</time></trkpt><trkpt lat="45.7618469" lon="8.7370892"><ele>342.16666666666663</ele><time>2026-05-01T08:47:42.524Z</time></trkpt><trkpt lat="45.7618621" lon="8.7369948"><ele>343.0</ele><time>2026-05-01T08:47:43.524Z</time></trkpt><trkpt lat="45.7618926" lon="8.7368828"><ele>344.8333333333333</ele><time>2026-05-01T08:47:44.523Z</time></trkpt><trkpt lat="45.7619331" lon="8.7367536"><ele>346.66666666666663</ele><time>2026-05-01T08:47:45.524Z</time></trkpt><trkpt lat="45.761969" lon="8.7366278"><ele>348.5</ele><time>2026-05-01T08:47:46.524Z</time></trkpt><trkpt lat="45.761982" lon="8.7365171"><ele>350.3333333333333</ele><time>2026-05-01T08:47:47.525Z</time></trkpt><trkpt lat="45.761969" lon="8.7363998"><ele>352.1666666666667</ele><time>2026-05-01T08:47:48.524Z</time></trkpt><trkpt lat="45.7619591" lon="8.7362782"><ele>354.0</ele><time>2026-05-01T08:47:49.523Z</time></trkpt><trkpt lat="45.7619565" lon="8.7361796"><ele>353.4</ele><time>2026-05-01T08:47:50.523Z</time></trkpt><trkpt lat="45.7620058" lon="8.7360177"><ele>352.79999999999995</ele><time>2026-05-01T08:47:52.524Z</time></trkpt><trkpt lat="45.7620459" lon="8.7359189"><ele>352.20000000000005</ele><time>2026-05-01T08:47:54.524Z</time></trkpt><trkpt lat="45.7620761" lon="8.7357977"><ele>351.6</ele><time>2026-05-01T08:47:57.524Z</time></trkpt><trkpt lat="45.7621618" lon="8.735725"><ele>351.0</ele><time>2026-05-01T08:48:00.523Z</time></trkpt><trkpt lat="45.7622597" lon="8.735656"><ele>351.00000000000006</ele><time>2026-05-01T08:48:02.523Z</time></trkpt><trkpt lat="45.7623117" lon="8.7356047"><ele>351.0</ele><time>2026-05-01T08:48:03.523Z</time></trkpt><trkpt lat="45.7623795" lon="8.7355391"><ele>351.0</ele><time>2026-05-01T08:48:04.523Z</time></trkpt><trkpt lat="45.7624355" lon="8.7354898"><ele>351.0</ele><time>2026-05-01T08:48:05.524Z</time></trkpt><trkpt lat="45.7624996" lon="8.7354464"><ele>351.0</ele><time>2026-05-01T08:48:06.525Z</time></trkpt><trkpt lat="45.7625737" lon="8.7353981"><ele>351.00000000000006</ele><time>2026-05-01T08:48:07.524Z</time></trkpt><trkpt lat="45.7626431" lon="8.7353376"><ele>351.0</ele><time>2026-05-01T08:48:08.525Z</time></trkpt><trkpt lat="45.7627255" lon="8.7352878"><ele>351.3333333333333</ele><time>2026-05-01T08:48:09.525Z</time></trkpt><trkpt lat="45.7628052" lon="8.7352466"><ele>351.6666666666667</ele><time>2026-05-01T08:48:10.523Z</time></trkpt><trkpt lat="45.7628989" lon="8.7352245"><ele>352.0</ele><time>2026-05-01T08:48:11.524Z</time></trkpt><trkpt lat="45.7629803" lon="8.7352003"><ele>352.33333333333337</ele><time>2026-05-01T08:48:12.524Z</time></trkpt><trkpt lat="45.7630596" lon="8.7351728"><ele>352.6666666666667</ele><time>2026-05-01T08:48:13.524Z</time></trkpt><trkpt lat="45.7631373" lon="8.7351576"><ele>353.0</ele><time>2026-05-01T08:48:14.524Z</time></trkpt><trkpt lat="45.7632034" lon="8.7351389"><ele>353.0</ele><time>2026-05-01T08:48:15.524Z</time></trkpt><trkpt lat="45.7632674" lon="8.7351528"><ele>353.0</ele><time>2026-05-01T08:48:16.523Z</time></trkpt><trkpt lat="45.7633473" lon="8.7351502"><ele>353.0</ele><time>2026-05-01T08:48:17.523Z</time></trkpt><trkpt lat="45.7634746" lon="8.7351312"><ele>353.0</ele><time>2026-05-01T08:48:19.523Z</time></trkpt><trkpt lat="45.7635403" lon="8.7351218"><ele>353.0</ele><time>2026-05-01T08:48:20.523Z</time></trkpt><trkpt lat="45.7636606" lon="8.7351471"><ele>352.79999999999995</ele><time>2026-05-01T08:48:22.523Z</time></trkpt><trkpt lat="45.7637767" lon="8.7352061"><ele>352.6</ele><time>2026-05-01T08:48:24.524Z</time></trkpt><trkpt lat="45.7638361" lon="8.7352546"><ele>352.4</ele><time>2026-05-01T08:48:25.524Z</time></trkpt><trkpt lat="45.7638916" lon="8.7353152"><ele>352.20000000000005</ele><time>2026-05-01T08:48:26.525Z</time></trkpt><trkpt lat="45.7639539" lon="8.7353622"><ele>352.0</ele><time>2026-05-01T08:48:27.524Z</time></trkpt><trkpt lat="45.7640591" lon="8.7354599"><ele>354.16666666666663</ele><time>2026-05-01T08:48:29.524Z</time></trkpt><trkpt lat="45.7641141" lon="8.7355129"><ele>356.3333333333333</ele><time>2026-05-01T08:48:30.524Z</time></trkpt><trkpt lat="45.7641701" lon="8.7355628"><ele>358.5</ele><time>2026-05-01T08:48:31.524Z</time></trkpt><trkpt lat="45.7642338" lon="8.7356208"><ele>360.6666666666667</ele><time>2026-05-01T08:48:32.524Z</time></trkpt><trkpt lat="45.7643016" lon="8.7357271"><ele>362.83333333333337</ele><time>2026-05-01T08:48:34.524Z</time></trkpt><trkpt lat="45.7643577" lon="8.735775"><ele>365.0</ele><time>2026-05-01T08:48:35.524Z</time></trkpt><trkpt lat="45.7644331" lon="8.7358111"><ele>365.0</ele><time>2026-05-01T08:48:36.525Z</time></trkpt><trkpt lat="45.7644927" lon="8.7358496"><ele>365.0</ele><time>2026-05-01T08:48:37.523Z</time></trkpt><trkpt lat="45.7646175" lon="8.7359175"><ele>365.0</ele><time>2026-05-01T08:48:39.524Z</time></trkpt><trkpt lat="45.7646855" lon="8.7359295"><ele>365.0</ele><time>2026-05-01T08:48:40.524Z</time></trkpt><trkpt lat="45.7647527" lon="8.7359542"><ele>365.0</ele><time>2026-05-01T08:48:41.524Z</time></trkpt><trkpt lat="45.7648636" lon="8.7360017"><ele>365.2</ele><time>2026-05-01T08:48:43.525Z</time></trkpt><trkpt lat="45.7649538" lon="8.7360594"><ele>365.4</ele><time>2026-05-01T08:48:51.524Z</time></trkpt><trkpt lat="45.7650853" lon="8.7361784"><ele>365.6</ele><time>2026-05-01T08:48:54.523Z</time></trkpt><trkpt lat="45.7651477" lon="8.7362386"><ele>365.8</ele><time>2026-05-01T08:48:55.524Z</time></trkpt><trkpt lat="45.7652059" lon="8.7363158"><ele>366.0</ele><time>2026-05-01T08:48:56.523Z</time></trkpt><trkpt lat="45.7652627" lon="8.7363854"><ele>366.0</ele><time>2026-05-01T08:48:57.524Z</time></trkpt><trkpt lat="45.7653207" lon="8.7364393"><ele>366.0</ele><time>2026-05-01T08:48:58.523Z</time></trkpt><trkpt lat="45.7653893" lon="8.736492"><ele>366.0</ele><time>2026-05-01T08:48:59.524Z</time></trkpt><trkpt lat="45.7654807" lon="8.7365535"><ele>366.0</ele><time>2026-05-01T08:49:01.524Z</time></trkpt><trkpt lat="45.7655367" lon="8.73664"><ele>366.0</ele><time>2026-05-01T08:49:03.523Z</time></trkpt><trkpt lat="45.7655629" lon="8.7367443"><ele>366.0</ele><time>2026-05-01T08:49:05.524Z</time></trkpt><trkpt lat="45.7655383" lon="8.7368833"><ele>367.8</ele><time>2026-05-01T08:49:07.524Z</time></trkpt><trkpt lat="45.7654928" lon="8.7370327"><ele>369.6</ele><time>2026-05-01T08:49:09.524Z</time></trkpt><trkpt lat="45.7654476" lon="8.7371889"><ele>371.4</ele><time>2026-05-01T08:49:11.524Z</time></trkpt><trkpt lat="45.7654058" lon="8.7373364"><ele>373.2</ele><time>2026-05-01T08:49:13.524Z</time></trkpt><trkpt lat="45.7653993" lon="8.7374747"><ele>375.0</ele><time>2026-05-01T08:49:15.524Z</time></trkpt><trkpt lat="45.765468" lon="8.737586"><ele>375.0</ele><time>2026-05-01T08:49:17.523Z</time></trkpt><trkpt lat="45.7655607" lon="8.7376795"><ele>375.0</ele><time>2026-05-01T08:49:19.524Z</time></trkpt><trkpt lat="45.7656582" lon="8.7377786"><ele>375.0</ele><time>2026-05-01T08:49:21.524Z</time></trkpt><trkpt lat="45.7657504" lon="8.737885"><ele>375.0</ele><time>2026-05-01T08:49:23.524Z</time></trkpt><trkpt lat="45.7658291" lon="8.7379924"><ele>375.4</ele><time>2026-05-01T08:49:25.523Z</time></trkpt><trkpt lat="45.7659172" lon="8.7380821"><ele>375.8</ele><time>2026-05-01T08:49:27.524Z</time></trkpt><trkpt lat="45.7660259" lon="8.7381334"><ele>376.20000000000005</ele><time>2026-05-01T08:49:29.524Z</time></trkpt><trkpt lat="45.7661218" lon="8.7381904"><ele>376.6</ele><time>2026-05-01T08:49:31.524Z</time></trkpt><trkpt lat="45.7661649" lon="8.7383073"><ele>377.0</ele><time>2026-05-01T08:49:33.524Z</time></trkpt><trkpt lat="45.7661906" lon="8.7385133"><ele>377.6666666666667</ele><time>2026-05-01T08:49:35.524Z</time></trkpt><trkpt lat="45.7662036" lon="8.738664"><ele>378.33333333333337</ele><time>2026-05-01T08:49:36.524Z</time></trkpt><trkpt lat="45.7662113" lon="8.7387936"><ele>379.0</ele><time>2026-05-01T08:49:37.525Z</time></trkpt><trkpt lat="45.7662219" lon="8.7389086"><ele>379.6666666666667</ele><time>2026-05-01T08:49:38.524Z</time></trkpt><trkpt lat="45.7662352" lon="8.7390092"><ele>380.3333333333333</ele><time>2026-05-01T08:49:39.523Z</time></trkpt><trkpt lat="45.7662544" lon="8.7391019"><ele>381.0</ele><time>2026-05-01T08:49:40.523Z</time></trkpt><trkpt lat="45.7662748" lon="8.7391885"><ele>381.0</ele><time>2026-05-01T08:49:41.524Z</time></trkpt><trkpt lat="45.7662967" lon="8.7392742"><ele>381.0</ele><time>2026-05-01T08:49:42.524Z</time></trkpt><trkpt lat="45.7663196" lon="8.7393598"><ele>381.0</ele><time>2026-05-01T08:49:43.523Z</time></trkpt><trkpt lat="45.7663445" lon="8.7394465"><ele>381.0</ele><time>2026-05-01T08:49:44.524Z</time></trkpt><trkpt lat="45.7663632" lon="8.739536"><ele>381.0</ele><time>2026-05-01T08:49:45.523Z</time></trkpt><trkpt lat="45.7663814" lon="8.739627"><ele>381.0</ele><time>2026-05-01T08:49:46.524Z</time></trkpt><trkpt lat="45.7664009" lon="8.7397202"><ele>381.0</ele><time>2026-05-01T08:49:47.523Z</time></trkpt><trkpt lat="45.7664257" lon="8.7398109"><ele>380.5</ele><time>2026-05-01T08:49:48.524Z</time></trkpt><trkpt lat="45.7664614" lon="8.7398951"><ele>380.0</ele><time>2026-05-01T08:49:49.524Z</time></trkpt><trkpt lat="45.7665002" lon="8.739977"><ele>379.5</ele><time>2026-05-01T08:49:50.524Z</time></trkpt><trkpt lat="45.7665418" lon="8.7400491"><ele>379.0</ele><time>2026-05-01T08:49:51.524Z</time></trkpt><trkpt lat="45.7666193" lon="8.7401778"><ele>378.5</ele><time>2026-05-01T08:49:53.523Z</time></trkpt><trkpt lat="45.7667063" lon="8.7402991"><ele>378.0</ele><time>2026-05-01T08:49:55.524Z</time></trkpt><trkpt lat="45.766783" lon="8.7404129"><ele>378.2</ele><time>2026-05-01T08:49:57.525Z</time></trkpt><trkpt lat="45.7668636" lon="8.7405447"><ele>378.4</ele><time>2026-05-01T08:49:59.524Z</time></trkpt><trkpt lat="45.7669526" lon="8.7406725"><ele>378.59999999999997</ele><time>2026-05-01T08:50:01.523Z</time></trkpt><trkpt lat="45.7670453" lon="8.7407476"><ele>378.79999999999995</ele><time>2026-05-01T08:50:03.524Z</time></trkpt><trkpt lat="45.767106" lon="8.7408009"><ele>379.0</ele><time>2026-05-01T08:50:05.525Z</time></trkpt><trkpt lat="45.7671031" lon="8.7409224"><ele>378.3333333333333</ele><time>2026-05-01T08:50:08.524Z</time></trkpt><trkpt lat="45.7670482" lon="8.7410628"><ele>377.66666666666663</ele><time>2026-05-01T08:50:10.523Z</time></trkpt><trkpt lat="45.7670163" lon="8.7411535"><ele>377.0</ele><time>2026-05-01T08:50:11.523Z</time></trkpt><trkpt lat="45.7669817" lon="8.741254"><ele>376.3333333333333</ele><time>2026-05-01T08:50:12.524Z</time></trkpt><trkpt lat="45.7669454" lon="8.7413607"><ele>375.6666666666667</ele><time>2026-05-01T08:50:13.524Z</time></trkpt><trkpt lat="45.7669099" lon="8.7414651"><ele>375.0</ele><time>2026-05-01T08:50:14.524Z</time></trkpt><trkpt lat="45.7668731" lon="8.7415717"><ele>374.5</ele><time>2026-05-01T08:50:15.525Z</time></trkpt><trkpt lat="45.76684" lon="8.7416776"><ele>374.0</ele><time>2026-05-01T08:50:16.524Z</time></trkpt><trkpt lat="45.7668086" lon="8.7417774"><ele>373.5</ele><time>2026-05-01T08:50:17.523Z</time></trkpt><trkpt lat="45.7667754" lon="8.7418662"><ele>373.0</ele><time>2026-05-01T08:50:18.523Z</time></trkpt><trkpt lat="45.7667393" lon="8.7419413"><ele>372.5</ele><time>2026-05-01T08:50:19.525Z</time></trkpt><trkpt lat="45.7666919" lon="8.7421141"><ele>372.0</ele><time>2026-05-01T08:50:21.524Z</time></trkpt><trkpt lat="45.7666736" lon="8.7422242"><ele>370.6666666666667</ele><time>2026-05-01T08:50:22.524Z</time></trkpt><trkpt lat="45.7666585" lon="8.7423411"><ele>369.3333333333333</ele><time>2026-05-01T08:50:23.524Z</time></trkpt><trkpt lat="45.7666506" lon="8.7424601"><ele>368.0</ele><time>2026-05-01T08:50:24.524Z</time></trkpt><trkpt lat="45.7666493" lon="8.7425837"><ele>366.66666666666663</ele><time>2026-05-01T08:50:25.524Z</time></trkpt><trkpt lat="45.766646" lon="8.7427081"><ele>365.3333333333333</ele><time>2026-05-01T08:50:26.525Z</time></trkpt><trkpt lat="45.7666382" lon="8.7428283"><ele>364.0</ele><time>2026-05-01T08:50:27.523Z</time></trkpt><trkpt lat="45.766623" lon="8.7429387"><ele>362.5</ele><time>2026-05-01T08:50:28.523Z</time></trkpt><trkpt lat="45.7665874" lon="8.7430406"><ele>361.0</ele><time>2026-05-01T08:50:29.524Z</time></trkpt><trkpt lat="45.7665242" lon="8.7431133"><ele>359.5</ele><time>2026-05-01T08:50:30.524Z</time></trkpt><trkpt lat="45.766455" lon="8.7431727"><ele>358.0</ele><time>2026-05-01T08:50:31.524Z</time></trkpt><trkpt lat="45.7663907" lon="8.7432391"><ele>356.5</ele><time>2026-05-01T08:50:32.524Z</time></trkpt><trkpt lat="45.7663439" lon="8.7433171"><ele>355.0</ele><time>2026-05-01T08:50:33.525Z</time></trkpt><trkpt lat="45.7663309" lon="8.743414"><ele>355.0</ele><time>2026-05-01T08:50:34.524Z</time></trkpt><trkpt lat="45.7663597" lon="8.7435059"><ele>355.0</ele><time>2026-05-01T08:50:35.525Z</time></trkpt><trkpt lat="45.7664039" lon="8.7435899"><ele>355.0</ele><time>2026-05-01T08:50:36.524Z</time></trkpt><trkpt lat="45.7664545" lon="8.7436704"><ele>355.0</ele><time>2026-05-01T08:50:37.524Z</time></trkpt><trkpt lat="45.7665076" lon="8.7437502"><ele>355.0</ele><time>2026-05-01T08:50:38.523Z</time></trkpt><trkpt lat="45.7665517" lon="8.7438303"><ele>355.0</ele><time>2026-05-01T08:50:39.524Z</time></trkpt><trkpt lat="45.7665882" lon="8.7439813"><ele>353.0</ele><time>2026-05-01T08:50:41.524Z</time></trkpt><trkpt lat="45.7666599" lon="8.7440986"><ele>351.0</ele><time>2026-05-01T08:50:43.524Z</time></trkpt><trkpt lat="45.7667314" lon="8.7441559"><ele>349.0</ele><time>2026-05-01T08:50:44.525Z</time></trkpt><trkpt lat="45.7668114" lon="8.7441959"><ele>347.0</ele><time>2026-05-01T08:50:45.524Z</time></trkpt><trkpt lat="45.7668861" lon="8.7442242"><ele>345.0</ele><time>2026-05-01T08:50:46.524Z</time></trkpt><trkpt lat="45.766988" lon="8.7442875"><ele>344.0</ele><time>2026-05-01T08:50:48.524Z</time></trkpt><trkpt lat="45.7670089" lon="8.7444328"><ele>343.0</ele><time>2026-05-01T08:50:50.523Z</time></trkpt><trkpt lat="45.766991" lon="8.7445296"><ele>342.0</ele><time>2026-05-01T08:50:51.523Z</time></trkpt><trkpt lat="45.7669627" lon="8.7446412"><ele>341.0</ele><time>2026-05-01T08:50:52.523Z</time></trkpt><trkpt lat="45.7669447" lon="8.7447728"><ele>340.0</ele><time>2026-05-01T08:50:53.523Z</time></trkpt><trkpt lat="45.7669152" lon="8.7449041"><ele>339.0</ele><time>2026-05-01T08:50:54.524Z</time></trkpt><trkpt lat="45.7668819" lon="8.7450381"><ele>338.79999999999995</ele><time>2026-05-01T08:50:55.524Z</time></trkpt><trkpt lat="45.7668388" lon="8.7451683"><ele>338.59999999999997</ele><time>2026-05-01T08:50:56.523Z</time></trkpt><trkpt lat="45.7667923" lon="8.7452955"><ele>338.4</ele><time>2026-05-01T08:50:57.523Z</time></trkpt><trkpt lat="45.7667451" lon="8.7454153"><ele>338.2</ele><time>2026-05-01T08:50:58.524Z</time></trkpt><trkpt lat="45.7666913" lon="8.7455263"><ele>338.0</ele><time>2026-05-01T08:50:59.524Z</time></trkpt><trkpt lat="45.7666285" lon="8.7456253"><ele>337.59999999999997</ele><time>2026-05-01T08:51:00.523Z</time></trkpt><trkpt lat="45.7665525" lon="8.7457133"><ele>337.2</ele><time>2026-05-01T08:51:01.523Z</time></trkpt><trkpt lat="45.7664682" lon="8.7457887"><ele>336.8</ele><time>2026-05-01T08:51:02.524Z</time></trkpt><trkpt lat="45.7663916" lon="8.7458777"><ele>336.4</ele><time>2026-05-01T08:51:03.523Z</time></trkpt><trkpt lat="45.7663282" lon="8.7459797"><ele>336.0</ele><time>2026-05-01T08:51:04.524Z</time></trkpt><trkpt lat="45.7662819" lon="8.746089"><ele>335.8333333333333</ele><time>2026-05-01T08:51:05.524Z</time></trkpt><trkpt lat="45.7662634" lon="8.7462069"><ele>335.6666666666667</ele><time>2026-05-01T08:51:06.523Z</time></trkpt><trkpt lat="45.7662652" lon="8.7463302"><ele>335.5</ele><time>2026-05-01T08:51:07.524Z</time></trkpt><trkpt lat="45.7662809" lon="8.7464452"><ele>335.33333333333337</ele><time>2026-05-01T08:51:08.524Z</time></trkpt><trkpt lat="45.7662976" lon="8.7465604"><ele>335.1666666666667</ele><time>2026-05-01T08:51:09.523Z</time></trkpt><trkpt lat="45.766309" lon="8.7466788"><ele>335.0</ele><time>2026-05-01T08:51:10.524Z</time></trkpt><trkpt lat="45.7663208" lon="8.7467962"><ele>334.5</ele><time>2026-05-01T08:51:11.523Z</time></trkpt><trkpt lat="45.7663346" lon="8.7469043"><ele>334.0</ele><time>2026-05-01T08:51:12.524Z</time></trkpt><trkpt lat="45.7663543" lon="8.7470155"><ele>333.5</ele><time>2026-05-01T08:51:13.524Z</time></trkpt><trkpt lat="45.7663793" lon="8.7471325"><ele>333.0</ele><time>2026-05-01T08:51:14.523Z</time></trkpt><trkpt lat="45.7664054" lon="8.7472561"><ele>332.5</ele><time>2026-05-01T08:51:15.523Z</time></trkpt><trkpt lat="45.7664306" lon="8.7473794"><ele>332.0</ele><time>2026-05-01T08:51:16.524Z</time></trkpt><trkpt lat="45.7664571" lon="8.7474953"><ele>332.0</ele><time>2026-05-01T08:51:17.523Z</time></trkpt><trkpt lat="45.7664847" lon="8.7476039"><ele>332.0</ele><time>2026-05-01T08:51:18.524Z</time></trkpt><trkpt lat="45.766502" lon="8.7477061"><ele>332.0</ele><time>2026-05-01T08:51:19.523Z</time></trkpt><trkpt lat="45.7665196" lon="8.7477934"><ele>332.0</ele><time>2026-05-01T08:51:20.523Z</time></trkpt><trkpt lat="45.7665445" lon="8.7478949"><ele>332.0</ele><time>2026-05-01T08:51:22.523Z</time></trkpt><trkpt lat="45.7665925" lon="8.7479928"><ele>332.0</ele><time>2026-05-01T08:51:39.524Z</time></trkpt><trkpt lat="45.7666269" lon="8.7480715"><ele>332.0</ele><time>2026-05-01T08:51:40.524Z</time></trkpt><trkpt lat="45.7666711" lon="8.7481869"><ele>331.83333333333337</ele><time>2026-05-01T08:51:41.524Z</time></trkpt><trkpt lat="45.7667135" lon="8.748299"><ele>331.6666666666667</ele><time>2026-05-01T08:51:42.524Z</time></trkpt><trkpt lat="45.7667557" lon="8.7484102"><ele>331.5</ele><time>2026-05-01T08:51:43.523Z</time></trkpt><trkpt lat="45.7667983" lon="8.7485221"><ele>331.3333333333333</ele><time>2026-05-01T08:51:44.524Z</time></trkpt><trkpt lat="45.7668341" lon="8.7486411"><ele>331.16666666666663</ele><time>2026-05-01T08:51:45.523Z</time></trkpt><trkpt lat="45.7668591" lon="8.7487609"><ele>331.0</ele><time>2026-05-01T08:51:46.524Z</time></trkpt><trkpt lat="45.7668711" lon="8.7488845"><ele>329.8333333333333</ele><time>2026-05-01T08:51:47.524Z</time></trkpt><trkpt lat="45.7668826" lon="8.7490111"><ele>328.66666666666663</ele><time>2026-05-01T08:51:48.524Z</time></trkpt><trkpt lat="45.7668972" lon="8.7491248"><ele>327.5</ele><time>2026-05-01T08:51:49.523Z</time></trkpt><trkpt lat="45.7668962" lon="8.7492366"><ele>326.3333333333333</ele><time>2026-05-01T08:51:50.523Z</time></trkpt><trkpt lat="45.7668981" lon="8.7493485"><ele>325.1666666666667</ele><time>2026-05-01T08:51:51.523Z</time></trkpt><trkpt lat="45.7669002" lon="8.7494714"><ele>324.0</ele><time>2026-05-01T08:51:52.525Z</time></trkpt><trkpt lat="45.7669533" lon="8.7496454"><ele>324.3333333333333</ele><time>2026-05-01T08:51:54.523Z</time></trkpt><trkpt lat="45.7669813" lon="8.7497419"><ele>324.6666666666667</ele><time>2026-05-01T08:51:55.524Z</time></trkpt><trkpt lat="45.7669623" lon="8.7498595"><ele>325.0</ele><time>2026-05-01T08:51:56.523Z</time></trkpt><trkpt lat="45.7669336" lon="8.7499589"><ele>325.33333333333337</ele><time>2026-05-01T08:51:57.524Z</time></trkpt><trkpt lat="45.7668992" lon="8.7500574"><ele>325.6666666666667</ele><time>2026-05-01T08:51:58.524Z</time></trkpt><trkpt lat="45.7668477" lon="8.7501586"><ele>326.0</ele><time>2026-05-01T08:51:59.524Z</time></trkpt><trkpt lat="45.7667691" lon="8.7503195"><ele>323.33333333333337</ele><time>2026-05-01T08:52:01.524Z</time></trkpt><trkpt lat="45.7666855" lon="8.750411"><ele>320.6666666666667</ele><time>2026-05-01T08:52:03.524Z</time></trkpt><trkpt lat="45.7666866" lon="8.7505017"><ele>318.0</ele><time>2026-05-01T08:52:06.524Z</time></trkpt><trkpt lat="45.7667764" lon="8.7505013"><ele>315.3333333333333</ele><time>2026-05-01T08:52:08.524Z</time></trkpt><trkpt lat="45.7668465" lon="8.7504931"><ele>312.66666666666663</ele><time>2026-05-01T08:52:09.524Z</time></trkpt><trkpt lat="45.7669229" lon="8.750482"><ele>310.0</ele><time>2026-05-01T08:52:10.524Z</time></trkpt><trkpt lat="45.7670299" lon="8.7504511"><ele>308.8</ele><time>2026-05-01T08:52:11.523Z</time></trkpt><trkpt lat="45.7671364" lon="8.7504137"><ele>307.6</ele><time>2026-05-01T08:52:12.524Z</time></trkpt><trkpt lat="45.7672401" lon="8.7503642"><ele>306.4</ele><time>2026-05-01T08:52:13.524Z</time></trkpt><trkpt lat="45.7673446" lon="8.7503116"><ele>305.2</ele><time>2026-05-01T08:52:14.525Z</time></trkpt><trkpt lat="45.7674406" lon="8.7502639"><ele>304.0</ele><time>2026-05-01T08:52:15.523Z</time></trkpt><trkpt lat="45.7675342" lon="8.7502232"><ele>304.0</ele><time>2026-05-01T08:52:16.524Z</time></trkpt><trkpt lat="45.7676299" lon="8.7502215"><ele>304.0</ele><time>2026-05-01T08:52:17.523Z</time></trkpt><trkpt lat="45.7677266" lon="8.7502404"><ele>304.0</ele><time>2026-05-01T08:52:18.524Z</time></trkpt><trkpt lat="45.7678226" lon="8.7502562"><ele>304.0</ele><time>2026-05-01T08:52:19.523Z</time></trkpt><trkpt lat="45.7679104" lon="8.7502494"><ele>304.0</ele><time>2026-05-01T08:52:20.524Z</time></trkpt><trkpt lat="45.7679922" lon="8.7502174"><ele>305.16666666666663</ele><time>2026-05-01T08:52:21.524Z</time></trkpt><trkpt lat="45.7680692" lon="8.7501664"><ele>306.3333333333333</ele><time>2026-05-01T08:52:22.524Z</time></trkpt><trkpt lat="45.7681506" lon="8.7501413"><ele>307.5</ele><time>2026-05-01T08:52:23.523Z</time></trkpt><trkpt lat="45.7682116" lon="8.7501067"><ele>308.6666666666667</ele><time>2026-05-01T08:52:24.523Z</time></trkpt><trkpt lat="45.7682868" lon="8.7500875"><ele>309.83333333333337</ele><time>2026-05-01T08:52:25.523Z</time></trkpt><trkpt lat="45.7683651" lon="8.7500862"><ele>311.0</ele><time>2026-05-01T08:52:26.524Z</time></trkpt><trkpt lat="45.7684373" lon="8.7501048"><ele>311.0</ele><time>2026-05-01T08:52:27.524Z</time></trkpt><trkpt lat="45.768509" lon="8.7501355"><ele>311.0</ele><time>2026-05-01T08:52:28.524Z</time></trkpt><trkpt lat="45.7685771" lon="8.7501745"><ele>311.0</ele><time>2026-05-01T08:52:29.524Z</time></trkpt><trkpt lat="45.7686502" lon="8.7502236"><ele>311.0</ele><time>2026-05-01T08:52:30.523Z</time></trkpt><trkpt lat="45.7687206" lon="8.7502822"><ele>311.0</ele><time>2026-05-01T08:52:31.524Z</time></trkpt><trkpt lat="45.7687771" lon="8.7503523"><ele>311.0</ele><time>2026-05-01T08:52:32.523Z</time></trkpt><trkpt lat="45.7688372" lon="8.7504253"><ele>311.33333333333337</ele><time>2026-05-01T08:52:33.524Z</time></trkpt><trkpt lat="45.7688907" lon="8.7505142"><ele>311.6666666666667</ele><time>2026-05-01T08:52:34.525Z</time></trkpt><trkpt lat="45.7689282" lon="8.7506105"><ele>312.0</ele><time>2026-05-01T08:52:35.523Z</time></trkpt><trkpt lat="45.7689666" lon="8.7507094"><ele>312.3333333333333</ele><time>2026-05-01T08:52:36.524Z</time></trkpt><trkpt lat="45.7689975" lon="8.7508221"><ele>312.66666666666663</ele><time>2026-05-01T08:52:37.523Z</time></trkpt><trkpt lat="45.7690245" lon="8.7509354"><ele>313.0</ele><time>2026-05-01T08:52:38.525Z</time></trkpt><trkpt lat="45.7690623" lon="8.7510284"><ele>312.8333333333333</ele><time>2026-05-01T08:52:39.524Z</time></trkpt><trkpt lat="45.7691177" lon="8.7511031"><ele>312.66666666666663</ele><time>2026-05-01T08:52:40.523Z</time></trkpt><trkpt lat="45.7691807" lon="8.7511783"><ele>312.5</ele><time>2026-05-01T08:52:41.524Z</time></trkpt><trkpt lat="45.7692416" lon="8.751262"><ele>312.3333333333333</ele><time>2026-05-01T08:52:42.524Z</time></trkpt><trkpt lat="45.769296" lon="8.7513374"><ele>312.1666666666667</ele><time>2026-05-01T08:52:43.524Z</time></trkpt><trkpt lat="45.7693622" lon="8.751399"><ele>312.0</ele><time>2026-05-01T08:52:44.524Z</time></trkpt><trkpt lat="45.7694264" lon="8.7514646"><ele>312.0</ele><time>2026-05-01T08:52:45.524Z</time></trkpt><trkpt lat="45.7694996" lon="8.7514929"><ele>312.0</ele><time>2026-05-01T08:52:46.524Z</time></trkpt><trkpt lat="45.7695802" lon="8.7515209"><ele>312.0</ele><time>2026-05-01T08:52:48.523Z</time></trkpt><trkpt lat="45.7696796" lon="8.751544"><ele>312.0</ele><time>2026-05-01T08:52:50.524Z</time></trkpt><trkpt lat="45.7698119" lon="8.7515663"><ele>312.0</ele><time>2026-05-01T08:52:52.524Z</time></trkpt><trkpt lat="45.7699012" lon="8.7515777"><ele>312.0</ele><time>2026-05-01T08:52:53.524Z</time></trkpt><trkpt lat="45.7700035" lon="8.7515405"><ele>312.0</ele><time>2026-05-01T08:52:54.524Z</time></trkpt><trkpt lat="45.7700997" lon="8.7515387"><ele>312.0</ele><time>2026-05-01T08:52:55.523Z</time></trkpt><trkpt lat="45.7702041" lon="8.7515434"><ele>312.0</ele><time>2026-05-01T08:52:56.524Z</time></trkpt><trkpt lat="45.7703084" lon="8.7515614"><ele>312.0</ele><time>2026-05-01T08:52:57.524Z</time></trkpt><trkpt lat="45.7704042" lon="8.7515726"><ele>310.8571428571429</ele><time>2026-05-01T08:52:58.523Z</time></trkpt><trkpt lat="45.7704849" lon="8.7515867"><ele>309.71428571428567</ele><time>2026-05-01T08:52:59.523Z</time></trkpt><trkpt lat="45.7705612" lon="8.7515472"><ele>308.57142857142856</ele><time>2026-05-01T08:53:00.523Z</time></trkpt><trkpt lat="45.7706223" lon="8.7514962"><ele>307.42857142857144</ele><time>2026-05-01T08:53:01.524Z</time></trkpt><trkpt lat="45.7706881" lon="8.7514597"><ele>306.28571428571433</ele><time>2026-05-01T08:53:02.524Z</time></trkpt><trkpt lat="45.7707516" lon="8.7514678"><ele>305.1428571428571</ele><time>2026-05-01T08:53:03.524Z</time></trkpt><trkpt lat="45.7708152" lon="8.751448"><ele>304.0</ele><time>2026-05-01T08:53:04.523Z</time></trkpt><trkpt lat="45.7708813" lon="8.75145"><ele>304.0</ele><time>2026-05-01T08:53:05.525Z</time></trkpt><trkpt lat="45.7709402" lon="8.7514894"><ele>304.0</ele><time>2026-05-01T08:53:08.524Z</time></trkpt><trkpt lat="45.7708587" lon="8.751452"><ele>304.0</ele><time>2026-05-01T08:53:31.524Z</time></trkpt><trkpt lat="45.7707952" lon="8.7514596"><ele>304.0</ele><time>2026-05-01T08:53:34.524Z</time></trkpt><trkpt lat="45.7707206" lon="8.7514734"><ele>304.0</ele><time>2026-05-01T08:53:42.524Z</time></trkpt><trkpt lat="45.7706431" lon="8.7515013"><ele>304.0</ele><time>2026-05-01T08:53:44.524Z</time></trkpt><trkpt lat="45.7705767" lon="8.7515565"><ele>304.0</ele><time>2026-05-01T08:53:45.523Z</time></trkpt><trkpt lat="45.7704764" lon="8.7515656"><ele>304.0</ele><time>2026-05-01T08:53:47.523Z</time></trkpt><trkpt lat="45.7703778" lon="8.7515581"><ele>304.0</ele><time>2026-05-01T08:53:49.523Z</time></trkpt><trkpt lat="45.7702757" lon="8.7515505"><ele>304.0</ele><time>2026-05-01T08:53:51.524Z</time></trkpt><trkpt lat="45.7701524" lon="8.7515299"><ele>304.0</ele><time>2026-05-01T08:53:53.524Z</time></trkpt><trkpt lat="45.7700302" lon="8.7515381"><ele>304.0</ele><time>2026-05-01T08:53:55.525Z</time></trkpt><trkpt lat="45.7698938" lon="8.7515502"><ele>305.1428571428571</ele><time>2026-05-01T08:53:57.524Z</time></trkpt><trkpt lat="45.7698197" lon="8.7515497"><ele>306.28571428571433</ele><time>2026-05-01T08:53:58.523Z</time></trkpt><trkpt lat="45.7697518" lon="8.7515514"><ele>307.42857142857144</ele><time>2026-05-01T08:53:59.524Z</time></trkpt><trkpt lat="45.7696888" lon="8.7515415"><ele>308.57142857142856</ele><time>2026-05-01T08:54:00.523Z</time></trkpt><trkpt lat="45.769609" lon="8.7515049"><ele>309.71428571428567</ele><time>2026-05-01T08:54:02.524Z</time></trkpt><trkpt lat="45.7696301" lon="8.7514037"><ele>310.8571428571429</ele><time>2026-05-01T08:54:05.524Z</time></trkpt><trkpt lat="45.7696785" lon="8.7513039"><ele>312.0</ele><time>2026-05-01T08:54:07.524Z</time></trkpt><trkpt lat="45.7697403" lon="8.7511711"><ele>314.3333333333333</ele><time>2026-05-01T08:54:09.524Z</time></trkpt><trkpt lat="45.7698117" lon="8.7510209"><ele>316.6666666666667</ele><time>2026-05-01T08:54:11.524Z</time></trkpt><trkpt lat="45.7698661" lon="8.7509305"><ele>319.0</ele><time>2026-05-01T08:54:14.523Z</time></trkpt><trkpt lat="45.7699226" lon="8.7508772"><ele>321.33333333333337</ele><time>2026-05-01T08:54:17.524Z</time></trkpt><trkpt lat="45.7699937" lon="8.7508794"><ele>323.6666666666667</ele><time>2026-05-01T08:54:25.524Z</time></trkpt><trkpt lat="45.7699992" lon="8.7507491"><ele>326.0</ele><time>2026-05-01T08:54:28.525Z</time></trkpt><trkpt lat="45.770038" lon="8.7506617"><ele>326.0</ele><time>2026-05-01T08:54:32.524Z</time></trkpt><trkpt lat="45.7701108" lon="8.7505692"><ele>326.0</ele><time>2026-05-01T08:54:34.524Z</time></trkpt><trkpt lat="45.770203" lon="8.750514"><ele>326.0</ele><time>2026-05-01T08:54:36.524Z</time></trkpt><trkpt lat="45.7703085" lon="8.7504591"><ele>326.0</ele><time>2026-05-01T08:54:38.523Z</time></trkpt><trkpt lat="45.7704052" lon="8.7503574"><ele>326.0</ele><time>2026-05-01T08:54:40.523Z</time></trkpt><trkpt lat="45.7705216" lon="8.7503085"><ele>325.8</ele><time>2026-05-01T08:54:42.525Z</time></trkpt><trkpt lat="45.7705936" lon="8.7502996"><ele>325.6</ele><time>2026-05-01T08:54:43.523Z</time></trkpt><trkpt lat="45.7706675" lon="8.7502822"><ele>325.4</ele><time>2026-05-01T08:54:44.523Z</time></trkpt><trkpt lat="45.7707294" lon="8.7502423"><ele>325.2</ele><time>2026-05-01T08:54:45.523Z</time></trkpt><trkpt lat="45.7708333" lon="8.7501747"><ele>325.0</ele><time>2026-05-01T08:54:47.524Z</time></trkpt><trkpt lat="45.7709468" lon="8.7500779"><ele>325.3333333333333</ele><time>2026-05-01T08:54:49.524Z</time></trkpt><trkpt lat="45.7710089" lon="8.7500022"><ele>325.66666666666663</ele><time>2026-05-01T08:54:50.524Z</time></trkpt><trkpt lat="45.7710616" lon="8.7499395"><ele>326.0</ele><time>2026-05-01T08:54:51.524Z</time></trkpt><trkpt lat="45.771113" lon="8.7498677"><ele>326.3333333333333</ele><time>2026-05-01T08:54:52.524Z</time></trkpt><trkpt lat="45.7711501" lon="8.7497522"><ele>326.6666666666667</ele><time>2026-05-01T08:54:54.523Z</time></trkpt><trkpt lat="45.7711354" lon="8.7496492"><ele>327.0</ele><time>2026-05-01T08:54:57.523Z</time></trkpt><trkpt lat="45.7711415" lon="8.749523"><ele>327.0</ele><time>2026-05-01T08:55:05.524Z</time></trkpt><trkpt lat="45.7711457" lon="8.7494292"><ele>327.0</ele><time>2026-05-01T08:55:09.523Z</time></trkpt><trkpt lat="45.7711838" lon="8.7493296"><ele>327.0</ele><time>2026-05-01T08:55:14.524Z</time></trkpt><trkpt lat="45.7712033" lon="8.7492212"><ele>327.0</ele><time>2026-05-01T08:55:17.524Z</time></trkpt><trkpt lat="45.7712077" lon="8.7490894"><ele>327.0</ele><time>2026-05-01T08:55:20.524Z</time></trkpt><trkpt lat="45.7711705" lon="8.7489289"><ele>327.0</ele><time>2026-05-01T08:55:22.524Z</time></trkpt><trkpt lat="45.7711532" lon="8.748792"><ele>329.2857142857143</ele><time>2026-05-01T08:55:24.523Z</time></trkpt><trkpt lat="45.7711562" lon="8.7486751"><ele>331.57142857142856</ele><time>2026-05-01T08:55:26.524Z</time></trkpt><trkpt lat="45.771184" lon="8.7485844"><ele>333.8571428571429</ele><time>2026-05-01T08:55:28.523Z</time></trkpt><trkpt lat="45.7712492" lon="8.7485166"><ele>336.1428571428571</ele><time>2026-05-01T08:55:30.523Z</time></trkpt><trkpt lat="45.7713013" lon="8.7484583"><ele>338.42857142857144</ele><time>2026-05-01T08:55:31.524Z</time></trkpt><trkpt lat="45.7713455" lon="8.7483816"><ele>340.7142857142857</ele><time>2026-05-01T08:55:32.524Z</time></trkpt><trkpt lat="45.7713862" lon="8.7483061"><ele>343.0</ele><time>2026-05-01T08:55:33.524Z</time></trkpt><trkpt lat="45.7714258" lon="8.7482313"><ele>346.0</ele><time>2026-05-01T08:55:34.524Z</time></trkpt><trkpt lat="45.7714673" lon="8.7481266"><ele>349.0</ele><time>2026-05-01T08:55:36.523Z</time></trkpt><trkpt lat="45.7715237" lon="8.7479814"><ele>352.0</ele><time>2026-05-01T08:55:38.523Z</time></trkpt><trkpt lat="45.7715754" lon="8.7478378"><ele>355.0</ele><time>2026-05-01T08:55:40.524Z</time></trkpt><trkpt lat="45.7716771" lon="8.7477306"><ele>358.0</ele><time>2026-05-01T08:55:42.523Z</time></trkpt><trkpt lat="45.771742" lon="8.7476658"><ele>358.3333333333333</ele><time>2026-05-01T08:55:43.525Z</time></trkpt><trkpt lat="45.7718102" lon="8.747587"><ele>358.66666666666663</ele><time>2026-05-01T08:55:44.524Z</time></trkpt><trkpt lat="45.7718564" lon="8.7475122"><ele>359.0</ele><time>2026-05-01T08:55:45.523Z</time></trkpt><trkpt lat="45.7719292" lon="8.7474093"><ele>359.3333333333333</ele><time>2026-05-01T08:55:47.525Z</time></trkpt><trkpt lat="45.7720134" lon="8.7473108"><ele>359.6666666666667</ele><time>2026-05-01T08:55:49.523Z</time></trkpt><trkpt lat="45.7720604" lon="8.7472507"><ele>360.0</ele><time>2026-05-01T08:55:50.523Z</time></trkpt><trkpt lat="45.7721126" lon="8.7471947"><ele>359.8</ele><time>2026-05-01T08:55:51.524Z</time></trkpt><trkpt lat="45.7722204" lon="8.7470948"><ele>359.6</ele><time>2026-05-01T08:55:53.524Z</time></trkpt><trkpt lat="45.7723388" lon="8.7470017"><ele>359.4</ele><time>2026-05-01T08:55:55.523Z</time></trkpt><trkpt lat="45.7723998" lon="8.7469397"><ele>359.2</ele><time>2026-05-01T08:55:56.524Z</time></trkpt><trkpt lat="45.7724697" lon="8.746898"><ele>359.0</ele><time>2026-05-01T08:55:57.524Z</time></trkpt><trkpt lat="45.7725391" lon="8.7468559"><ele>359.0</ele><time>2026-05-01T08:55:58.524Z</time></trkpt><trkpt lat="45.7726077" lon="8.7468311"><ele>359.0</ele><time>2026-05-01T08:55:59.525Z</time></trkpt><trkpt lat="45.7726741" lon="8.7467833"><ele>359.0</ele><time>2026-05-01T08:56:00.523Z</time></trkpt><trkpt lat="45.7727427" lon="8.7467347"><ele>359.0</ele><time>2026-05-01T08:56:01.523Z</time></trkpt><trkpt lat="45.7728121" lon="8.746681"><ele>359.0</ele><time>2026-05-01T08:56:02.524Z</time></trkpt><trkpt lat="45.7728679" lon="8.746626"><ele>359.0</ele><time>2026-05-01T08:56:03.523Z</time></trkpt><trkpt lat="45.7729233" lon="8.7465748"><ele>359.0</ele><time>2026-05-01T08:56:04.523Z</time></trkpt><trkpt lat="45.7729772" lon="8.7465148"><ele>359.33333333333337</ele><time>2026-05-01T08:56:05.523Z</time></trkpt><trkpt lat="45.7730352" lon="8.7464401"><ele>359.6666666666667</ele><time>2026-05-01T08:56:06.524Z</time></trkpt><trkpt lat="45.7730915" lon="8.7463677"><ele>360.0</ele><time>2026-05-01T08:56:07.525Z</time></trkpt><trkpt lat="45.7731546" lon="8.7463012"><ele>360.3333333333333</ele><time>2026-05-01T08:56:08.524Z</time></trkpt><trkpt lat="45.7732292" lon="8.7462503"><ele>360.66666666666663</ele><time>2026-05-01T08:56:09.523Z</time></trkpt><trkpt lat="45.7732939" lon="8.7461776"><ele>361.0</ele><time>2026-05-01T08:56:10.524Z</time></trkpt><trkpt lat="45.7733556" lon="8.7461175"><ele>361.0</ele><time>2026-05-01T08:56:11.524Z</time></trkpt><trkpt lat="45.7734186" lon="8.7460496"><ele>361.0</ele><time>2026-05-01T08:56:12.523Z</time></trkpt><trkpt lat="45.7734755" lon="8.7459899"><ele>361.0</ele><time>2026-05-01T08:56:13.523Z</time></trkpt><trkpt lat="45.7735407" lon="8.7459152"><ele>361.0</ele><time>2026-05-01T08:56:14.524Z</time></trkpt><trkpt lat="45.773607" lon="8.7458329"><ele>361.0</ele><time>2026-05-01T08:56:15.523Z</time></trkpt><trkpt lat="45.7736719" lon="8.7457442"><ele>361.0</ele><time>2026-05-01T08:56:16.523Z</time></trkpt><trkpt lat="45.7737369" lon="8.7456537"><ele>361.66666666666663</ele><time>2026-05-01T08:56:17.524Z</time></trkpt><trkpt lat="45.7738054" lon="8.7455682"><ele>362.3333333333333</ele><time>2026-05-01T08:56:18.523Z</time></trkpt><trkpt lat="45.7738624" lon="8.7454701"><ele>363.0</ele><time>2026-05-01T08:56:19.524Z</time></trkpt><trkpt lat="45.7739201" lon="8.7453796"><ele>363.6666666666667</ele><time>2026-05-01T08:56:20.523Z</time></trkpt><trkpt lat="45.7739709" lon="8.7452911"><ele>364.33333333333337</ele><time>2026-05-01T08:56:21.523Z</time></trkpt><trkpt lat="45.7740106" lon="8.7452121"><ele>365.0</ele><time>2026-05-01T08:56:22.524Z</time></trkpt><trkpt lat="45.77409" lon="8.7450766"><ele>365.0</ele><time>2026-05-01T08:56:24.525Z</time></trkpt><trkpt lat="45.7741272" lon="8.7449919"><ele>365.0</ele><time>2026-05-01T08:56:25.524Z</time></trkpt><trkpt lat="45.7741642" lon="8.7448856"><ele>365.0</ele><time>2026-05-01T08:56:26.524Z</time></trkpt><trkpt lat="45.7742101" lon="8.7447853"><ele>365.0</ele><time>2026-05-01T08:56:27.523Z</time></trkpt><trkpt lat="45.7742534" lon="8.7446901"><ele>365.0</ele><time>2026-05-01T08:56:28.523Z</time></trkpt><trkpt lat="45.7743072" lon="8.7446081"><ele>365.0</ele><time>2026-05-01T08:56:29.523Z</time></trkpt><trkpt lat="45.7743656" lon="8.744524"><ele>364.5</ele><time>2026-05-01T08:56:30.524Z</time></trkpt><trkpt lat="45.7744276" lon="8.7444437"><ele>364.0</ele><time>2026-05-01T08:56:31.524Z</time></trkpt><trkpt lat="45.7744876" lon="8.7443652"><ele>363.5</ele><time>2026-05-01T08:56:32.524Z</time></trkpt><trkpt lat="45.7745408" lon="8.7442748"><ele>363.0</ele><time>2026-05-01T08:56:33.523Z</time></trkpt><trkpt lat="45.774584" lon="8.7441727"><ele>362.5</ele><time>2026-05-01T08:56:34.524Z</time></trkpt><trkpt lat="45.7745824" lon="8.7440804"><ele>362.0</ele><time>2026-05-01T08:56:35.525Z</time></trkpt><trkpt lat="45.7745628" lon="8.7439014"><ele>362.0</ele><time>2026-05-01T08:56:37.524Z</time></trkpt><trkpt lat="45.7745508" lon="8.7437978"><ele>362.0</ele><time>2026-05-01T08:56:38.523Z</time></trkpt><trkpt lat="45.7745226" lon="8.7437053"><ele>362.0</ele><time>2026-05-01T08:56:39.525Z</time></trkpt><trkpt lat="45.7745108" lon="8.7435912"><ele>362.0</ele><time>2026-05-01T08:56:40.523Z</time></trkpt><trkpt lat="45.7744978" lon="8.7434921"><ele>362.0</ele><time>2026-05-01T08:56:41.524Z</time></trkpt><trkpt lat="45.7744942" lon="8.7433606"><ele>362.0</ele><time>2026-05-01T08:56:43.524Z</time></trkpt><trkpt lat="45.7745462" lon="8.743302"><ele>363.0</ele><time>2026-05-01T08:56:45.524Z</time></trkpt><trkpt lat="45.77466" lon="8.7432922"><ele>364.0</ele><time>2026-05-01T08:56:47.523Z</time></trkpt><trkpt lat="45.7747295" lon="8.7432718"><ele>365.0</ele><time>2026-05-01T08:56:48.524Z</time></trkpt><trkpt lat="45.7748048" lon="8.7432434"><ele>366.0</ele><time>2026-05-01T08:56:49.524Z</time></trkpt><trkpt lat="45.7748846" lon="8.7432148"><ele>367.0</ele><time>2026-05-01T08:56:50.524Z</time></trkpt><trkpt lat="45.7749683" lon="8.743182"><ele>368.0</ele><time>2026-05-01T08:56:51.524Z</time></trkpt><trkpt lat="45.7750508" lon="8.7431517"><ele>368.0</ele><time>2026-05-01T08:56:52.524Z</time></trkpt><trkpt lat="45.7751362" lon="8.743121"><ele>368.0</ele><time>2026-05-01T08:56:53.523Z</time></trkpt><trkpt lat="45.7752229" lon="8.74309"><ele>368.0</ele><time>2026-05-01T08:56:54.524Z</time></trkpt><trkpt lat="45.7753112" lon="8.7430567"><ele>368.0</ele><time>2026-05-01T08:56:55.524Z</time></trkpt><trkpt lat="45.7754003" lon="8.743023"><ele>368.0</ele><time>2026-05-01T08:56:56.524Z</time></trkpt><trkpt lat="45.7754882" lon="8.742989"><ele>368.0</ele><time>2026-05-01T08:56:57.523Z</time></trkpt><trkpt lat="45.7755766" lon="8.7429519"><ele>368.0</ele><time>2026-05-01T08:56:58.523Z</time></trkpt><trkpt lat="45.7756664" lon="8.7429199"><ele>368.0</ele><time>2026-05-01T08:56:59.523Z</time></trkpt><trkpt lat="45.7757552" lon="8.7428873"><ele>368.0</ele><time>2026-05-01T08:57:00.523Z</time></trkpt><trkpt lat="45.7758427" lon="8.7428555"><ele>368.0</ele><time>2026-05-01T08:57:01.524Z</time></trkpt><trkpt lat="45.7759295" lon="8.7428215"><ele>368.0</ele><time>2026-05-01T08:57:02.524Z</time></trkpt><trkpt lat="45.776017" lon="8.742786"><ele>368.0</ele><time>2026-05-01T08:57:03.524Z</time></trkpt><trkpt lat="45.7761029" lon="8.742749"><ele>368.0</ele><time>2026-05-01T08:57:04.524Z</time></trkpt><trkpt lat="45.7761901" lon="8.7427153"><ele>368.0</ele><time>2026-05-01T08:57:05.523Z</time></trkpt><trkpt lat="45.7762774" lon="8.7426822"><ele>368.0</ele><time>2026-05-01T08:57:06.524Z</time></trkpt><trkpt lat="45.7763635" lon="8.7426508"><ele>369.33333333333337</ele><time>2026-05-01T08:57:07.524Z</time></trkpt><trkpt lat="45.7764507" lon="8.7426315"><ele>370.6666666666667</ele><time>2026-05-01T08:57:08.524Z</time></trkpt><trkpt lat="45.7765359" lon="8.7426439"><ele>372.0</ele><time>2026-05-01T08:57:09.524Z</time></trkpt><trkpt lat="45.7766184" lon="8.7426746"><ele>373.3333333333333</ele><time>2026-05-01T08:57:10.525Z</time></trkpt><trkpt lat="45.7766965" lon="8.7427201"><ele>374.66666666666663</ele><time>2026-05-01T08:57:11.524Z</time></trkpt><trkpt lat="45.7767723" lon="8.7427759"><ele>376.0</ele><time>2026-05-01T08:57:12.524Z</time></trkpt><trkpt lat="45.7768458" lon="8.7428328"><ele>376.7142857142857</ele><time>2026-05-01T08:57:13.523Z</time></trkpt><trkpt lat="45.7769176" lon="8.7428704"><ele>377.42857142857144</ele><time>2026-05-01T08:57:14.523Z</time></trkpt><trkpt lat="45.7769918" lon="8.7429006"><ele>378.1428571428571</ele><time>2026-05-01T08:57:15.523Z</time></trkpt><trkpt lat="45.7770627" lon="8.7429239"><ele>378.8571428571429</ele><time>2026-05-01T08:57:16.524Z</time></trkpt><trkpt lat="45.7771312" lon="8.7429436"><ele>379.5714285714286</ele><time>2026-05-01T08:57:17.525Z</time></trkpt><trkpt lat="45.7771938" lon="8.7429533"><ele>380.2857142857143</ele><time>2026-05-01T08:57:18.523Z</time></trkpt><trkpt lat="45.7772625" lon="8.7429388"><ele>381.0</ele><time>2026-05-01T08:57:20.524Z</time></trkpt><trkpt lat="45.7773175" lon="8.7428299"><ele>381.0</ele><time>2026-05-01T08:57:26.524Z</time></trkpt><trkpt lat="45.7773564" lon="8.7427251"><ele>381.0</ele><time>2026-05-01T08:57:27.524Z</time></trkpt><trkpt lat="45.777386" lon="8.74264"><ele>381.0</ele><time>2026-05-01T08:57:28.524Z</time></trkpt><trkpt lat="45.7774152" lon="8.742548"><ele>381.0</ele><time>2026-05-01T08:57:29.525Z</time></trkpt><trkpt lat="45.7774415" lon="8.7424575"><ele>381.0</ele><time>2026-05-01T08:57:30.524Z</time></trkpt><trkpt lat="45.7774809" lon="8.7423384"><ele>381.0</ele><time>2026-05-01T08:57:32.524Z</time></trkpt><trkpt lat="45.7774584" lon="8.7424696"><ele>381.0</ele><time>2026-05-01T08:57:38.524Z</time></trkpt><trkpt lat="45.7774285" lon="8.7425928"><ele>381.0</ele><time>2026-05-01T08:57:39.524Z</time></trkpt><trkpt lat="45.7773988" lon="8.742698"><ele>381.0</ele><time>2026-05-01T08:57:40.524Z</time></trkpt><trkpt lat="45.7773473" lon="8.7427873"><ele>381.0</ele><time>2026-05-01T08:57:41.525Z</time></trkpt><trkpt lat="45.7772924" lon="8.7429015"><ele>381.0</ele><time>2026-05-01T08:57:43.524Z</time></trkpt><trkpt lat="45.7772296" lon="8.7428921"><ele>381.0</ele><time>2026-05-01T08:57:45.524Z</time></trkpt><trkpt lat="45.7771534" lon="8.742792"><ele>381.0</ele><time>2026-05-01T08:57:47.524Z</time></trkpt><trkpt lat="45.7770898" lon="8.7427254"><ele>381.0</ele><time>2026-05-01T08:57:48.523Z</time></trkpt><trkpt lat="45.7770084" lon="8.7426662"><ele>381.0</ele><time>2026-05-01T08:57:49.524Z</time></trkpt><trkpt lat="45.7769534" lon="8.7425723"><ele>381.0</ele><time>2026-05-01T08:57:50.523Z</time></trkpt><trkpt lat="45.7769115" lon="8.7424648"><ele>381.0</ele><time>2026-05-01T08:57:51.525Z</time></trkpt><trkpt lat="45.7768675" lon="8.7423417"><ele>381.0</ele><time>2026-05-01T08:57:52.524Z</time></trkpt><trkpt lat="45.7768337" lon="8.7422134"><ele>380.8333333333333</ele><time>2026-05-01T08:57:53.524Z</time></trkpt><trkpt lat="45.7768118" lon="8.7420874"><ele>380.6666666666667</ele><time>2026-05-01T08:57:54.524Z</time></trkpt><trkpt lat="45.7767993" lon="8.7419801"><ele>380.5</ele><time>2026-05-01T08:57:55.523Z</time></trkpt><trkpt lat="45.7767947" lon="8.7418648"><ele>380.33333333333337</ele><time>2026-05-01T08:57:56.523Z</time></trkpt><trkpt lat="45.776819" lon="8.7417417"><ele>380.1666666666667</ele><time>2026-05-01T08:57:57.525Z</time></trkpt><trkpt lat="45.7768473" lon="8.7416392"><ele>380.0</ele><time>2026-05-01T08:57:58.524Z</time></trkpt><trkpt lat="45.7768731" lon="8.7415525"><ele>379.83333333333337</ele><time>2026-05-01T08:57:59.524Z</time></trkpt><trkpt lat="45.776881" lon="8.7414613"><ele>379.6666666666667</ele><time>2026-05-01T08:58:00.524Z</time></trkpt><trkpt lat="45.7768975" lon="8.7413726"><ele>379.5</ele><time>2026-05-01T08:58:01.524Z</time></trkpt><trkpt lat="45.7768009" lon="8.741241"><ele>379.3333333333333</ele><time>2026-05-01T08:58:03.524Z</time></trkpt><trkpt lat="45.7767386" lon="8.741192"><ele>379.16666666666663</ele><time>2026-05-01T08:58:04.523Z</time></trkpt><trkpt lat="45.7766671" lon="8.7412011"><ele>379.0</ele><time>2026-05-01T08:58:05.524Z</time></trkpt><trkpt lat="45.7765768" lon="8.7412057"><ele>380.16666666666663</ele><time>2026-05-01T08:58:06.524Z</time></trkpt><trkpt lat="45.7764761" lon="8.7412128"><ele>381.3333333333333</ele><time>2026-05-01T08:58:07.524Z</time></trkpt><trkpt lat="45.7763828" lon="8.7412367"><ele>382.5</ele><time>2026-05-01T08:58:08.523Z</time></trkpt><trkpt lat="45.7763052" lon="8.7412315"><ele>383.66666666666663</ele><time>2026-05-01T08:58:09.524Z</time></trkpt><trkpt lat="45.776224" lon="8.7412116"><ele>384.8333333333333</ele><time>2026-05-01T08:58:10.523Z</time></trkpt><trkpt lat="45.776147" lon="8.7412069"><ele>386.0</ele><time>2026-05-01T08:58:11.524Z</time></trkpt><trkpt lat="45.7760566" lon="8.7412143"><ele>386.6</ele><time>2026-05-01T08:58:12.524Z</time></trkpt><trkpt lat="45.7759614" lon="8.7412174"><ele>387.20000000000005</ele><time>2026-05-01T08:58:13.525Z</time></trkpt><trkpt lat="45.7758662" lon="8.741247"><ele>387.79999999999995</ele><time>2026-05-01T08:58:14.524Z</time></trkpt><trkpt lat="45.7757582" lon="8.7412984"><ele>388.4</ele><time>2026-05-01T08:58:15.523Z</time></trkpt><trkpt lat="45.7756635" lon="8.7413318"><ele>389.0</ele><time>2026-05-01T08:58:16.524Z</time></trkpt><trkpt lat="45.7755947" lon="8.7413706"><ele>388.99999999999994</ele><time>2026-05-01T08:58:17.525Z</time></trkpt><trkpt lat="45.7755404" lon="8.7414282"><ele>389.0</ele><time>2026-05-01T08:58:18.524Z</time></trkpt><trkpt lat="45.7754663" lon="8.7414694"><ele>389.0</ele><time>2026-05-01T08:58:19.523Z</time></trkpt><trkpt lat="45.7753958" lon="8.741475"><ele>389.0</ele><time>2026-05-01T08:58:20.524Z</time></trkpt><trkpt lat="45.7753226" lon="8.7414758"><ele>388.99999999999994</ele><time>2026-05-01T08:58:21.523Z</time></trkpt><trkpt lat="45.7751869" lon="8.7414877"><ele>389.0</ele><time>2026-05-01T08:58:23.524Z</time></trkpt><trkpt lat="45.7750834" lon="8.7414873"><ele>389.99999999999994</ele><time>2026-05-01T08:58:24.524Z</time></trkpt><trkpt lat="45.7749934" lon="8.7414792"><ele>391.0</ele><time>2026-05-01T08:58:25.524Z</time></trkpt><trkpt lat="45.7749109" lon="8.7414836"><ele>392.0</ele><time>2026-05-01T08:58:26.524Z</time></trkpt><trkpt lat="45.7748271" lon="8.7414802"><ele>393.0</ele><time>2026-05-01T08:58:27.525Z</time></trkpt><trkpt lat="45.774746" lon="8.7414637"><ele>393.99999999999994</ele><time>2026-05-01T08:58:28.524Z</time></trkpt><trkpt lat="45.7746895" lon="8.741411"><ele>395.0</ele><time>2026-05-01T08:58:29.524Z</time></trkpt><trkpt lat="45.7746209" lon="8.7413696"><ele>394.99999999999994</ele><time>2026-05-01T08:58:30.524Z</time></trkpt><trkpt lat="45.7745452" lon="8.7413043"><ele>395.0</ele><time>2026-05-01T08:58:31.525Z</time></trkpt><trkpt lat="45.7744919" lon="8.7412361"><ele>395.0</ele><time>2026-05-01T08:58:32.524Z</time></trkpt><trkpt lat="45.7744439" lon="8.741152"><ele>395.0</ele><time>2026-05-01T08:58:33.524Z</time></trkpt><trkpt lat="45.7744222" lon="8.741046"><ele>394.99999999999994</ele><time>2026-05-01T08:58:34.523Z</time></trkpt><trkpt lat="45.7743923" lon="8.7409523"><ele>395.0</ele><time>2026-05-01T08:58:35.524Z</time></trkpt><trkpt lat="45.7743776" lon="8.7408472"><ele>394.99999999999994</ele><time>2026-05-01T08:58:36.524Z</time></trkpt><trkpt lat="45.7743865" lon="8.7407421"><ele>395.0</ele><time>2026-05-01T08:58:37.524Z</time></trkpt><trkpt lat="45.7743894" lon="8.7406359"><ele>395.0</ele><time>2026-05-01T08:58:38.524Z</time></trkpt><trkpt lat="45.7743984" lon="8.7405342"><ele>395.0</ele><time>2026-05-01T08:58:39.523Z</time></trkpt><trkpt lat="45.7744192" lon="8.7404341"><ele>394.99999999999994</ele><time>2026-05-01T08:58:40.524Z</time></trkpt><trkpt lat="45.7744214" lon="8.7402662"><ele>395.0</ele><time>2026-05-01T08:58:42.524Z</time></trkpt><trkpt lat="45.7744383" lon="8.7401771"><ele>395.0</ele><time>2026-05-01T08:58:43.523Z</time></trkpt><trkpt lat="45.7744511" lon="8.7400036"><ele>395.0</ele><time>2026-05-01T08:58:45.523Z</time></trkpt><trkpt lat="45.7744861" lon="8.7398482"><ele>395.0</ele><time>2026-05-01T08:58:47.525Z</time></trkpt><trkpt lat="45.7745037" lon="8.7397538"><ele>395.0</ele><time>2026-05-01T08:58:49.523Z</time></trkpt><trkpt lat="45.7745852" lon="8.7397352"><ele>395.0</ele><time>2026-05-01T08:59:27.523Z</time></trkpt><trkpt lat="45.7746574" lon="8.7397139"><ele>395.0</ele><time>2026-05-01T08:59:30.524Z</time></trkpt><trkpt lat="45.7747387" lon="8.7397392"><ele>395.0</ele><time>2026-05-01T08:59:39.524Z</time></trkpt><trkpt lat="45.7748251" lon="8.7397304"><ele>395.0</ele><time>2026-05-01T08:59:41.523Z</time></trkpt><trkpt lat="45.7748889" lon="8.7396861"><ele>395.0</ele><time>2026-05-01T08:59:42.524Z</time></trkpt><trkpt lat="45.7749833" lon="8.7395981"><ele>395.0</ele><time>2026-05-01T08:59:44.525Z</time></trkpt><trkpt lat="45.7751074" lon="8.7395953"><ele>391.4</ele><time>2026-05-01T08:59:46.524Z</time></trkpt><trkpt lat="45.775206" lon="8.7395923"><ele>387.8</ele><time>2026-05-01T08:59:48.524Z</time></trkpt><trkpt lat="45.7752699" lon="8.7395638"><ele>384.20000000000005</ele><time>2026-05-01T08:59:49.524Z</time></trkpt><trkpt lat="45.7753637" lon="8.7395451"><ele>380.6</ele><time>2026-05-01T08:59:50.524Z</time></trkpt><trkpt lat="45.7754419" lon="8.7395261"><ele>377.0</ele><time>2026-05-01T08:59:51.525Z</time></trkpt><trkpt lat="45.7755526" lon="8.739441"><ele>377.0</ele><time>2026-05-01T08:59:53.524Z</time></trkpt><trkpt lat="45.7756175" lon="8.739445"><ele>377.0</ele><time>2026-05-01T08:59:54.524Z</time></trkpt><trkpt lat="45.7756801" lon="8.7394728"><ele>377.0</ele><time>2026-05-01T08:59:55.523Z</time></trkpt><trkpt lat="45.7757434" lon="8.7395158"><ele>377.0</ele><time>2026-05-01T08:59:56.524Z</time></trkpt><trkpt lat="45.775806" lon="8.7395763"><ele>377.0</ele><time>2026-05-01T08:59:57.523Z</time></trkpt><trkpt lat="45.7759044" lon="8.7396304"><ele>377.0</ele><time>2026-05-01T08:59:59.524Z</time></trkpt><trkpt lat="45.775973" lon="8.7395785"><ele>376.1666666666667</ele><time>2026-05-01T09:00:02.524Z</time></trkpt><trkpt lat="45.7760558" lon="8.739634"><ele>375.33333333333337</ele><time>2026-05-01T09:00:13.524Z</time></trkpt><trkpt lat="45.7761548" lon="8.7397211"><ele>374.5</ele><time>2026-05-01T09:00:15.524Z</time></trkpt><trkpt lat="45.7762272" lon="8.7397517"><ele>373.6666666666667</ele><time>2026-05-01T09:00:16.524Z</time></trkpt><trkpt lat="45.7762958" lon="8.7397795"><ele>372.8333333333333</ele><time>2026-05-01T09:00:17.525Z</time></trkpt><trkpt lat="45.7763681" lon="8.7397371"><ele>372.0</ele><time>2026-05-01T09:00:18.524Z</time></trkpt><trkpt lat="45.7764734" lon="8.7397373"><ele>372.0</ele><time>2026-05-01T09:00:20.524Z</time></trkpt><trkpt lat="45.7765537" lon="8.7397498"><ele>372.0</ele><time>2026-05-01T09:00:22.523Z</time></trkpt><trkpt lat="45.7766262" lon="8.7397804"><ele>372.0</ele><time>2026-05-01T09:00:24.523Z</time></trkpt><trkpt lat="45.7767181" lon="8.7398303"><ele>372.0</ele><time>2026-05-01T09:00:26.523Z</time></trkpt><trkpt lat="45.7768167" lon="8.7398897"><ele>372.0</ele><time>2026-05-01T09:00:28.524Z</time></trkpt><trkpt lat="45.7769279" lon="8.7399503"><ele>372.40000000000003</ele><time>2026-05-01T09:00:30.524Z</time></trkpt><trkpt lat="45.7770385" lon="8.7400085"><ele>372.8</ele><time>2026-05-01T09:00:32.523Z</time></trkpt><trkpt lat="45.7771025" lon="8.7400649"><ele>373.2</ele><time>2026-05-01T09:00:34.524Z</time></trkpt><trkpt lat="45.7771975" lon="8.7401265"><ele>373.6</ele><time>2026-05-01T09:00:43.523Z</time></trkpt><trkpt lat="45.7773192" lon="8.740199"><ele>374.0</ele><time>2026-05-01T09:00:45.524Z</time></trkpt><trkpt lat="45.7773911" lon="8.7402489"><ele>374.0</ele><time>2026-05-01T09:00:46.524Z</time></trkpt><trkpt lat="45.7774584" lon="8.740298"><ele>374.0</ele><time>2026-05-01T09:00:47.523Z</time></trkpt><trkpt lat="45.7775175" lon="8.740351"><ele>374.0</ele><time>2026-05-01T09:00:48.523Z</time></trkpt><trkpt lat="45.7775942" lon="8.740494"><ele>374.0</ele><time>2026-05-01T09:00:50.524Z</time></trkpt><trkpt lat="45.7776579" lon="8.7406436"><ele>374.0</ele><time>2026-05-01T09:00:52.523Z</time></trkpt><trkpt lat="45.7776766" lon="8.7407748"><ele>374.0</ele><time>2026-05-01T09:00:54.524Z</time></trkpt><trkpt lat="45.7776669" lon="8.7408732"><ele>374.0</ele><time>2026-05-01T09:00:57.523Z</time></trkpt><trkpt lat="45.7776766" lon="8.7407576"><ele>374.0</ele><time>2026-05-01T09:01:04.524Z</time></trkpt><trkpt lat="45.7776388" lon="8.7406074"><ele>374.0</ele><time>2026-05-01T09:01:05.525Z</time></trkpt><trkpt lat="45.7776046" lon="8.740521"><ele>374.0</ele><time>2026-05-01T09:01:06.523Z</time></trkpt><trkpt lat="45.7775607" lon="8.7404286"><ele>374.0</ele><time>2026-05-01T09:01:07.524Z</time></trkpt><trkpt lat="45.7775253" lon="8.7403374"><ele>374.0</ele><time>2026-05-01T09:01:08.524Z</time></trkpt><trkpt lat="45.7774473" lon="8.7402889"><ele>374.0</ele><time>2026-05-01T09:01:09.524Z</time></trkpt><trkpt lat="45.7773851" lon="8.7402214"><ele>374.0</ele><time>2026-05-01T09:01:10.524Z</time></trkpt><trkpt lat="45.7773005" lon="8.740175"><ele>374.0</ele><time>2026-05-01T09:01:11.524Z</time></trkpt><trkpt lat="45.7772269" lon="8.7401282"><ele>374.0</ele><time>2026-05-01T09:01:12.523Z</time></trkpt><trkpt lat="45.7771563" lon="8.7400911"><ele>374.0</ele><time>2026-05-01T09:01:13.525Z</time></trkpt><trkpt lat="45.7770954" lon="8.7400491"><ele>372.5</ele><time>2026-05-01T09:01:14.524Z</time></trkpt><trkpt lat="45.7770454" lon="8.7399927"><ele>371.0</ele><time>2026-05-01T09:01:16.523Z</time></trkpt><trkpt lat="45.7771002" lon="8.7399193"><ele>369.5</ele><time>2026-05-01T09:01:18.523Z</time></trkpt><trkpt lat="45.7772343" lon="8.7398294"><ele>368.0</ele><time>2026-05-01T09:01:20.524Z</time></trkpt><trkpt lat="45.7772959" lon="8.7397923"><ele>366.5</ele><time>2026-05-01T09:01:21.524Z</time></trkpt><trkpt lat="45.7773609" lon="8.7397508"><ele>365.0</ele><time>2026-05-01T09:01:22.524Z</time></trkpt><trkpt lat="45.7774206" lon="8.7397052"><ele>365.00000000000006</ele><time>2026-05-01T09:01:23.524Z</time></trkpt><trkpt lat="45.7774785" lon="8.73966"><ele>365.0</ele><time>2026-05-01T09:01:24.524Z</time></trkpt><trkpt lat="45.7775383" lon="8.7396053"><ele>365.0</ele><time>2026-05-01T09:01:26.524Z</time></trkpt><trkpt lat="45.7775494" lon="8.7395051"><ele>365.0</ele><time>2026-05-01T09:01:28.524Z</time></trkpt><trkpt lat="45.7775729" lon="8.739398"><ele>365.0</ele><time>2026-05-01T09:01:30.524Z</time></trkpt><trkpt lat="45.7776198" lon="8.7392962"><ele>365.00000000000006</ele><time>2026-05-01T09:01:32.524Z</time></trkpt><trkpt lat="45.7776546" lon="8.7391986"><ele>365.0</ele><time>2026-05-01T09:01:34.524Z</time></trkpt><trkpt lat="45.7776472" lon="8.7390473"><ele>363.33333333333337</ele><time>2026-05-01T09:01:36.524Z</time></trkpt><trkpt lat="45.7776415" lon="8.738935"><ele>361.6666666666667</ele><time>2026-05-01T09:01:38.524Z</time></trkpt><trkpt lat="45.7776295" lon="8.7388327"><ele>360.0</ele><time>2026-05-01T09:01:44.524Z</time></trkpt><trkpt lat="45.7776637" lon="8.7387209"><ele>358.3333333333333</ele><time>2026-05-01T09:01:47.524Z</time></trkpt><trkpt lat="45.777702" lon="8.7386035"><ele>356.66666666666663</ele><time>2026-05-01T09:01:50.523Z</time></trkpt><trkpt lat="45.7776909" lon="8.7384742"><ele>355.0</ele><time>2026-05-01T09:01:52.525Z</time></trkpt><trkpt lat="45.7777239" lon="8.7383733"><ele>348.8</ele><time>2026-05-01T09:01:54.524Z</time></trkpt><trkpt lat="45.7778124" lon="8.7383254"><ele>342.6</ele><time>2026-05-01T09:01:56.523Z</time></trkpt><trkpt lat="45.7779133" lon="8.7382348"><ele>336.4</ele><time>2026-05-01T09:01:58.524Z</time></trkpt><trkpt lat="45.7779896" lon="8.7381859"><ele>330.2</ele><time>2026-05-01T09:02:00.524Z</time></trkpt><trkpt lat="45.7780301" lon="8.7381036"><ele>324.0</ele><time>2026-05-01T09:02:02.524Z</time></trkpt><trkpt lat="45.7780631" lon="8.7379953"><ele>324.0</ele><time>2026-05-01T09:02:04.523Z</time></trkpt><trkpt lat="45.7780614" lon="8.737887"><ele>324.0</ele><time>2026-05-01T09:02:06.524Z</time></trkpt><trkpt lat="45.7780717" lon="8.7377802"><ele>324.0</ele><time>2026-05-01T09:02:08.524Z</time></trkpt><trkpt lat="45.7781455" lon="8.7377343"><ele>324.0</ele><time>2026-05-01T09:02:10.524Z</time></trkpt><trkpt lat="45.7782458" lon="8.7376918"><ele>324.0</ele><time>2026-05-01T09:02:12.523Z</time></trkpt><trkpt lat="45.7783189" lon="8.7375846"><ele>324.0</ele><time>2026-05-01T09:02:14.524Z</time></trkpt><trkpt lat="45.7784169" lon="8.737504"><ele>321.5</ele><time>2026-05-01T09:02:16.524Z</time></trkpt><trkpt lat="45.7785394" lon="8.7374688"><ele>319.0</ele><time>2026-05-01T09:02:18.524Z</time></trkpt><trkpt lat="45.778607" lon="8.7374626"><ele>316.5</ele><time>2026-05-01T09:02:19.524Z</time></trkpt><trkpt lat="45.7786699" lon="8.7374557"><ele>314.0</ele><time>2026-05-01T09:02:20.524Z</time></trkpt><trkpt lat="45.7787357" lon="8.7374461"><ele>311.5</ele><time>2026-05-01T09:02:21.524Z</time></trkpt><trkpt lat="45.7788072" lon="8.7374354"><ele>309.0</ele><time>2026-05-01T09:02:22.523Z</time></trkpt><trkpt lat="45.7788753" lon="8.7374314"><ele>309.00000000000006</ele><time>2026-05-01T09:02:23.525Z</time></trkpt><trkpt lat="45.7789404" lon="8.7374222"><ele>309.0</ele><time>2026-05-01T09:02:24.524Z</time></trkpt><trkpt lat="45.7790063" lon="8.7374172"><ele>309.0</ele><time>2026-05-01T09:02:25.523Z</time></trkpt><trkpt lat="45.7790725" lon="8.7374109"><ele>309.0</ele><time>2026-05-01T09:02:26.524Z</time></trkpt><trkpt lat="45.7791459" lon="8.7373906"><ele>309.0</ele><time>2026-05-01T09:02:28.525Z</time></trkpt><trkpt lat="45.779095" lon="8.7373201"><ele>309.00000000000006</ele><time>2026-05-01T09:02:30.524Z</time></trkpt><trkpt lat="45.7790399" lon="8.737257"><ele>309.0</ele><time>2026-05-01T09:02:31.523Z</time></trkpt><trkpt lat="45.7789824" lon="8.737171"><ele>309.00000000000006</ele><time>2026-05-01T09:02:32.524Z</time></trkpt><trkpt lat="45.778932" lon="8.7370908"><ele>309.0</ele><time>2026-05-01T09:02:33.524Z</time></trkpt><trkpt lat="45.7788809" lon="8.7370141"><ele>309.0</ele><time>2026-05-01T09:02:34.524Z</time></trkpt><trkpt lat="45.7788284" lon="8.7369422"><ele>309.0</ele><time>2026-05-01T09:02:35.523Z</time></trkpt><trkpt lat="45.7787759" lon="8.736871"><ele>309.0</ele><time>2026-05-01T09:02:36.524Z</time></trkpt><trkpt lat="45.7787267" lon="8.7368031"><ele>309.00000000000006</ele><time>2026-05-01T09:02:37.524Z</time></trkpt><trkpt lat="45.77868" lon="8.7367361"><ele>309.0</ele><time>2026-05-01T09:02:38.524Z</time></trkpt><trkpt lat="45.7786387" lon="8.7366648"><ele>309.3333333333333</ele><time>2026-05-01T09:02:39.523Z</time></trkpt><trkpt lat="45.7785979" lon="8.7365844"><ele>309.6666666666667</ele><time>2026-05-01T09:02:40.524Z</time></trkpt><trkpt lat="45.7785575" lon="8.7365033"><ele>310.0</ele><time>2026-05-01T09:02:41.524Z</time></trkpt><trkpt lat="45.7785136" lon="8.7364238"><ele>310.33333333333337</ele><time>2026-05-01T09:02:42.524Z</time></trkpt><trkpt lat="45.7784743" lon="8.7363428"><ele>310.6666666666667</ele><time>2026-05-01T09:02:43.524Z</time></trkpt><trkpt lat="45.7784388" lon="8.7362665"><ele>311.0</ele><time>2026-05-01T09:02:44.524Z</time></trkpt><trkpt lat="45.7783726" lon="8.7361228"><ele>309.85714285714283</ele><time>2026-05-01T09:02:46.524Z</time></trkpt><trkpt lat="45.7783406" lon="8.7360429"><ele>308.7142857142857</ele><time>2026-05-01T09:02:47.524Z</time></trkpt><trkpt lat="45.7783089" lon="8.7359631"><ele>307.57142857142856</ele><time>2026-05-01T09:02:48.524Z</time></trkpt><trkpt lat="45.7782761" lon="8.7358824"><ele>306.42857142857144</ele><time>2026-05-01T09:02:49.525Z</time></trkpt><trkpt lat="45.7782383" lon="8.7358016"><ele>305.2857142857143</ele><time>2026-05-01T09:02:50.524Z</time></trkpt><trkpt lat="45.7782035" lon="8.735715"><ele>304.14285714285717</ele><time>2026-05-01T09:02:51.524Z</time></trkpt><trkpt lat="45.7781703" lon="8.7356223"><ele>303.0</ele><time>2026-05-01T09:02:52.525Z</time></trkpt><trkpt lat="45.7781376" lon="8.735525"><ele>303.0</ele><time>2026-05-01T09:02:53.524Z</time></trkpt><trkpt lat="45.7780955" lon="8.7354273"><ele>303.0</ele><time>2026-05-01T09:02:54.523Z</time></trkpt><trkpt lat="45.7780614" lon="8.7353303"><ele>303.0</ele><time>2026-05-01T09:02:55.524Z</time></trkpt><trkpt lat="45.7780357" lon="8.7352314"><ele>303.0</ele><time>2026-05-01T09:02:56.523Z</time></trkpt><trkpt lat="45.7780178" lon="8.7351323"><ele>303.0</ele><time>2026-05-01T09:02:57.524Z</time></trkpt><trkpt lat="45.7780004" lon="8.7350361"><ele>303.0</ele><time>2026-05-01T09:02:58.525Z</time></trkpt><trkpt lat="45.7779764" lon="8.7349433"><ele>303.0</ele><time>2026-05-01T09:02:59.523Z</time></trkpt><trkpt lat="45.7779387" lon="8.7348539"><ele>302.5</ele><time>2026-05-01T09:03:00.524Z</time></trkpt><trkpt lat="45.7778884" lon="8.7347722"><ele>302.0</ele><time>2026-05-01T09:03:01.524Z</time></trkpt><trkpt lat="45.7778366" lon="8.7346927"><ele>301.5</ele><time>2026-05-01T09:03:02.525Z</time></trkpt><trkpt lat="45.7777834" lon="8.7346112"><ele>301.0</ele><time>2026-05-01T09:03:03.524Z</time></trkpt><trkpt lat="45.7777344" lon="8.7345237"><ele>300.5</ele><time>2026-05-01T09:03:04.524Z</time></trkpt><trkpt lat="45.7776842" lon="8.7344366"><ele>300.0</ele><time>2026-05-01T09:03:05.524Z</time></trkpt><trkpt lat="45.7776285" lon="8.7343508"><ele>300.0</ele><time>2026-05-01T09:03:06.524Z</time></trkpt><trkpt lat="45.7775752" lon="8.7342622"><ele>300.0</ele><time>2026-05-01T09:03:07.523Z</time></trkpt><trkpt lat="45.7775208" lon="8.7341727"><ele>300.0</ele><time>2026-05-01T09:03:08.524Z</time></trkpt><trkpt lat="45.7774736" lon="8.734071"><ele>300.0</ele><time>2026-05-01T09:03:09.524Z</time></trkpt><trkpt lat="45.7774294" lon="8.7339677"><ele>300.0</ele><time>2026-05-01T09:03:10.524Z</time></trkpt><trkpt lat="45.7773858" lon="8.7338632"><ele>300.0</ele><time>2026-05-01T09:03:11.524Z</time></trkpt><trkpt lat="45.7773441" lon="8.7337577"><ele>300.0</ele><time>2026-05-01T09:03:12.524Z</time></trkpt><trkpt lat="45.7773057" lon="8.7336491"><ele>300.0</ele><time>2026-05-01T09:03:13.524Z</time></trkpt><trkpt lat="45.7772639" lon="8.7335422"><ele>300.0</ele><time>2026-05-01T09:03:14.524Z</time></trkpt><trkpt lat="45.7772208" lon="8.7334353"><ele>300.0</ele><time>2026-05-01T09:03:15.525Z</time></trkpt><trkpt lat="45.7771826" lon="8.7333232"><ele>300.0</ele><time>2026-05-01T09:03:16.524Z</time></trkpt><trkpt lat="45.7771499" lon="8.7332059"><ele>300.0</ele><time>2026-05-01T09:03:17.523Z</time></trkpt><trkpt lat="45.7771312" lon="8.7330829"><ele>299.3333333333333</ele><time>2026-05-01T09:03:18.524Z</time></trkpt><trkpt lat="45.7771338" lon="8.7329555"><ele>298.6666666666667</ele><time>2026-05-01T09:03:19.525Z</time></trkpt><trkpt lat="45.7771541" lon="8.7328322"><ele>298.0</ele><time>2026-05-01T09:03:20.523Z</time></trkpt><trkpt lat="45.7771789" lon="8.7327116"><ele>297.33333333333337</ele><time>2026-05-01T09:03:21.524Z</time></trkpt><trkpt lat="45.7771902" lon="8.7325854"><ele>296.6666666666667</ele><time>2026-05-01T09:03:22.523Z</time></trkpt><trkpt lat="45.7771974" lon="8.7324644"><ele>296.0</ele><time>2026-05-01T09:03:23.523Z</time></trkpt><trkpt lat="45.7771935" lon="8.7323528"><ele>296.0</ele><time>2026-05-01T09:03:24.523Z</time></trkpt><trkpt lat="45.7771889" lon="8.7322551"><ele>296.0</ele><time>2026-05-01T09:03:25.525Z</time></trkpt><trkpt lat="45.7771776" lon="8.7321181"><ele>296.0</ele><time>2026-05-01T09:03:27.524Z</time></trkpt><trkpt lat="45.7771673" lon="8.7320082"><ele>296.0</ele><time>2026-05-01T09:03:30.523Z</time></trkpt><trkpt lat="45.7771444" lon="8.7318866"><ele>296.0</ele><time>2026-05-01T09:03:32.525Z</time></trkpt><trkpt lat="45.7771226" lon="8.7317999"><ele>296.0</ele><time>2026-05-01T09:03:33.524Z</time></trkpt><trkpt lat="45.7771009" lon="8.7317093"><ele>296.1666666666667</ele><time>2026-05-01T09:03:34.524Z</time></trkpt><trkpt lat="45.7770914" lon="8.7316152"><ele>296.33333333333337</ele><time>2026-05-01T09:03:35.524Z</time></trkpt><trkpt lat="45.7770798" lon="8.731438"><ele>296.5</ele><time>2026-05-01T09:03:37.525Z</time></trkpt><trkpt lat="45.7770578" lon="8.7313134"><ele>296.6666666666667</ele><time>2026-05-01T09:03:39.524Z</time></trkpt><trkpt lat="45.7770266" lon="8.7311861"><ele>296.8333333333333</ele><time>2026-05-01T09:03:41.524Z</time></trkpt><trkpt lat="45.7769983" lon="8.7310998"><ele>297.0</ele><time>2026-05-01T09:03:42.524Z</time></trkpt><trkpt lat="45.7769623" lon="8.7310033"><ele>296.6</ele><time>2026-05-01T09:03:43.524Z</time></trkpt><trkpt lat="45.7769257" lon="8.7309004"><ele>296.2</ele><time>2026-05-01T09:03:44.523Z</time></trkpt><trkpt lat="45.7768878" lon="8.7307815"><ele>295.8</ele><time>2026-05-01T09:03:45.524Z</time></trkpt><trkpt lat="45.7768425" lon="8.7306557"><ele>295.4</ele><time>2026-05-01T09:03:46.525Z</time></trkpt><trkpt lat="45.7767971" lon="8.7305251"><ele>295.0</ele><time>2026-05-01T09:03:47.524Z</time></trkpt><trkpt lat="45.7767548" lon="8.730404"><ele>295.0</ele><time>2026-05-01T09:03:48.524Z</time></trkpt><trkpt lat="45.7767135" lon="8.7302853"><ele>295.0</ele><time>2026-05-01T09:03:49.524Z</time></trkpt><trkpt lat="45.7766764" lon="8.7301691"><ele>295.0</ele><time>2026-05-01T09:03:50.524Z</time></trkpt><trkpt lat="45.7766422" lon="8.7300479"><ele>295.0</ele><time>2026-05-01T09:03:51.523Z</time></trkpt><trkpt lat="45.776594" lon="8.7299285"><ele>295.0</ele><time>2026-05-01T09:03:52.524Z</time></trkpt><trkpt lat="45.7765458" lon="8.7298022"><ele>293.6</ele><time>2026-05-01T09:03:53.523Z</time></trkpt><trkpt lat="45.7764979" lon="8.7296716"><ele>292.2</ele><time>2026-05-01T09:03:54.524Z</time></trkpt><trkpt lat="45.7764509" lon="8.7295413"><ele>290.8</ele><time>2026-05-01T09:03:55.523Z</time></trkpt><trkpt lat="45.7764121" lon="8.7294058"><ele>289.4</ele><time>2026-05-01T09:03:56.524Z</time></trkpt><trkpt lat="45.7763878" lon="8.7292628"><ele>288.0</ele><time>2026-05-01T09:03:57.523Z</time></trkpt><trkpt lat="45.7763846" lon="8.7291158"><ele>288.0</ele><time>2026-05-01T09:03:58.524Z</time></trkpt><trkpt lat="45.7763946" lon="8.728969"><ele>288.0</ele><time>2026-05-01T09:03:59.523Z</time></trkpt><trkpt lat="45.7764052" lon="8.7288197"><ele>288.0</ele><time>2026-05-01T09:04:00.524Z</time></trkpt><trkpt lat="45.7764158" lon="8.7286702"><ele>288.0</ele><time>2026-05-01T09:04:01.524Z</time></trkpt><trkpt lat="45.7764366" lon="8.7285248"><ele>288.0</ele><time>2026-05-01T09:04:02.524Z</time></trkpt><trkpt lat="45.7764778" lon="8.7283871"><ele>288.2</ele><time>2026-05-01T09:04:03.524Z</time></trkpt><trkpt lat="45.7765418" lon="8.7282662"><ele>288.4</ele><time>2026-05-01T09:04:04.525Z</time></trkpt><trkpt lat="45.7766255" lon="8.7281661"><ele>288.59999999999997</ele><time>2026-05-01T09:04:05.524Z</time></trkpt><trkpt lat="45.7767114" lon="8.7280651"><ele>288.8</ele><time>2026-05-01T09:04:06.523Z</time></trkpt><trkpt lat="45.7767937" lon="8.7279697"><ele>289.0</ele><time>2026-05-01T09:04:07.524Z</time></trkpt><trkpt lat="45.7768728" lon="8.7278756"><ele>287.59999999999997</ele><time>2026-05-01T09:04:08.524Z</time></trkpt><trkpt lat="45.7769501" lon="8.7277846"><ele>286.2</ele><time>2026-05-01T09:04:09.524Z</time></trkpt><trkpt lat="45.7770262" lon="8.7276978"><ele>284.79999999999995</ele><time>2026-05-01T09:04:10.523Z</time></trkpt><trkpt lat="45.7770972" lon="8.7276089"><ele>283.4</ele><time>2026-05-01T09:04:11.524Z</time></trkpt><trkpt lat="45.7771521" lon="8.7275036"><ele>282.0</ele><time>2026-05-01T09:04:12.524Z</time></trkpt><trkpt lat="45.7771852" lon="8.7273782"><ele>281.4</ele><time>2026-05-01T09:04:13.523Z</time></trkpt><trkpt lat="45.777197" lon="8.7272366"><ele>280.79999999999995</ele><time>2026-05-01T09:04:14.525Z</time></trkpt><trkpt lat="45.777196" lon="8.7270881"><ele>280.2</ele><time>2026-05-01T09:04:15.524Z</time></trkpt><trkpt lat="45.7771922" lon="8.7269347"><ele>279.59999999999997</ele><time>2026-05-01T09:04:16.523Z</time></trkpt><trkpt lat="45.7771874" lon="8.7267818"><ele>279.0</ele><time>2026-05-01T09:04:17.523Z</time></trkpt><trkpt lat="45.7771771" lon="8.7266331"><ele>278.4</ele><time>2026-05-01T09:04:18.525Z</time></trkpt><trkpt lat="45.777137" lon="8.7265008"><ele>277.79999999999995</ele><time>2026-05-01T09:04:19.524Z</time></trkpt><trkpt lat="45.7770744" lon="8.7263813"><ele>277.20000000000005</ele><time>2026-05-01T09:04:20.523Z</time></trkpt><trkpt lat="45.7769901" lon="8.7262813"><ele>276.6</ele><time>2026-05-01T09:04:21.524Z</time></trkpt><trkpt lat="45.7769064" lon="8.7261698"><ele>276.0</ele><time>2026-05-01T09:04:22.524Z</time></trkpt><trkpt lat="45.7768189" lon="8.726058"><ele>275.25</ele><time>2026-05-01T09:04:23.524Z</time></trkpt><trkpt lat="45.7767304" lon="8.7259455"><ele>274.5</ele><time>2026-05-01T09:04:24.524Z</time></trkpt><trkpt lat="45.7766412" lon="8.7258389"><ele>273.75</ele><time>2026-05-01T09:04:25.524Z</time></trkpt><trkpt lat="45.7765552" lon="8.7257317"><ele>273.0</ele><time>2026-05-01T09:04:26.524Z</time></trkpt><trkpt lat="45.7764696" lon="8.725622"><ele>273.0</ele><time>2026-05-01T09:04:27.524Z</time></trkpt><trkpt lat="45.7763825" lon="8.7255103"><ele>273.0</ele><time>2026-05-01T09:04:28.524Z</time></trkpt><trkpt lat="45.7763068" lon="8.7253801"><ele>273.0</ele><time>2026-05-01T09:04:29.523Z</time></trkpt><trkpt lat="45.7762514" lon="8.7252329"><ele>273.0</ele><time>2026-05-01T09:04:30.524Z</time></trkpt><trkpt lat="45.7762059" lon="8.7250809"><ele>270.5</ele><time>2026-05-01T09:04:31.524Z</time></trkpt><trkpt lat="45.7761494" lon="8.7249387"><ele>268.0</ele><time>2026-05-01T09:04:32.524Z</time></trkpt><trkpt lat="45.7760803" lon="8.7248096"><ele>265.5</ele><time>2026-05-01T09:04:33.525Z</time></trkpt><trkpt lat="45.7760081" lon="8.7246849"><ele>263.0</ele><time>2026-05-01T09:04:34.523Z</time></trkpt><trkpt lat="45.7759284" lon="8.7245687"><ele>263.0</ele><time>2026-05-01T09:04:35.523Z</time></trkpt><trkpt lat="45.7758502" lon="8.7244534"><ele>263.0</ele><time>2026-05-01T09:04:36.523Z</time></trkpt><trkpt lat="45.7757704" lon="8.724342"><ele>263.0</ele><time>2026-05-01T09:04:37.524Z</time></trkpt><trkpt lat="45.7756939" lon="8.7242291"><ele>263.0</ele><time>2026-05-01T09:04:38.524Z</time></trkpt><trkpt lat="45.7756173" lon="8.7241155"><ele>263.0</ele><time>2026-05-01T09:04:39.523Z</time></trkpt><trkpt lat="45.7755407" lon="8.7240024"><ele>263.2</ele><time>2026-05-01T09:04:40.523Z</time></trkpt><trkpt lat="45.7754609" lon="8.723895"><ele>263.4</ele><time>2026-05-01T09:04:41.523Z</time></trkpt><trkpt lat="45.7753755" lon="8.7237975"><ele>263.59999999999997</ele><time>2026-05-01T09:04:42.524Z</time></trkpt><trkpt lat="45.7752804" lon="8.7237203"><ele>263.8</ele><time>2026-05-01T09:04:43.523Z</time></trkpt><trkpt lat="45.775176" lon="8.7236654"><ele>264.0</ele><time>2026-05-01T09:04:44.524Z</time></trkpt><trkpt lat="45.7750695" lon="8.7236104"><ele>262.25</ele><time>2026-05-01T09:04:45.523Z</time></trkpt><trkpt lat="45.7749629" lon="8.7235506"><ele>260.5</ele><time>2026-05-01T09:04:46.523Z</time></trkpt><trkpt lat="45.774856" lon="8.7234872"><ele>258.75</ele><time>2026-05-01T09:04:47.523Z</time></trkpt><trkpt lat="45.7747542" lon="8.7234154"><ele>257.0</ele><time>2026-05-01T09:04:48.523Z</time></trkpt><trkpt lat="45.7746578" lon="8.7233372"><ele>257.0</ele><time>2026-05-01T09:04:49.524Z</time></trkpt><trkpt lat="45.7745686" lon="8.7232491"><ele>257.0</ele><time>2026-05-01T09:04:50.524Z</time></trkpt><trkpt lat="45.7744873" lon="8.7231495"><ele>257.0</ele><time>2026-05-01T09:04:51.524Z</time></trkpt><trkpt lat="45.7744134" lon="8.7230399"><ele>257.0</ele><time>2026-05-01T09:04:52.525Z</time></trkpt><trkpt lat="45.7743324" lon="8.7229363"><ele>257.0</ele><time>2026-05-01T09:04:53.523Z</time></trkpt><trkpt lat="45.7742411" lon="8.7228473"><ele>257.0</ele><time>2026-05-01T09:04:54.523Z</time></trkpt><trkpt lat="45.7741489" lon="8.7227617"><ele>257.0</ele><time>2026-05-01T09:04:55.524Z</time></trkpt><trkpt lat="45.7740554" lon="8.7226808"><ele>257.0</ele><time>2026-05-01T09:04:56.524Z</time></trkpt><trkpt lat="45.773959" lon="8.7226102"><ele>257.0</ele><time>2026-05-01T09:04:57.523Z</time></trkpt><trkpt lat="45.7738586" lon="8.7225547"><ele>257.0</ele><time>2026-05-01T09:04:58.524Z</time></trkpt><trkpt lat="45.7737547" lon="8.7225169"><ele>256.6</ele><time>2026-05-01T09:04:59.524Z</time></trkpt><trkpt lat="45.773649" lon="8.7224849"><ele>256.2</ele><time>2026-05-01T09:05:00.523Z</time></trkpt><trkpt lat="45.7735434" lon="8.7224484"><ele>255.8</ele><time>2026-05-01T09:05:01.523Z</time></trkpt><trkpt lat="45.7734379" lon="8.7224056"><ele>255.4</ele><time>2026-05-01T09:05:02.523Z</time></trkpt><trkpt lat="45.7733316" lon="8.7223576"><ele>255.0</ele><time>2026-05-01T09:05:03.524Z</time></trkpt><trkpt lat="45.7732244" lon="8.7223092"><ele>255.0</ele><time>2026-05-01T09:05:04.524Z</time></trkpt><trkpt lat="45.7731164" lon="8.7222617"><ele>255.0</ele><time>2026-05-01T09:05:05.523Z</time></trkpt><trkpt lat="45.7730069" lon="8.7222178"><ele>255.0</ele><time>2026-05-01T09:05:06.524Z</time></trkpt><trkpt lat="45.7728963" lon="8.7221784"><ele>255.0</ele><time>2026-05-01T09:05:07.524Z</time></trkpt><trkpt lat="45.7727858" lon="8.7221389"><ele>255.6</ele><time>2026-05-01T09:05:08.524Z</time></trkpt><trkpt lat="45.7726766" lon="8.7220974"><ele>256.2</ele><time>2026-05-01T09:05:09.523Z</time></trkpt><trkpt lat="45.7725677" lon="8.7220603"><ele>256.8</ele><time>2026-05-01T09:05:10.524Z</time></trkpt><trkpt lat="45.7724598" lon="8.7220245"><ele>257.4</ele><time>2026-05-01T09:05:11.523Z</time></trkpt><trkpt lat="45.7723518" lon="8.7219886"><ele>258.0</ele><time>2026-05-01T09:05:12.523Z</time></trkpt><trkpt lat="45.7722455" lon="8.7219463"><ele>258.6</ele><time>2026-05-01T09:05:13.523Z</time></trkpt><trkpt lat="45.7721416" lon="8.7218955"><ele>259.20000000000005</ele><time>2026-05-01T09:05:14.524Z</time></trkpt><trkpt lat="45.7720411" lon="8.721834"><ele>259.8</ele><time>2026-05-01T09:05:15.524Z</time></trkpt><trkpt lat="45.771943" lon="8.7217648"><ele>260.40000000000003</ele><time>2026-05-01T09:05:16.524Z</time></trkpt><trkpt lat="45.7718468" lon="8.7216892"><ele>261.0</ele><time>2026-05-01T09:05:17.523Z</time></trkpt><trkpt lat="45.7717503" lon="8.7216105"><ele>261.0</ele><time>2026-05-01T09:05:18.523Z</time></trkpt><trkpt lat="45.7716549" lon="8.7215302"><ele>261.0</ele><time>2026-05-01T09:05:19.524Z</time></trkpt><trkpt lat="45.7715598" lon="8.7214534"><ele>261.0</ele><time>2026-05-01T09:05:20.524Z</time></trkpt><trkpt lat="45.7714583" lon="8.7213821"><ele>261.0</ele><time>2026-05-01T09:05:21.524Z</time></trkpt><trkpt lat="45.7713612" lon="8.7213122"><ele>261.0</ele><time>2026-05-01T09:05:22.524Z</time></trkpt><trkpt lat="45.7712649" lon="8.7212444"><ele>261.0</ele><time>2026-05-01T09:05:23.524Z</time></trkpt><trkpt lat="45.7711685" lon="8.7211776"><ele>261.0</ele><time>2026-05-01T09:05:24.524Z</time></trkpt><trkpt lat="45.7710749" lon="8.7211122"><ele>261.0</ele><time>2026-05-01T09:05:25.524Z</time></trkpt><trkpt lat="45.7709814" lon="8.7210507"><ele>261.0</ele><time>2026-05-01T09:05:26.523Z</time></trkpt><trkpt lat="45.7708929" lon="8.7209879"><ele>261.0</ele><time>2026-05-01T09:05:27.523Z</time></trkpt><trkpt lat="45.7708044" lon="8.7209241"><ele>261.40000000000003</ele><time>2026-05-01T09:05:28.524Z</time></trkpt><trkpt lat="45.7707177" lon="8.7208639"><ele>261.8</ele><time>2026-05-01T09:05:29.524Z</time></trkpt><trkpt lat="45.7706311" lon="8.7208106"><ele>262.20000000000005</ele><time>2026-05-01T09:05:30.524Z</time></trkpt><trkpt lat="45.7705453" lon="8.7207602"><ele>262.6</ele><time>2026-05-01T09:05:31.524Z</time></trkpt><trkpt lat="45.7704615" lon="8.7207082"><ele>263.0</ele><time>2026-05-01T09:05:32.523Z</time></trkpt><trkpt lat="45.7703712" lon="8.7206643"><ele>263.0</ele><time>2026-05-01T09:05:33.524Z</time></trkpt><trkpt lat="45.7702871" lon="8.7206149"><ele>263.0</ele><time>2026-05-01T09:05:34.524Z</time></trkpt><trkpt lat="45.7702045" lon="8.7205649"><ele>263.0</ele><time>2026-05-01T09:05:35.524Z</time></trkpt><trkpt lat="45.7701212" lon="8.7205117"><ele>263.0</ele><time>2026-05-01T09:05:36.523Z</time></trkpt><trkpt lat="45.7700222" lon="8.7204645"><ele>263.0</ele><time>2026-05-01T09:05:37.524Z</time></trkpt><trkpt lat="45.7699271" lon="8.7204137"><ele>262.8</ele><time>2026-05-01T09:05:38.524Z</time></trkpt><trkpt lat="45.7698265" lon="8.720366"><ele>262.6</ele><time>2026-05-01T09:05:39.524Z</time></trkpt><trkpt lat="45.7697266" lon="8.7203162"><ele>262.4</ele><time>2026-05-01T09:05:40.525Z</time></trkpt><trkpt lat="45.7696264" lon="8.7202638"><ele>262.2</ele><time>2026-05-01T09:05:41.524Z</time></trkpt><trkpt lat="45.7695292" lon="8.7202158"><ele>262.0</ele><time>2026-05-01T09:05:42.523Z</time></trkpt><trkpt lat="45.7694334" lon="8.7201664"><ele>264.16666666666663</ele><time>2026-05-01T09:05:43.524Z</time></trkpt><trkpt lat="45.7693387" lon="8.7201207"><ele>266.3333333333333</ele><time>2026-05-01T09:05:44.524Z</time></trkpt><trkpt lat="45.7692447" lon="8.7200842"><ele>268.5</ele><time>2026-05-01T09:05:45.524Z</time></trkpt><trkpt lat="45.7691585" lon="8.7200389"><ele>270.6666666666667</ele><time>2026-05-01T09:05:46.523Z</time></trkpt><trkpt lat="45.7690886" lon="8.7200034"><ele>272.83333333333337</ele><time>2026-05-01T09:05:47.524Z</time></trkpt><trkpt lat="45.7690255" lon="8.7199773"><ele>275.0</ele><time>2026-05-01T09:05:49.524Z</time></trkpt><trkpt lat="45.7690874" lon="8.7200107"><ele>275.0</ele><time>2026-05-01T09:05:54.524Z</time></trkpt><trkpt lat="45.7692045" lon="8.7200748"><ele>275.0</ele><time>2026-05-01T09:05:56.524Z</time></trkpt><trkpt lat="45.7692835" lon="8.7202016"><ele>275.0</ele><time>2026-05-01T09:05:58.524Z</time></trkpt><trkpt lat="45.769382" lon="8.7203151"><ele>275.0</ele><time>2026-05-01T09:06:00.524Z</time></trkpt><trkpt lat="45.7694834" lon="8.7204164"><ele>277.0</ele><time>2026-05-01T09:06:02.524Z</time></trkpt><trkpt lat="45.7695673" lon="8.7205208"><ele>279.0</ele><time>2026-05-01T09:06:04.524Z</time></trkpt><trkpt lat="45.7696609" lon="8.7206305"><ele>281.0</ele><time>2026-05-01T09:06:06.524Z</time></trkpt><trkpt lat="45.769727" lon="8.7207454"><ele>283.0</ele><time>2026-05-01T09:06:08.524Z</time></trkpt><trkpt lat="45.7697597" lon="8.7208362"><ele>285.0</ele><time>2026-05-01T09:06:10.523Z</time></trkpt><trkpt lat="45.7698316" lon="8.7209482"><ele>285.0</ele><time>2026-05-01T09:06:12.524Z</time></trkpt><trkpt lat="45.7699035" lon="8.7210121"><ele>285.0</ele><time>2026-05-01T09:06:14.523Z</time></trkpt><trkpt lat="45.7699687" lon="8.7210461"><ele>285.0</ele><time>2026-05-01T09:06:22.523Z</time></trkpt><trkpt lat="45.7700191" lon="8.7211118"><ele>285.0</ele><time>2026-05-01T09:06:25.525Z</time></trkpt><trkpt lat="45.7700632" lon="8.7212002"><ele>285.0</ele><time>2026-05-01T09:06:27.524Z</time></trkpt><trkpt lat="45.770149" lon="8.7212956"><ele>285.0</ele><time>2026-05-01T09:06:29.523Z</time></trkpt><trkpt lat="45.7702132" lon="8.7214197"><ele>285.8333333333333</ele><time>2026-05-01T09:06:31.524Z</time></trkpt><trkpt lat="45.7702175" lon="8.7215305"><ele>286.6666666666667</ele><time>2026-05-01T09:06:33.523Z</time></trkpt><trkpt lat="45.7702142" lon="8.721638"><ele>287.5</ele><time>2026-05-01T09:06:35.525Z</time></trkpt><trkpt lat="45.7702265" lon="8.721755"><ele>288.33333333333337</ele><time>2026-05-01T09:06:38.524Z</time></trkpt><trkpt lat="45.7702582" lon="8.7218401"><ele>289.1666666666667</ele><time>2026-05-01T09:06:41.523Z</time></trkpt><trkpt lat="45.7702957" lon="8.7219455"><ele>290.0</ele><time>2026-05-01T09:06:45.523Z</time></trkpt><trkpt lat="45.7703476" lon="8.7220287"><ele>292.8571428571429</ele><time>2026-05-01T09:06:49.523Z</time></trkpt><trkpt lat="45.7703801" lon="8.7221074"><ele>295.7142857142857</ele><time>2026-05-01T09:06:52.524Z</time></trkpt><trkpt lat="45.7704201" lon="8.7222031"><ele>298.57142857142856</ele><time>2026-05-01T09:06:57.524Z</time></trkpt><trkpt lat="45.7704731" lon="8.7222796"><ele>301.42857142857144</ele><time>2026-05-01T09:07:00.524Z</time></trkpt><trkpt lat="45.7705202" lon="8.7223756"><ele>304.2857142857143</ele><time>2026-05-01T09:07:04.524Z</time></trkpt><trkpt lat="45.7705668" lon="8.7224683"><ele>307.14285714285717</ele><time>2026-05-01T09:07:06.524Z</time></trkpt><trkpt lat="45.7706167" lon="8.7225264"><ele>310.0</ele><time>2026-05-01T09:07:07.523Z</time></trkpt><trkpt lat="45.7706462" lon="8.7226365"><ele>310.0</ele><time>2026-05-01T09:07:09.523Z</time></trkpt><trkpt lat="45.7706806" lon="8.722717"><ele>310.0</ele><time>2026-05-01T09:07:13.524Z</time></trkpt><trkpt lat="45.7707131" lon="8.7228031"><ele>310.0</ele><time>2026-05-01T09:07:17.524Z</time></trkpt><trkpt lat="45.7707435" lon="8.7229106"><ele>310.0</ele><time>2026-05-01T09:07:21.524Z</time></trkpt><trkpt lat="45.7707723" lon="8.7230234"><ele>310.0</ele><time>2026-05-01T09:07:25.524Z</time></trkpt><trkpt lat="45.7707931" lon="8.7231155"><ele>310.0</ele><time>2026-05-01T09:07:27.523Z</time></trkpt><trkpt lat="45.7708002" lon="8.7232088"><ele>310.0</ele><time>2026-05-01T09:07:29.523Z</time></trkpt><trkpt lat="45.7707737" lon="8.7233347"><ele>312.7142857142857</ele><time>2026-05-01T09:07:32.524Z</time></trkpt><trkpt lat="45.7707629" lon="8.7234258"><ele>315.42857142857144</ele><time>2026-05-01T09:07:34.523Z</time></trkpt><trkpt lat="45.7707305" lon="8.7235203"><ele>318.1428571428571</ele><time>2026-05-01T09:07:36.523Z</time></trkpt><trkpt lat="45.7706796" lon="8.7235815"><ele>320.8571428571429</ele><time>2026-05-01T09:07:38.524Z</time></trkpt><trkpt lat="45.7706265" lon="8.7236829"><ele>323.57142857142856</ele><time>2026-05-01T09:07:41.495Z</time></trkpt><trkpt lat="45.7706584" lon="8.7237825"><ele>326.2857142857143</ele><time>2026-05-01T09:07:44.524Z</time></trkpt><trkpt lat="45.7707085" lon="8.7238598"><ele>329.0</ele><time>2026-05-01T09:07:46.523Z</time></trkpt><trkpt lat="45.7707558" lon="8.7239731"><ele>332.2</ele><time>2026-05-01T09:07:48.524Z</time></trkpt><trkpt lat="45.7708024" lon="8.7241006"><ele>335.4</ele><time>2026-05-01T09:07:50.524Z</time></trkpt><trkpt lat="45.7708878" lon="8.7242021"><ele>338.6</ele><time>2026-05-01T09:07:52.524Z</time></trkpt><trkpt lat="45.7709654" lon="8.7242997"><ele>341.8</ele><time>2026-05-01T09:07:54.524Z</time></trkpt><trkpt lat="45.7710225" lon="8.7244037"><ele>345.0</ele><time>2026-05-01T09:07:56.524Z</time></trkpt><trkpt lat="45.771088" lon="8.7244948"><ele>345.0</ele><time>2026-05-01T09:07:58.524Z</time></trkpt><trkpt lat="45.7711336" lon="8.7245623"><ele>345.0</ele><time>2026-05-01T09:08:00.523Z</time></trkpt><trkpt lat="45.7711804" lon="8.724631"><ele>345.0</ele><time>2026-05-01T09:08:02.524Z</time></trkpt><trkpt lat="45.7712356" lon="8.724711"><ele>345.0</ele><time>2026-05-01T09:08:22.524Z</time></trkpt><trkpt lat="45.771306" lon="8.7248103"><ele>345.0</ele><time>2026-05-01T09:08:24.523Z</time></trkpt><trkpt lat="45.7713834" lon="8.7249292"><ele>345.0</ele><time>2026-05-01T09:08:26.523Z</time></trkpt><trkpt lat="45.7714517" lon="8.7250535"><ele>345.0</ele><time>2026-05-01T09:08:28.523Z</time></trkpt><trkpt lat="45.7714881" lon="8.7251355"><ele>345.0</ele><time>2026-05-01T09:08:29.525Z</time></trkpt><trkpt lat="45.7715208" lon="8.7252146"><ele>345.0</ele><time>2026-05-01T09:08:30.525Z</time></trkpt><trkpt lat="45.771551" lon="8.725302"><ele>345.0</ele><time>2026-05-01T09:08:31.524Z</time></trkpt><trkpt lat="45.7715411" lon="8.7253946"><ele>345.0</ele><time>2026-05-01T09:08:33.524Z</time></trkpt><trkpt lat="45.7714762" lon="8.7253453"><ele>345.0</ele><time>2026-05-01T09:08:36.524Z</time></trkpt><trkpt lat="45.7713775" lon="8.7253057"><ele>345.0</ele><time>2026-05-01T09:08:38.523Z</time></trkpt><trkpt lat="45.7713008" lon="8.7252775"><ele>348.6666666666667</ele><time>2026-05-01T09:08:40.524Z</time></trkpt><trkpt lat="45.7712117" lon="8.7252907"><ele>352.3333333333333</ele><time>2026-05-01T09:08:42.524Z</time></trkpt><trkpt lat="45.7711174" lon="8.7253022"><ele>356.0</ele><time>2026-05-01T09:08:44.524Z</time></trkpt><trkpt lat="45.7710309" lon="8.7253237"><ele>359.66666666666663</ele><time>2026-05-01T09:08:46.523Z</time></trkpt><trkpt lat="45.7709525" lon="8.7253095"><ele>363.3333333333333</ele><time>2026-05-01T09:08:48.524Z</time></trkpt><trkpt lat="45.7708935" lon="8.7253588"><ele>367.0</ele><time>2026-05-01T09:09:02.525Z</time></trkpt><trkpt lat="45.7708322" lon="8.7253285"><ele>370.0</ele><time>2026-05-01T09:09:03.523Z</time></trkpt><trkpt lat="45.7707428" lon="8.7253373"><ele>373.0</ele><time>2026-05-01T09:09:05.524Z</time></trkpt><trkpt lat="45.7707142" lon="8.7254243"><ele>376.0</ele><time>2026-05-01T09:09:07.524Z</time></trkpt><trkpt lat="45.7707282" lon="8.7255873"><ele>379.0</ele><time>2026-05-01T09:09:09.524Z</time></trkpt><trkpt lat="45.7706891" lon="8.7257504"><ele>382.0</ele><time>2026-05-01T09:09:11.524Z</time></trkpt><trkpt lat="45.7706175" lon="8.725848"><ele>382.0</ele><time>2026-05-01T09:09:13.524Z</time></trkpt><trkpt lat="45.7705722" lon="8.7259267"><ele>382.0</ele><time>2026-05-01T09:09:14.524Z</time></trkpt><trkpt lat="45.7704863" lon="8.7260032"><ele>382.0</ele><time>2026-05-01T09:09:16.525Z</time></trkpt><trkpt lat="45.770399" lon="8.7261353"><ele>382.0</ele><time>2026-05-01T09:09:18.523Z</time></trkpt><trkpt lat="45.7703359" lon="8.7262597"><ele>382.0</ele><time>2026-05-01T09:09:20.524Z</time></trkpt><trkpt lat="45.7702949" lon="8.7263603"><ele>383.20000000000005</ele><time>2026-05-01T09:09:25.524Z</time></trkpt><trkpt lat="45.7702962" lon="8.7265257"><ele>384.4</ele><time>2026-05-01T09:09:27.524Z</time></trkpt><trkpt lat="45.7703079" lon="8.7266246"><ele>385.6</ele><time>2026-05-01T09:09:28.524Z</time></trkpt><trkpt lat="45.770296" lon="8.7267932"><ele>386.79999999999995</ele><time>2026-05-01T09:09:30.524Z</time></trkpt><trkpt lat="45.7703297" lon="8.7269443"><ele>388.0</ele><time>2026-05-01T09:09:32.524Z</time></trkpt><trkpt lat="45.7703907" lon="8.727082"><ele>388.00000000000006</ele><time>2026-05-01T09:09:34.523Z</time></trkpt><trkpt lat="45.7704935" lon="8.7272103"><ele>388.0</ele><time>2026-05-01T09:09:36.524Z</time></trkpt><trkpt lat="45.7705566" lon="8.7272766"><ele>388.0</ele><time>2026-05-01T09:09:37.524Z</time></trkpt><trkpt lat="45.770611" lon="8.7273473"><ele>388.0</ele><time>2026-05-01T09:09:38.523Z</time></trkpt><trkpt lat="45.7706489" lon="8.7274334"><ele>388.00000000000006</ele><time>2026-05-01T09:09:39.524Z</time></trkpt><trkpt lat="45.7706807" lon="8.7275226"><ele>388.0</ele><time>2026-05-01T09:09:40.523Z</time></trkpt><trkpt lat="45.7707037" lon="8.7276082"><ele>388.0</ele><time>2026-05-01T09:09:41.523Z</time></trkpt><trkpt lat="45.7707162" lon="8.7276967"><ele>388.0</ele><time>2026-05-01T09:09:42.524Z</time></trkpt><trkpt lat="45.7707055" lon="8.7278612"><ele>388.0</ele><time>2026-05-01T09:09:44.525Z</time></trkpt><trkpt lat="45.770688" lon="8.7279721"><ele>388.0</ele><time>2026-05-01T09:09:46.524Z</time></trkpt><trkpt lat="45.7706706" lon="8.7281074"><ele>388.0</ele><time>2026-05-01T09:09:48.524Z</time></trkpt><trkpt lat="45.7706277" lon="8.728237"><ele>388.00000000000006</ele><time>2026-05-01T09:09:50.524Z</time></trkpt><trkpt lat="45.7705962" lon="8.7283211"><ele>388.0</ele><time>2026-05-01T09:09:52.523Z</time></trkpt><trkpt lat="45.7706318" lon="8.7284163"><ele>388.0</ele><time>2026-05-01T09:10:16.524Z</time></trkpt><trkpt lat="45.7706702" lon="8.7284917"><ele>388.0</ele><time>2026-05-01T09:10:24.524Z</time></trkpt><trkpt lat="45.7707579" lon="8.7286245"><ele>388.00000000000006</ele><time>2026-05-01T09:10:26.523Z</time></trkpt><trkpt lat="45.7708048" lon="8.7287018"><ele>388.0</ele><time>2026-05-01T09:10:27.524Z</time></trkpt><trkpt lat="45.7708532" lon="8.7287683"><ele>388.0</ele><time>2026-05-01T09:10:28.525Z</time></trkpt><trkpt lat="45.770917" lon="8.7288419"><ele>388.0</ele><time>2026-05-01T09:10:29.524Z</time></trkpt><trkpt lat="45.7709641" lon="8.7289271"><ele>388.0</ele><time>2026-05-01T09:10:30.524Z</time></trkpt><trkpt lat="45.771025" lon="8.7290111"><ele>388.0</ele><time>2026-05-01T09:10:31.524Z</time></trkpt><trkpt lat="45.771084" lon="8.7291312"><ele>388.0</ele><time>2026-05-01T09:10:33.523Z</time></trkpt><trkpt lat="45.7712192" lon="8.7292296"><ele>388.0</ele><time>2026-05-01T09:10:38.523Z</time></trkpt><trkpt lat="45.7713126" lon="8.7293009"><ele>388.0</ele><time>2026-05-01T09:10:40.524Z</time></trkpt><trkpt lat="45.7714254" lon="8.7293647"><ele>388.0</ele><time>2026-05-01T09:10:42.524Z</time></trkpt><trkpt lat="45.7715403" lon="8.7293823"><ele>388.0</ele><time>2026-05-01T09:10:44.524Z</time></trkpt><trkpt lat="45.771625" lon="8.7293929"><ele>388.0</ele><time>2026-05-01T09:10:51.524Z</time></trkpt><trkpt lat="45.7716996" lon="8.7294001"><ele>388.0</ele><time>2026-05-01T09:10:53.524Z</time></trkpt><trkpt lat="45.7718081" lon="8.729399"><ele>388.0</ele><time>2026-05-01T09:10:54.524Z</time></trkpt><trkpt lat="45.7719028" lon="8.7293893"><ele>388.0</ele><time>2026-05-01T09:10:55.525Z</time></trkpt><trkpt lat="45.7719951" lon="8.7294154"><ele>388.0</ele><time>2026-05-01T09:10:56.524Z</time></trkpt><trkpt lat="45.7720876" lon="8.7294554"><ele>388.0</ele><time>2026-05-01T09:10:57.524Z</time></trkpt><trkpt lat="45.772169" lon="8.7295081"><ele>388.00000000000006</ele><time>2026-05-01T09:10:58.524Z</time></trkpt><trkpt lat="45.7722596" lon="8.7295422"><ele>388.0</ele><time>2026-05-01T09:10:59.523Z</time></trkpt><trkpt lat="45.7723436" lon="8.7295795"><ele>388.0</ele><time>2026-05-01T09:11:00.524Z</time></trkpt><trkpt lat="45.772419" lon="8.7296233"><ele>388.0</ele><time>2026-05-01T09:11:01.524Z</time></trkpt><trkpt lat="45.7724772" lon="8.729684"><ele>388.00000000000006</ele><time>2026-05-01T09:11:02.523Z</time></trkpt><trkpt lat="45.7725392" lon="8.7297443"><ele>388.0</ele><time>2026-05-01T09:11:03.524Z</time></trkpt><trkpt lat="45.772596" lon="8.7298563"><ele>386.0</ele><time>2026-05-01T09:11:04.524Z</time></trkpt><trkpt lat="45.772699" lon="8.7299703"><ele>384.0</ele><time>2026-05-01T09:11:05.523Z</time></trkpt><trkpt lat="45.7727953" lon="8.7300854"><ele>382.0</ele><time>2026-05-01T09:11:06.524Z</time></trkpt><trkpt lat="45.7729259" lon="8.7302369"><ele>380.0</ele><time>2026-05-01T09:11:07.523Z</time></trkpt><trkpt lat="45.7730306" lon="8.7303683"><ele>380.0</ele><time>2026-05-01T09:11:08.524Z</time></trkpt><trkpt lat="45.7731179" lon="8.7304861"><ele>380.0</ele><time>2026-05-01T09:11:09.524Z</time></trkpt><trkpt lat="45.7731895" lon="8.7305954"><ele>380.0</ele><time>2026-05-01T09:11:10.523Z</time></trkpt><trkpt lat="45.7732585" lon="8.7306857"><ele>380.0</ele><time>2026-05-01T09:11:11.524Z</time></trkpt><trkpt lat="45.7733135" lon="8.7307974"><ele>380.0</ele><time>2026-05-01T09:11:12.524Z</time></trkpt><trkpt lat="45.7733604" lon="8.7309186"><ele>380.0</ele><time>2026-05-01T09:11:13.524Z</time></trkpt><trkpt lat="45.7734049" lon="8.7310229"><ele>380.0</ele><time>2026-05-01T09:11:14.524Z</time></trkpt><trkpt lat="45.7734561" lon="8.7311331"><ele>380.0</ele><time>2026-05-01T09:11:15.524Z</time></trkpt><trkpt lat="45.7735063" lon="8.7312489"><ele>380.0</ele><time>2026-05-01T09:11:16.524Z</time></trkpt><trkpt lat="45.7735379" lon="8.7313687"><ele>380.0</ele><time>2026-05-01T09:11:17.524Z</time></trkpt><trkpt lat="45.7735488" lon="8.7314956"><ele>379.4</ele><time>2026-05-01T09:11:18.524Z</time></trkpt><trkpt lat="45.773525" lon="8.7316193"><ele>378.8</ele><time>2026-05-01T09:11:19.524Z</time></trkpt><trkpt lat="45.7735019" lon="8.731753"><ele>378.20000000000005</ele><time>2026-05-01T09:11:20.524Z</time></trkpt><trkpt lat="45.773473" lon="8.7318787"><ele>377.6</ele><time>2026-05-01T09:11:21.524Z</time></trkpt><trkpt lat="45.7734296" lon="8.7319941"><ele>377.0</ele><time>2026-05-01T09:11:22.523Z</time></trkpt><trkpt lat="45.773392" lon="8.7321073"><ele>376.2857142857143</ele><time>2026-05-01T09:11:23.524Z</time></trkpt><trkpt lat="45.7733466" lon="8.7322081"><ele>375.57142857142856</ele><time>2026-05-01T09:11:24.524Z</time></trkpt><trkpt lat="45.7733244" lon="8.7322983"><ele>374.8571428571429</ele><time>2026-05-01T09:11:25.524Z</time></trkpt><trkpt lat="45.7732923" lon="8.7323801"><ele>374.1428571428571</ele><time>2026-05-01T09:11:26.524Z</time></trkpt><trkpt lat="45.7733312" lon="8.7324552"><ele>373.42857142857144</ele><time>2026-05-01T09:11:32.524Z</time></trkpt><trkpt lat="45.773404" lon="8.7324025"><ele>372.7142857142857</ele><time>2026-05-01T09:11:35.524Z</time></trkpt><trkpt lat="45.7734823" lon="8.7324284"><ele>372.0</ele><time>2026-05-01T09:11:46.524Z</time></trkpt><trkpt lat="45.7734445" lon="8.7325469"><ele>372.0</ele><time>2026-05-01T09:11:50.523Z</time></trkpt><trkpt lat="45.7734062" lon="8.7326387"><ele>372.0</ele><time>2026-05-01T09:11:52.523Z</time></trkpt><trkpt lat="45.7733679" lon="8.7327344"><ele>372.0</ele><time>2026-05-01T09:11:54.525Z</time></trkpt><trkpt lat="45.7733358" lon="8.7328234"><ele>372.0</ele><time>2026-05-01T09:11:56.525Z</time></trkpt><trkpt lat="45.7734357" lon="8.7328373"><ele>372.0</ele><time>2026-05-01T09:12:06.523Z</time></trkpt><trkpt lat="45.7735006" lon="8.7328338"><ele>372.0</ele><time>2026-05-01T09:12:08.523Z</time></trkpt><trkpt lat="45.773561" lon="8.7328027"><ele>372.00000000000006</ele><time>2026-05-01T09:12:23.524Z</time></trkpt><trkpt lat="45.7736543" lon="8.732794"><ele>372.0</ele><time>2026-05-01T09:12:25.524Z</time></trkpt><trkpt lat="45.7737199" lon="8.7327911"><ele>372.0</ele><time>2026-05-01T09:12:26.523Z</time></trkpt><trkpt lat="45.7737825" lon="8.732762"><ele>372.0</ele><time>2026-05-01T09:12:27.524Z</time></trkpt><trkpt lat="45.7738645" lon="8.7327563"><ele>372.0</ele><time>2026-05-01T09:12:28.524Z</time></trkpt><trkpt lat="45.7739406" lon="8.7327536"><ele>372.00000000000006</ele><time>2026-05-01T09:12:29.524Z</time></trkpt><trkpt lat="45.7740056" lon="8.7327494"><ele>372.0</ele><time>2026-05-01T09:12:30.523Z</time></trkpt><trkpt lat="45.7741041" lon="8.7327189"><ele>372.0</ele><time>2026-05-01T09:12:32.523Z</time></trkpt><trkpt lat="45.7742136" lon="8.7327503"><ele>372.0</ele><time>2026-05-01T09:12:34.524Z</time></trkpt><trkpt lat="45.7742747" lon="8.7327945"><ele>372.0</ele><time>2026-05-01T09:12:35.524Z</time></trkpt><trkpt lat="45.7743311" lon="8.7328448"><ele>372.0</ele><time>2026-05-01T09:12:36.525Z</time></trkpt><trkpt lat="45.7744053" lon="8.732903"><ele>372.0</ele><time>2026-05-01T09:12:38.524Z</time></trkpt><trkpt lat="45.7744296" lon="8.7330091"><ele>372.0</ele><time>2026-05-01T09:12:53.525Z</time></trkpt><trkpt lat="45.7744073" lon="8.7331086"><ele>372.0</ele><time>2026-05-01T09:12:56.523Z</time></trkpt><trkpt lat="45.7744407" lon="8.7329959"><ele>372.0</ele><time>2026-05-01T09:13:19.523Z</time></trkpt><trkpt lat="45.7743887" lon="8.7328853"><ele>372.0</ele><time>2026-05-01T09:13:22.524Z</time></trkpt><trkpt lat="45.7743259" lon="8.7328379"><ele>372.0</ele><time>2026-05-01T09:13:23.524Z</time></trkpt><trkpt lat="45.774273" lon="8.7327634"><ele>372.0</ele><time>2026-05-01T09:13:24.524Z</time></trkpt><trkpt lat="45.7742116" lon="8.7327359"><ele>372.0</ele><time>2026-05-01T09:13:25.524Z</time></trkpt><trkpt lat="45.7741246" lon="8.7327178"><ele>372.0</ele><time>2026-05-01T09:13:27.524Z</time></trkpt><trkpt lat="45.7740404" lon="8.7327488"><ele>372.0</ele><time>2026-05-01T09:13:29.524Z</time></trkpt><trkpt lat="45.7739141" lon="8.7327749"><ele>372.0</ele><time>2026-05-01T09:13:31.524Z</time></trkpt><trkpt lat="45.7737894" lon="8.7327543"><ele>372.0</ele><time>2026-05-01T09:13:33.523Z</time></trkpt><trkpt lat="45.7736724" lon="8.7327617"><ele>372.0</ele><time>2026-05-01T09:13:35.523Z</time></trkpt><trkpt lat="45.773588" lon="8.7327703"><ele>372.0</ele><time>2026-05-01T09:13:37.524Z</time></trkpt><trkpt lat="45.7736433" lon="8.7328642"><ele>372.0</ele><time>2026-05-01T09:13:42.524Z</time></trkpt><trkpt lat="45.7737145" lon="8.7329228"><ele>372.0</ele><time>2026-05-01T09:13:43.523Z</time></trkpt><trkpt lat="45.7737998" lon="8.7329514"><ele>372.0</ele><time>2026-05-01T09:13:56.525Z</time></trkpt><trkpt lat="45.7739554" lon="8.7330428"><ele>372.0</ele><time>2026-05-01T09:13:59.524Z</time></trkpt><trkpt lat="45.7740386" lon="8.7330949"><ele>372.0</ele><time>2026-05-01T09:14:00.524Z</time></trkpt><trkpt lat="45.7741095" lon="8.7331611"><ele>372.0</ele><time>2026-05-01T09:14:01.523Z</time></trkpt><trkpt lat="45.7741777" lon="8.733243"><ele>372.0</ele><time>2026-05-01T09:14:02.524Z</time></trkpt><trkpt lat="45.7742252" lon="8.7333267"><ele>372.0</ele><time>2026-05-01T09:14:03.524Z</time></trkpt><trkpt lat="45.774283" lon="8.7334066"><ele>372.0</ele><time>2026-05-01T09:14:04.524Z</time></trkpt><trkpt lat="45.7743464" lon="8.7335053"><ele>370.5</ele><time>2026-05-01T09:14:05.524Z</time></trkpt><trkpt lat="45.7744129" lon="8.7336015"><ele>369.0</ele><time>2026-05-01T09:14:06.524Z</time></trkpt><trkpt lat="45.7744778" lon="8.7336941"><ele>367.5</ele><time>2026-05-01T09:14:07.525Z</time></trkpt><trkpt lat="45.7745151" lon="8.7337851"><ele>366.0</ele><time>2026-05-01T09:14:08.524Z</time></trkpt><trkpt lat="45.774543" lon="8.7338787"><ele>364.5</ele><time>2026-05-01T09:14:09.524Z</time></trkpt><trkpt lat="45.7745841" lon="8.7339803"><ele>363.0</ele><time>2026-05-01T09:14:10.524Z</time></trkpt><trkpt lat="45.7746291" lon="8.7340957"><ele>363.0</ele><time>2026-05-01T09:14:11.523Z</time></trkpt><trkpt lat="45.7746649" lon="8.7341981"><ele>363.0</ele><time>2026-05-01T09:14:12.525Z</time></trkpt><trkpt lat="45.7747079" lon="8.7342874"><ele>363.0</ele><time>2026-05-01T09:14:13.524Z</time></trkpt><trkpt lat="45.7747521" lon="8.7343866"><ele>363.0</ele><time>2026-05-01T09:14:14.523Z</time></trkpt><trkpt lat="45.7747999" lon="8.7344924"><ele>363.0</ele><time>2026-05-01T09:14:15.523Z</time></trkpt><trkpt lat="45.7748373" lon="8.7345953"><ele>363.0</ele><time>2026-05-01T09:14:16.524Z</time></trkpt><trkpt lat="45.7748462" lon="8.7346955"><ele>365.0</ele><time>2026-05-01T09:14:17.524Z</time></trkpt><trkpt lat="45.7748711" lon="8.734791"><ele>367.0</ele><time>2026-05-01T09:14:18.525Z</time></trkpt><trkpt lat="45.7749056" lon="8.7348908"><ele>369.0</ele><time>2026-05-01T09:14:19.523Z</time></trkpt><trkpt lat="45.7749343" lon="8.734999"><ele>371.0</ele><time>2026-05-01T09:14:20.525Z</time></trkpt><trkpt lat="45.7749627" lon="8.7351814"><ele>373.0</ele><time>2026-05-01T09:14:22.523Z</time></trkpt><trkpt lat="45.7749651" lon="8.7352829"><ele>375.0</ele><time>2026-05-01T09:14:23.523Z</time></trkpt><trkpt lat="45.7749798" lon="8.7354002"><ele>376.1666666666667</ele><time>2026-05-01T09:14:24.524Z</time></trkpt><trkpt lat="45.7749928" lon="8.7355261"><ele>377.3333333333333</ele><time>2026-05-01T09:14:25.524Z</time></trkpt><trkpt lat="45.7750195" lon="8.7356661"><ele>378.5</ele><time>2026-05-01T09:14:26.523Z</time></trkpt><trkpt lat="45.7750565" lon="8.7358119"><ele>379.66666666666663</ele><time>2026-05-01T09:14:27.524Z</time></trkpt><trkpt lat="45.7750596" lon="8.7359041"><ele>380.8333333333333</ele><time>2026-05-01T09:14:28.523Z</time></trkpt><trkpt lat="45.7750618" lon="8.7360134"><ele>382.0</ele><time>2026-05-01T09:14:29.524Z</time></trkpt><trkpt lat="45.7750536" lon="8.7361525"><ele>382.0</ele><time>2026-05-01T09:14:31.523Z</time></trkpt><trkpt lat="45.7750348" lon="8.7362484"><ele>382.0</ele><time>2026-05-01T09:14:33.524Z</time></trkpt><trkpt lat="45.7749662" lon="8.736173"><ele>382.0</ele><time>2026-05-01T09:14:43.523Z</time></trkpt><trkpt lat="45.7749032" lon="8.7361299"><ele>382.0</ele><time>2026-05-01T09:14:44.523Z</time></trkpt><trkpt lat="45.7748307" lon="8.7360575"><ele>382.0</ele><time>2026-05-01T09:14:45.524Z</time></trkpt><trkpt lat="45.7747575" lon="8.7359914"><ele>382.0</ele><time>2026-05-01T09:14:46.524Z</time></trkpt><trkpt lat="45.7746839" lon="8.7359207"><ele>382.0</ele><time>2026-05-01T09:14:47.524Z</time></trkpt><trkpt lat="45.7746136" lon="8.7358632"><ele>382.0</ele><time>2026-05-01T09:14:48.524Z</time></trkpt><trkpt lat="45.7745332" lon="8.735805"><ele>382.0</ele><time>2026-05-01T09:14:49.524Z</time></trkpt><trkpt lat="45.7744831" lon="8.7357404"><ele>382.0</ele><time>2026-05-01T09:14:50.525Z</time></trkpt><trkpt lat="45.7743647" lon="8.7356778"><ele>382.0</ele><time>2026-05-01T09:14:52.523Z</time></trkpt><trkpt lat="45.7742865" lon="8.7356807"><ele>382.0</ele><time>2026-05-01T09:14:53.524Z</time></trkpt><trkpt lat="45.7742131" lon="8.7357093"><ele>383.8</ele><time>2026-05-01T09:14:58.523Z</time></trkpt><trkpt lat="45.7741551" lon="8.735875"><ele>385.6</ele><time>2026-05-01T09:15:00.524Z</time></trkpt><trkpt lat="45.7741042" lon="8.7359941"><ele>387.40000000000003</ele><time>2026-05-01T09:15:01.524Z</time></trkpt><trkpt lat="45.7740691" lon="8.7360891"><ele>389.20000000000005</ele><time>2026-05-01T09:15:02.524Z</time></trkpt><trkpt lat="45.7740436" lon="8.7362301"><ele>391.0</ele><time>2026-05-01T09:15:04.524Z</time></trkpt><trkpt lat="45.7740992" lon="8.7363046"><ele>391.50000000000006</ele><time>2026-05-01T09:15:05.523Z</time></trkpt><trkpt lat="45.7741439" lon="8.7363887"><ele>392.0</ele><time>2026-05-01T09:15:06.524Z</time></trkpt><trkpt lat="45.774185" lon="8.7364668"><ele>392.5</ele><time>2026-05-01T09:15:07.524Z</time></trkpt><trkpt lat="45.7742139" lon="8.7365551"><ele>393.0</ele><time>2026-05-01T09:15:09.524Z</time></trkpt><trkpt lat="45.7741116" lon="8.7366464"><ele>393.50000000000006</ele><time>2026-05-01T09:15:11.524Z</time></trkpt><trkpt lat="45.7740318" lon="8.7366639"><ele>394.0</ele><time>2026-05-01T09:15:12.524Z</time></trkpt><trkpt lat="45.7739607" lon="8.7366851"><ele>394.00000000000006</ele><time>2026-05-01T09:15:13.523Z</time></trkpt><trkpt lat="45.7738787" lon="8.7367049"><ele>394.0</ele><time>2026-05-01T09:15:14.523Z</time></trkpt><trkpt lat="45.7737889" lon="8.7367389"><ele>394.0</ele><time>2026-05-01T09:15:15.524Z</time></trkpt><trkpt lat="45.7737092" lon="8.7367699"><ele>394.0</ele><time>2026-05-01T09:15:16.524Z</time></trkpt><trkpt lat="45.7736362" lon="8.7367678"><ele>394.00000000000006</ele><time>2026-05-01T09:15:17.524Z</time></trkpt><trkpt lat="45.7735324" lon="8.7368051"><ele>394.0</ele><time>2026-05-01T09:15:19.523Z</time></trkpt><trkpt lat="45.773486" lon="8.7368956"><ele>395.0</ele><time>2026-05-01T09:15:21.524Z</time></trkpt><trkpt lat="45.7734626" lon="8.7370297"><ele>396.0</ele><time>2026-05-01T09:15:23.523Z</time></trkpt><trkpt lat="45.7734794" lon="8.7372064"><ele>397.0</ele><time>2026-05-01T09:15:25.523Z</time></trkpt><trkpt lat="45.7735347" lon="8.7373693"><ele>398.0</ele><time>2026-05-01T09:15:27.524Z</time></trkpt><trkpt lat="45.7735839" lon="8.7374545"><ele>399.0</ele><time>2026-05-01T09:15:28.524Z</time></trkpt><trkpt lat="45.7736356" lon="8.7375208"><ele>399.3333333333333</ele><time>2026-05-01T09:15:29.523Z</time></trkpt><trkpt lat="45.7736888" lon="8.7375833"><ele>399.66666666666663</ele><time>2026-05-01T09:15:30.524Z</time></trkpt><trkpt lat="45.7737461" lon="8.7376484"><ele>400.0</ele><time>2026-05-01T09:15:31.524Z</time></trkpt><trkpt lat="45.7738345" lon="8.7377059"><ele>400.3333333333333</ele><time>2026-05-01T09:15:32.524Z</time></trkpt><trkpt lat="45.7739002" lon="8.7377442"><ele>400.66666666666663</ele><time>2026-05-01T09:15:33.525Z</time></trkpt><trkpt lat="45.773972" lon="8.7377859"><ele>401.0</ele><time>2026-05-01T09:15:34.524Z</time></trkpt><trkpt lat="45.7740312" lon="8.7378555"><ele>401.0</ele><time>2026-05-01T09:15:35.524Z</time></trkpt><trkpt lat="45.7740935" lon="8.7379454"><ele>401.0</ele><time>2026-05-01T09:15:36.524Z</time></trkpt><trkpt lat="45.774158" lon="8.7380058"><ele>401.0</ele><time>2026-05-01T09:15:37.524Z</time></trkpt><trkpt lat="45.7742785" lon="8.7380962"><ele>401.0</ele><time>2026-05-01T09:15:39.524Z</time></trkpt><trkpt lat="45.774332" lon="8.7382135"><ele>401.0</ele><time>2026-05-01T09:15:41.524Z</time></trkpt><trkpt lat="45.7743432" lon="8.7383453"><ele>401.3333333333333</ele><time>2026-05-01T09:15:43.524Z</time></trkpt><trkpt lat="45.7743634" lon="8.7384308"><ele>401.66666666666663</ele><time>2026-05-01T09:15:44.524Z</time></trkpt><trkpt lat="45.7744128" lon="8.7385747"><ele>402.0</ele><time>2026-05-01T09:15:46.524Z</time></trkpt><trkpt lat="45.7744319" lon="8.7386942"><ele>402.33333333333337</ele><time>2026-05-01T09:15:48.524Z</time></trkpt><trkpt lat="45.7744164" lon="8.7388072"><ele>402.6666666666667</ele><time>2026-05-01T09:15:50.523Z</time></trkpt><trkpt lat="45.7743802" lon="8.7389125"><ele>403.0</ele><time>2026-05-01T09:16:01.525Z</time></trkpt><trkpt lat="45.7742859" lon="8.7389347"><ele>401.50000000000006</ele><time>2026-05-01T09:16:03.523Z</time></trkpt><trkpt lat="45.7742244" lon="8.7388799"><ele>400.0</ele><time>2026-05-01T09:16:05.524Z</time></trkpt><trkpt lat="45.7741496" lon="8.7388286"><ele>398.5</ele><time>2026-05-01T09:16:08.524Z</time></trkpt><trkpt lat="45.7740322" lon="8.7387374"><ele>397.0</ele><time>2026-05-01T09:16:10.524Z</time></trkpt><trkpt lat="45.7739779" lon="8.7386839"><ele>395.50000000000006</ele><time>2026-05-01T09:16:11.523Z</time></trkpt><trkpt lat="45.7739231" lon="8.7386243"><ele>394.0</ele><time>2026-05-01T09:16:12.523Z</time></trkpt><trkpt lat="45.7738383" lon="8.7385539"><ele>393.0</ele><time>2026-05-01T09:16:13.523Z</time></trkpt><trkpt lat="45.7737594" lon="8.7384753"><ele>392.0</ele><time>2026-05-01T09:16:14.524Z</time></trkpt><trkpt lat="45.7736643" lon="8.7383832"><ele>391.0</ele><time>2026-05-01T09:16:15.524Z</time></trkpt><trkpt lat="45.7735892" lon="8.7383085"><ele>390.0</ele><time>2026-05-01T09:16:16.523Z</time></trkpt><trkpt lat="45.7735092" lon="8.7382294"><ele>389.0</ele><time>2026-05-01T09:16:17.524Z</time></trkpt><trkpt lat="45.7734265" lon="8.738155"><ele>389.0</ele><time>2026-05-01T09:16:18.524Z</time></trkpt><trkpt lat="45.773358" lon="8.7380803"><ele>389.0</ele><time>2026-05-01T09:16:19.524Z</time></trkpt><trkpt lat="45.7732608" lon="8.7379621"><ele>389.0</ele><time>2026-05-01T09:16:21.524Z</time></trkpt><trkpt lat="45.7732066" lon="8.737913"><ele>389.0</ele><time>2026-05-01T09:16:22.523Z</time></trkpt><trkpt lat="45.7731506" lon="8.7378511"><ele>389.0</ele><time>2026-05-01T09:16:23.523Z</time></trkpt><trkpt lat="45.77305" lon="8.7377756"><ele>389.0</ele><time>2026-05-01T09:16:25.524Z</time></trkpt><trkpt lat="45.7729446" lon="8.7377499"><ele>389.0</ele><time>2026-05-01T09:16:27.523Z</time></trkpt><trkpt lat="45.7728456" lon="8.737791"><ele>389.0</ele><time>2026-05-01T09:16:29.524Z</time></trkpt><trkpt lat="45.7727396" lon="8.7378517"><ele>389.0</ele><time>2026-05-01T09:16:31.524Z</time></trkpt><trkpt lat="45.7726814" lon="8.7378064"><ele>389.0</ele><time>2026-05-01T09:16:32.524Z</time></trkpt><trkpt lat="45.7726101" lon="8.7377775"><ele>388.8333333333333</ele><time>2026-05-01T09:16:33.524Z</time></trkpt><trkpt lat="45.7725429" lon="8.7377498"><ele>388.66666666666663</ele><time>2026-05-01T09:16:34.524Z</time></trkpt><trkpt lat="45.7724893" lon="8.7377023"><ele>388.5</ele><time>2026-05-01T09:16:35.524Z</time></trkpt><trkpt lat="45.7724009" lon="8.7376475"><ele>388.33333333333337</ele><time>2026-05-01T09:16:37.524Z</time></trkpt><trkpt lat="45.7723056" lon="8.7376466"><ele>388.1666666666667</ele><time>2026-05-01T09:16:39.524Z</time></trkpt><trkpt lat="45.7722049" lon="8.7376576"><ele>388.0</ele><time>2026-05-01T09:16:41.524Z</time></trkpt><trkpt lat="45.7720964" lon="8.7376737"><ele>388.00000000000006</ele><time>2026-05-01T09:16:43.524Z</time></trkpt><trkpt lat="45.7719994" lon="8.7376771"><ele>388.0</ele><time>2026-05-01T09:16:45.524Z</time></trkpt><trkpt lat="45.7719526" lon="8.7377392"><ele>388.0</ele><time>2026-05-01T09:16:49.523Z</time></trkpt><trkpt lat="45.7720163" lon="8.7378249"><ele>388.0</ele><time>2026-05-01T09:16:51.523Z</time></trkpt><trkpt lat="45.7720963" lon="8.7378927"><ele>388.00000000000006</ele><time>2026-05-01T09:16:53.524Z</time></trkpt><trkpt lat="45.7721518" lon="8.7379417"><ele>388.0</ele><time>2026-05-01T09:16:54.524Z</time></trkpt><trkpt lat="45.7722169" lon="8.7379986"><ele>388.1666666666667</ele><time>2026-05-01T09:16:55.523Z</time></trkpt><trkpt lat="45.7722895" lon="8.7380566"><ele>388.33333333333337</ele><time>2026-05-01T09:16:56.523Z</time></trkpt><trkpt lat="45.7723699" lon="8.7381129"><ele>388.5</ele><time>2026-05-01T09:16:57.524Z</time></trkpt><trkpt lat="45.7724518" lon="8.7381603"><ele>388.66666666666663</ele><time>2026-05-01T09:16:58.524Z</time></trkpt><trkpt lat="45.7725414" lon="8.7381917"><ele>388.8333333333333</ele><time>2026-05-01T09:16:59.524Z</time></trkpt><trkpt lat="45.7726306" lon="8.7382101"><ele>389.0</ele><time>2026-05-01T09:17:00.523Z</time></trkpt><trkpt lat="45.7727178" lon="8.7382167"><ele>388.99999999999994</ele><time>2026-05-01T09:17:01.524Z</time></trkpt><trkpt lat="45.7728039" lon="8.7382091"><ele>389.0</ele><time>2026-05-01T09:17:02.524Z</time></trkpt><trkpt lat="45.7728862" lon="8.7382088"><ele>389.0</ele><time>2026-05-01T09:17:03.524Z</time></trkpt><trkpt lat="45.772965" lon="8.7382223"><ele>389.0</ele><time>2026-05-01T09:17:04.523Z</time></trkpt><trkpt lat="45.7730406" lon="8.7382613"><ele>388.99999999999994</ele><time>2026-05-01T09:17:05.524Z</time></trkpt><trkpt lat="45.773107" lon="8.7383384"><ele>389.0</ele><time>2026-05-01T09:17:06.524Z</time></trkpt><trkpt lat="45.7731637" lon="8.7384374"><ele>389.0</ele><time>2026-05-01T09:17:07.523Z</time></trkpt><trkpt lat="45.77321" lon="8.7385506"><ele>389.0</ele><time>2026-05-01T09:17:08.524Z</time></trkpt><trkpt lat="45.7732522" lon="8.7386706"><ele>389.0</ele><time>2026-05-01T09:17:09.524Z</time></trkpt><trkpt lat="45.773297" lon="8.7387899"><ele>389.0</ele><time>2026-05-01T09:17:10.524Z</time></trkpt><trkpt lat="45.7733391" lon="8.7389152"><ele>389.0</ele><time>2026-05-01T09:17:11.523Z</time></trkpt><trkpt lat="45.7733731" lon="8.7390463"><ele>389.6</ele><time>2026-05-01T09:17:12.524Z</time></trkpt><trkpt lat="45.7734052" lon="8.7391826"><ele>390.2</ele><time>2026-05-01T09:17:13.524Z</time></trkpt><trkpt lat="45.7734393" lon="8.7393266"><ele>390.8</ele><time>2026-05-01T09:17:14.524Z</time></trkpt><trkpt lat="45.7734761" lon="8.7394749"><ele>391.40000000000003</ele><time>2026-05-01T09:17:15.524Z</time></trkpt><trkpt lat="45.7735117" lon="8.739629"><ele>392.0</ele><time>2026-05-01T09:17:16.524Z</time></trkpt><trkpt lat="45.7735383" lon="8.739788"><ele>392.0</ele><time>2026-05-01T09:17:17.524Z</time></trkpt><trkpt lat="45.7735385" lon="8.7399526"><ele>392.0</ele><time>2026-05-01T09:17:18.524Z</time></trkpt><trkpt lat="45.7735262" lon="8.7401174"><ele>392.0</ele><time>2026-05-01T09:17:19.524Z</time></trkpt><trkpt lat="45.7735271" lon="8.7402846"><ele>392.0</ele><time>2026-05-01T09:17:20.524Z</time></trkpt><trkpt lat="45.7735457" lon="8.7404519"><ele>391.8</ele><time>2026-05-01T09:17:21.523Z</time></trkpt><trkpt lat="45.7735758" lon="8.7406126"><ele>391.6</ele><time>2026-05-01T09:17:22.523Z</time></trkpt><trkpt lat="45.7736164" lon="8.7407634"><ele>391.40000000000003</ele><time>2026-05-01T09:17:23.523Z</time></trkpt><trkpt lat="45.773667" lon="8.7409051"><ele>391.20000000000005</ele><time>2026-05-01T09:17:24.524Z</time></trkpt><trkpt lat="45.773722" lon="8.7410396"><ele>391.0</ele><time>2026-05-01T09:17:25.524Z</time></trkpt><trkpt lat="45.7737733" lon="8.7411733"><ele>389.0</ele><time>2026-05-01T09:17:26.524Z</time></trkpt><trkpt lat="45.7738264" lon="8.7413052"><ele>387.0</ele><time>2026-05-01T09:17:27.524Z</time></trkpt><trkpt lat="45.7738772" lon="8.7414364"><ele>385.0</ele><time>2026-05-01T09:17:28.524Z</time></trkpt><trkpt lat="45.7739256" lon="8.7415698"><ele>383.0</ele><time>2026-05-01T09:17:29.524Z</time></trkpt><trkpt lat="45.7739661" lon="8.7417117"><ele>381.0</ele><time>2026-05-01T09:17:30.524Z</time></trkpt><trkpt lat="45.7739999" lon="8.7418608"><ele>377.25</ele><time>2026-05-01T09:17:31.524Z</time></trkpt><trkpt lat="45.7740314" lon="8.742014"><ele>373.5</ele><time>2026-05-01T09:17:32.523Z</time></trkpt><trkpt lat="45.7740621" lon="8.7421696"><ele>369.75</ele><time>2026-05-01T09:17:33.524Z</time></trkpt><trkpt lat="45.7740915" lon="8.7423289"><ele>366.0</ele><time>2026-05-01T09:17:34.525Z</time></trkpt><trkpt lat="45.7741213" lon="8.7424877"><ele>366.0</ele><time>2026-05-01T09:17:35.523Z</time></trkpt><trkpt lat="45.7741528" lon="8.7426454"><ele>366.0</ele><time>2026-05-01T09:17:36.523Z</time></trkpt><trkpt lat="45.7741829" lon="8.7427978"><ele>366.0</ele><time>2026-05-01T09:17:37.524Z</time></trkpt><trkpt lat="45.7742164" lon="8.7429403"><ele>366.0</ele><time>2026-05-01T09:17:38.525Z</time></trkpt><trkpt lat="45.7742647" lon="8.7430647"><ele>366.0</ele><time>2026-05-01T09:17:39.523Z</time></trkpt><trkpt lat="45.7743257" lon="8.7431648"><ele>366.3333333333333</ele><time>2026-05-01T09:17:40.524Z</time></trkpt><trkpt lat="45.774393" lon="8.7432297"><ele>366.6666666666667</ele><time>2026-05-01T09:17:41.524Z</time></trkpt><trkpt lat="45.7744676" lon="8.7433343"><ele>367.0</ele><time>2026-05-01T09:17:43.523Z</time></trkpt><trkpt lat="45.7744772" lon="8.7434267"><ele>367.33333333333337</ele><time>2026-05-01T09:17:44.524Z</time></trkpt><trkpt lat="45.7744855" lon="8.7435411"><ele>367.6666666666667</ele><time>2026-05-01T09:17:45.523Z</time></trkpt><trkpt lat="45.7744995" lon="8.7436787"><ele>368.0</ele><time>2026-05-01T09:17:46.524Z</time></trkpt><trkpt lat="45.7745261" lon="8.7437957"><ele>367.0</ele><time>2026-05-01T09:17:47.524Z</time></trkpt><trkpt lat="45.7745528" lon="8.7439133"><ele>366.0</ele><time>2026-05-01T09:17:48.524Z</time></trkpt><trkpt lat="45.7745647" lon="8.7440248"><ele>365.0</ele><time>2026-05-01T09:17:49.524Z</time></trkpt><trkpt lat="45.7745522" lon="8.7441342"><ele>364.0</ele><time>2026-05-01T09:17:50.524Z</time></trkpt><trkpt lat="45.7745377" lon="8.7442398"><ele>363.0</ele><time>2026-05-01T09:17:51.523Z</time></trkpt><trkpt lat="45.774511" lon="8.7443349"><ele>362.0</ele><time>2026-05-01T09:17:52.524Z</time></trkpt><trkpt lat="45.7744374" lon="8.7444148"><ele>361.6666666666667</ele><time>2026-05-01T09:17:53.525Z</time></trkpt><trkpt lat="45.7743912" lon="8.744494"><ele>361.33333333333337</ele><time>2026-05-01T09:17:54.524Z</time></trkpt><trkpt lat="45.7743344" lon="8.7445651"><ele>361.0</ele><time>2026-05-01T09:17:55.524Z</time></trkpt><trkpt lat="45.7742734" lon="8.7446303"><ele>360.6666666666667</ele><time>2026-05-01T09:17:56.523Z</time></trkpt><trkpt lat="45.7742193" lon="8.744736"><ele>360.3333333333333</ele><time>2026-05-01T09:17:57.524Z</time></trkpt><trkpt lat="45.774176" lon="8.7448557"><ele>360.0</ele><time>2026-05-01T09:17:58.523Z</time></trkpt><trkpt lat="45.7741194" lon="8.7449972"><ele>361.0</ele><time>2026-05-01T09:17:59.524Z</time></trkpt><trkpt lat="45.7740624" lon="8.7451175"><ele>362.0</ele><time>2026-05-01T09:18:00.524Z</time></trkpt><trkpt lat="45.7739989" lon="8.7452334"><ele>363.0</ele><time>2026-05-01T09:18:01.525Z</time></trkpt><trkpt lat="45.7739427" lon="8.7453386"><ele>364.0</ele><time>2026-05-01T09:18:02.524Z</time></trkpt><trkpt lat="45.7738843" lon="8.7454418"><ele>365.0</ele><time>2026-05-01T09:18:03.523Z</time></trkpt><trkpt lat="45.773815" lon="8.7455503"><ele>363.33333333333337</ele><time>2026-05-01T09:18:05.524Z</time></trkpt><trkpt lat="45.7737572" lon="8.7456373"><ele>361.6666666666667</ele><time>2026-05-01T09:18:07.524Z</time></trkpt><trkpt lat="45.773819" lon="8.7455362"><ele>360.0</ele><time>2026-05-01T09:18:16.523Z</time></trkpt><trkpt lat="45.7738675" lon="8.7454427"><ele>358.3333333333333</ele><time>2026-05-01T09:18:17.524Z</time></trkpt><trkpt lat="45.7739419" lon="8.7453384"><ele>356.66666666666663</ele><time>2026-05-01T09:18:19.523Z</time></trkpt><trkpt lat="45.7740046" lon="8.745294"><ele>355.0</ele><time>2026-05-01T09:18:24.524Z</time></trkpt><trkpt lat="45.7740598" lon="8.7453395"><ele>355.0</ele><time>2026-05-01T09:18:50.524Z</time></trkpt><trkpt lat="45.7741124" lon="8.7454272"><ele>355.0</ele><time>2026-05-01T09:18:52.523Z</time></trkpt><trkpt lat="45.774177" lon="8.7455057"><ele>355.0</ele><time>2026-05-01T09:18:54.525Z</time></trkpt><trkpt lat="45.7742282" lon="8.7455986"><ele>355.0</ele><time>2026-05-01T09:18:56.523Z</time></trkpt><trkpt lat="45.7742764" lon="8.7456859"><ele>355.0</ele><time>2026-05-01T09:18:58.524Z</time></trkpt><trkpt lat="45.7743313" lon="8.7457643"><ele>355.0</ele><time>2026-05-01T09:19:00.524Z</time></trkpt><trkpt lat="45.7743909" lon="8.7458541"><ele>352.4</ele><time>2026-05-01T09:19:02.523Z</time></trkpt><trkpt lat="45.7744252" lon="8.7459505"><ele>349.8</ele><time>2026-05-01T09:19:04.524Z</time></trkpt><trkpt lat="45.7744288" lon="8.7460779"><ele>347.20000000000005</ele><time>2026-05-01T09:19:06.524Z</time></trkpt><trkpt lat="45.7744252" lon="8.746199"><ele>344.6</ele><time>2026-05-01T09:19:08.524Z</time></trkpt><trkpt lat="45.7743894" lon="8.74634"><ele>342.0</ele><time>2026-05-01T09:19:10.523Z</time></trkpt><trkpt lat="45.7743333" lon="8.746463"><ele>341.8333333333333</ele><time>2026-05-01T09:19:12.523Z</time></trkpt><trkpt lat="45.7743054" lon="8.7466237"><ele>341.6666666666667</ele><time>2026-05-01T09:19:14.524Z</time></trkpt><trkpt lat="45.774298" lon="8.7467721"><ele>341.5</ele><time>2026-05-01T09:19:16.524Z</time></trkpt><trkpt lat="45.7743284" lon="8.746888"><ele>341.33333333333337</ele><time>2026-05-01T09:19:18.524Z</time></trkpt><trkpt lat="45.7743902" lon="8.7469079"><ele>341.1666666666667</ele><time>2026-05-01T09:19:24.524Z</time></trkpt><trkpt lat="45.774446" lon="8.7468363"><ele>341.0</ele><time>2026-05-01T09:19:32.524Z</time></trkpt><trkpt lat="45.774587" lon="8.7467226"><ele>337.6</ele><time>2026-05-01T09:19:34.524Z</time></trkpt><trkpt lat="45.7746625" lon="8.7466659"><ele>334.20000000000005</ele><time>2026-05-01T09:19:35.524Z</time></trkpt><trkpt lat="45.7747775" lon="8.7466483"><ele>330.79999999999995</ele><time>2026-05-01T09:19:37.524Z</time></trkpt><trkpt lat="45.774888" lon="8.7467339"><ele>327.4</ele><time>2026-05-01T09:19:39.524Z</time></trkpt><trkpt lat="45.7749354" lon="8.7468152"><ele>324.0</ele><time>2026-05-01T09:19:40.523Z</time></trkpt><trkpt lat="45.7749642" lon="8.7469028"><ele>321.8333333333333</ele><time>2026-05-01T09:19:41.524Z</time></trkpt><trkpt lat="45.7749862" lon="8.7470106"><ele>319.6666666666667</ele><time>2026-05-01T09:19:42.524Z</time></trkpt><trkpt lat="45.7750034" lon="8.7471229"><ele>317.5</ele><time>2026-05-01T09:19:43.524Z</time></trkpt><trkpt lat="45.7750191" lon="8.7472315"><ele>315.33333333333337</ele><time>2026-05-01T09:19:44.523Z</time></trkpt><trkpt lat="45.7750304" lon="8.7473804"><ele>313.1666666666667</ele><time>2026-05-01T09:19:46.524Z</time></trkpt><trkpt lat="45.7750839" lon="8.7474448"><ele>311.0</ele><time>2026-05-01T09:19:48.523Z</time></trkpt><trkpt lat="45.7751027" lon="8.7475559"><ele>311.0</ele><time>2026-05-01T09:19:51.524Z</time></trkpt><trkpt lat="45.775004" lon="8.7475205"><ele>311.0</ele><time>2026-05-01T09:19:53.524Z</time></trkpt><trkpt lat="45.7748767" lon="8.7475073"><ele>311.0</ele><time>2026-05-01T09:19:55.524Z</time></trkpt><trkpt lat="45.7748029" lon="8.7475307"><ele>311.0</ele><time>2026-05-01T09:19:56.524Z</time></trkpt><trkpt lat="45.7747287" lon="8.7476028"><ele>311.0</ele><time>2026-05-01T09:19:57.524Z</time></trkpt><trkpt lat="45.7746644" lon="8.747676"><ele>310.6666666666667</ele><time>2026-05-01T09:19:58.524Z</time></trkpt><trkpt lat="45.7746247" lon="8.7477504"><ele>310.33333333333337</ele><time>2026-05-01T09:19:59.524Z</time></trkpt><trkpt lat="45.7745968" lon="8.7478656"><ele>310.0</ele><time>2026-05-01T09:20:00.523Z</time></trkpt><trkpt lat="45.7745444" lon="8.7479491"><ele>309.6666666666667</ele><time>2026-05-01T09:20:01.524Z</time></trkpt><trkpt lat="45.7745039" lon="8.7480463"><ele>309.3333333333333</ele><time>2026-05-01T09:20:02.524Z</time></trkpt><trkpt lat="45.7744124" lon="8.7481228"><ele>309.0</ele><time>2026-05-01T09:20:03.523Z</time></trkpt><trkpt lat="45.7743226" lon="8.7482144"><ele>308.6666666666667</ele><time>2026-05-01T09:20:04.523Z</time></trkpt><trkpt lat="45.7742457" lon="8.7483147"><ele>308.3333333333333</ele><time>2026-05-01T09:20:05.525Z</time></trkpt><trkpt lat="45.774181" lon="8.7483956"><ele>308.0</ele><time>2026-05-01T09:20:06.525Z</time></trkpt><trkpt lat="45.7741034" lon="8.748488"><ele>307.66666666666663</ele><time>2026-05-01T09:20:07.523Z</time></trkpt><trkpt lat="45.7740401" lon="8.7485492"><ele>307.3333333333333</ele><time>2026-05-01T09:20:08.523Z</time></trkpt><trkpt lat="45.773975" lon="8.7486052"><ele>307.0</ele><time>2026-05-01T09:20:09.524Z</time></trkpt><trkpt lat="45.7738949" lon="8.7487024"><ele>307.0</ele><time>2026-05-01T09:20:10.524Z</time></trkpt><trkpt lat="45.7738097" lon="8.7487797"><ele>307.0</ele><time>2026-05-01T09:20:11.524Z</time></trkpt><trkpt lat="45.7737171" lon="8.7488682"><ele>307.0</ele><time>2026-05-01T09:20:12.524Z</time></trkpt><trkpt lat="45.7736394" lon="8.7489685"><ele>307.0</ele><time>2026-05-01T09:20:13.523Z</time></trkpt><trkpt lat="45.7735565" lon="8.7490644"><ele>307.0</ele><time>2026-05-01T09:20:14.524Z</time></trkpt><trkpt lat="45.7734916" lon="8.7491582"><ele>308.0</ele><time>2026-05-01T09:20:15.524Z</time></trkpt><trkpt lat="45.773421" lon="8.7492443"><ele>309.0</ele><time>2026-05-01T09:20:16.524Z</time></trkpt><trkpt lat="45.7733406" lon="8.7493492"><ele>310.0</ele><time>2026-05-01T09:20:17.523Z</time></trkpt><trkpt lat="45.7732705" lon="8.7494683"><ele>311.0</ele><time>2026-05-01T09:20:18.524Z</time></trkpt><trkpt lat="45.7731944" lon="8.74958"><ele>312.0</ele><time>2026-05-01T09:20:19.524Z</time></trkpt><trkpt lat="45.7731114" lon="8.7496682"><ele>311.2</ele><time>2026-05-01T09:20:20.523Z</time></trkpt><trkpt lat="45.7730269" lon="8.7497274"><ele>310.4</ele><time>2026-05-01T09:20:21.524Z</time></trkpt><trkpt lat="45.7729322" lon="8.7497806"><ele>309.6</ele><time>2026-05-01T09:20:22.524Z</time></trkpt><trkpt lat="45.7728456" lon="8.7498349"><ele>308.8</ele><time>2026-05-01T09:20:23.525Z</time></trkpt><trkpt lat="45.7727558" lon="8.7498754"><ele>308.0</ele><time>2026-05-01T09:20:24.523Z</time></trkpt><trkpt lat="45.7726585" lon="8.7499214"><ele>308.0</ele><time>2026-05-01T09:20:25.524Z</time></trkpt><trkpt lat="45.7725816" lon="8.7499461"><ele>308.0</ele><time>2026-05-01T09:20:26.524Z</time></trkpt><trkpt lat="45.7724839" lon="8.7499937"><ele>308.0</ele><time>2026-05-01T09:20:27.523Z</time></trkpt><trkpt lat="45.772391" lon="8.7500333"><ele>308.0</ele><time>2026-05-01T09:20:28.524Z</time></trkpt><trkpt lat="45.7722984" lon="8.7500916"><ele>308.0</ele><time>2026-05-01T09:20:29.523Z</time></trkpt><trkpt lat="45.7721997" lon="8.7501474"><ele>308.8</ele><time>2026-05-01T09:20:30.524Z</time></trkpt><trkpt lat="45.7721068" lon="8.7502087"><ele>309.6</ele><time>2026-05-01T09:20:31.524Z</time></trkpt><trkpt lat="45.7720075" lon="8.7502795"><ele>310.4</ele><time>2026-05-01T09:20:32.524Z</time></trkpt><trkpt lat="45.7719248" lon="8.7503201"><ele>311.2</ele><time>2026-05-01T09:20:33.524Z</time></trkpt><trkpt lat="45.7718322" lon="8.7503698"><ele>312.0</ele><time>2026-05-01T09:20:34.524Z</time></trkpt><trkpt lat="45.7717442" lon="8.7504406"><ele>312.0</ele><time>2026-05-01T09:20:35.524Z</time></trkpt><trkpt lat="45.7716516" lon="8.750519"><ele>312.0</ele><time>2026-05-01T09:20:36.523Z</time></trkpt><trkpt lat="45.7715925" lon="8.7506089"><ele>312.0</ele><time>2026-05-01T09:20:37.523Z</time></trkpt><trkpt lat="45.7715152" lon="8.7507017"><ele>312.0</ele><time>2026-05-01T09:20:38.523Z</time></trkpt><trkpt lat="45.7714394" lon="8.7508052"><ele>312.0</ele><time>2026-05-01T09:20:39.524Z</time></trkpt><trkpt lat="45.771364" lon="8.7508968"><ele>312.0</ele><time>2026-05-01T09:20:40.524Z</time></trkpt><trkpt lat="45.7712872" lon="8.7509922"><ele>312.0</ele><time>2026-05-01T09:20:41.523Z</time></trkpt><trkpt lat="45.7712137" lon="8.7510824"><ele>312.0</ele><time>2026-05-01T09:20:42.525Z</time></trkpt><trkpt lat="45.7711397" lon="8.7511738"><ele>312.0</ele><time>2026-05-01T09:20:43.524Z</time></trkpt><trkpt lat="45.7710645" lon="8.7512314"><ele>312.0</ele><time>2026-05-01T09:20:44.523Z</time></trkpt><trkpt lat="45.7709969" lon="8.7512999"><ele>310.4</ele><time>2026-05-01T09:20:45.523Z</time></trkpt><trkpt lat="45.7709432" lon="8.7513589"><ele>308.79999999999995</ele><time>2026-05-01T09:20:46.523Z</time></trkpt><trkpt lat="45.7708814" lon="8.7514145"><ele>307.2</ele><time>2026-05-01T09:21:33.524Z</time></trkpt><trkpt lat="45.7707523" lon="8.7514195"><ele>305.59999999999997</ele><time>2026-05-01T09:21:35.524Z</time></trkpt><trkpt lat="45.7706403" lon="8.7514667"><ele>304.0</ele><time>2026-05-01T09:21:37.523Z</time></trkpt><trkpt lat="45.770576" lon="8.7514921"><ele>304.0</ele><time>2026-05-01T09:21:38.523Z</time></trkpt><trkpt lat="45.7704458" lon="8.7515157"><ele>304.0</ele><time>2026-05-01T09:21:40.523Z</time></trkpt><trkpt lat="45.7703706" lon="8.7515179"><ele>304.0</ele><time>2026-05-01T09:21:41.524Z</time></trkpt><trkpt lat="45.7702695" lon="8.7515227"><ele>304.0</ele><time>2026-05-01T09:21:42.524Z</time></trkpt><trkpt lat="45.7701671" lon="8.7515127"><ele>304.0</ele><time>2026-05-01T09:21:43.523Z</time></trkpt><trkpt lat="45.7700726" lon="8.7515007"><ele>305.59999999999997</ele><time>2026-05-01T09:21:44.524Z</time></trkpt><trkpt lat="45.7699737" lon="8.7514943"><ele>307.2</ele><time>2026-05-01T09:21:45.524Z</time></trkpt><trkpt lat="45.7698797" lon="8.7515222"><ele>308.79999999999995</ele><time>2026-05-01T09:21:46.524Z</time></trkpt><trkpt lat="45.7697859" lon="8.7515388"><ele>310.4</ele><time>2026-05-01T09:21:47.525Z</time></trkpt><trkpt lat="45.7696913" lon="8.7515581"><ele>312.0</ele><time>2026-05-01T09:21:48.523Z</time></trkpt><trkpt lat="45.7695912" lon="8.7515274"><ele>312.0</ele><time>2026-05-01T09:21:50.524Z</time></trkpt><trkpt lat="45.7695185" lon="8.7515038"><ele>312.0</ele><time>2026-05-01T09:22:12.524Z</time></trkpt><trkpt lat="45.7694415" lon="8.7514766"><ele>312.0</ele><time>2026-05-01T09:22:14.524Z</time></trkpt><trkpt lat="45.7693631" lon="8.7514337"><ele>312.0</ele><time>2026-05-01T09:22:16.523Z</time></trkpt><trkpt lat="45.7693081" lon="8.7513837"><ele>312.0</ele><time>2026-05-01T09:22:18.524Z</time></trkpt><trkpt lat="45.7692365" lon="8.7512973"><ele>312.0</ele><time>2026-05-01T09:22:20.524Z</time></trkpt><trkpt lat="45.7691521" lon="8.7511821"><ele>312.25</ele><time>2026-05-01T09:22:22.523Z</time></trkpt><trkpt lat="45.7690671" lon="8.7510699"><ele>312.5</ele><time>2026-05-01T09:22:24.524Z</time></trkpt><trkpt lat="45.7690111" lon="8.7509448"><ele>312.75</ele><time>2026-05-01T09:22:26.523Z</time></trkpt><trkpt lat="45.7689758" lon="8.7507923"><ele>313.0</ele><time>2026-05-01T09:22:28.525Z</time></trkpt><trkpt lat="45.7689239" lon="8.7506388"><ele>313.0</ele><time>2026-05-01T09:22:30.524Z</time></trkpt><trkpt lat="45.7688586" lon="8.7504867"><ele>313.0</ele><time>2026-05-01T09:22:32.525Z</time></trkpt><trkpt lat="45.7687651" lon="8.7503567"><ele>313.0</ele><time>2026-05-01T09:22:34.524Z</time></trkpt><trkpt lat="45.7687076" lon="8.7502905"><ele>313.0</ele><time>2026-05-01T09:22:35.524Z</time></trkpt><trkpt lat="45.7686547" lon="8.7502409"><ele>313.0</ele><time>2026-05-01T09:22:36.524Z</time></trkpt><trkpt lat="45.7685969" lon="8.7502035"><ele>312.66666666666663</ele><time>2026-05-01T09:22:37.524Z</time></trkpt><trkpt lat="45.7685373" lon="8.7501676"><ele>312.3333333333333</ele><time>2026-05-01T09:22:38.524Z</time></trkpt><trkpt lat="45.7684229" lon="8.7501139"><ele>312.0</ele><time>2026-05-01T09:22:40.524Z</time></trkpt><trkpt lat="45.7683601" lon="8.7500982"><ele>311.6666666666667</ele><time>2026-05-01T09:22:41.523Z</time></trkpt><trkpt lat="45.7682463" lon="8.7501145"><ele>311.33333333333337</ele><time>2026-05-01T09:22:43.524Z</time></trkpt><trkpt lat="45.7681742" lon="8.7501418"><ele>311.0</ele><time>2026-05-01T09:22:44.525Z</time></trkpt><trkpt lat="45.768101" lon="8.7501591"><ele>311.0</ele><time>2026-05-01T09:22:45.524Z</time></trkpt><trkpt lat="45.76803" lon="8.7501811"><ele>311.0</ele><time>2026-05-01T09:22:46.524Z</time></trkpt><trkpt lat="45.7679631" lon="8.7502221"><ele>311.0</ele><time>2026-05-01T09:22:47.524Z</time></trkpt><trkpt lat="45.7678931" lon="8.7502435"><ele>311.0</ele><time>2026-05-01T09:22:48.524Z</time></trkpt><trkpt lat="45.7678251" lon="8.7502439"><ele>311.0</ele><time>2026-05-01T09:22:49.523Z</time></trkpt><trkpt lat="45.7677619" lon="8.750237"><ele>311.0</ele><time>2026-05-01T09:22:50.523Z</time></trkpt><trkpt lat="45.7676493" lon="8.7502262"><ele>309.6</ele><time>2026-05-01T09:22:52.523Z</time></trkpt><trkpt lat="45.7675434" lon="8.7502215"><ele>308.20000000000005</ele><time>2026-05-01T09:22:54.524Z</time></trkpt><trkpt lat="45.767435" lon="8.7502661"><ele>306.79999999999995</ele><time>2026-05-01T09:22:56.525Z</time></trkpt><trkpt lat="45.7673216" lon="8.7503281"><ele>305.4</ele><time>2026-05-01T09:22:58.524Z</time></trkpt><trkpt lat="45.7672599" lon="8.7503563"><ele>304.0</ele><time>2026-05-01T09:22:59.523Z</time></trkpt><trkpt lat="45.7671831" lon="8.7503866"><ele>304.0</ele><time>2026-05-01T09:23:00.523Z</time></trkpt><trkpt lat="45.7670952" lon="8.7504227"><ele>304.0</ele><time>2026-05-01T09:23:01.524Z</time></trkpt><trkpt lat="45.7670024" lon="8.7504544"><ele>304.0</ele><time>2026-05-01T09:23:02.524Z</time></trkpt><trkpt lat="45.7669075" lon="8.7504849"><ele>304.0</ele><time>2026-05-01T09:23:03.523Z</time></trkpt><trkpt lat="45.7668162" lon="8.7505045"><ele>304.0</ele><time>2026-05-01T09:23:04.524Z</time></trkpt><trkpt lat="45.7667345" lon="8.7505155"><ele>305.0</ele><time>2026-05-01T09:23:05.524Z</time></trkpt><trkpt lat="45.766665" lon="8.7505167"><ele>306.0</ele><time>2026-05-01T09:23:06.523Z</time></trkpt><trkpt lat="45.7666009" lon="8.7505501"><ele>307.0</ele><time>2026-05-01T09:23:08.524Z</time></trkpt><trkpt lat="45.7665392" lon="8.7505864"><ele>308.0</ele><time>2026-05-01T09:23:17.524Z</time></trkpt><trkpt lat="45.7664883" lon="8.7506911"><ele>309.0</ele><time>2026-05-01T09:23:27.525Z</time></trkpt><trkpt lat="45.766439" lon="8.7507726"><ele>310.0</ele><time>2026-05-01T09:23:28.524Z</time></trkpt><trkpt lat="45.7663759" lon="8.7508749"><ele>310.0</ele><time>2026-05-01T09:23:29.524Z</time></trkpt><trkpt lat="45.766309" lon="8.7509763"><ele>310.0</ele><time>2026-05-01T09:23:30.524Z</time></trkpt><trkpt lat="45.7662358" lon="8.7510551"><ele>310.0</ele><time>2026-05-01T09:23:31.523Z</time></trkpt><trkpt lat="45.7661673" lon="8.7511335"><ele>310.0</ele><time>2026-05-01T09:23:32.524Z</time></trkpt><trkpt lat="45.7660976" lon="8.7511951"><ele>310.0</ele><time>2026-05-01T09:23:33.523Z</time></trkpt><trkpt lat="45.7660225" lon="8.7512453"><ele>310.0</ele><time>2026-05-01T09:23:34.524Z</time></trkpt><trkpt lat="45.7659506" lon="8.751283"><ele>309.66666666666663</ele><time>2026-05-01T09:23:35.524Z</time></trkpt><trkpt lat="45.765884" lon="8.7513304"><ele>309.3333333333333</ele><time>2026-05-01T09:23:36.524Z</time></trkpt><trkpt lat="45.7658183" lon="8.7513925"><ele>309.0</ele><time>2026-05-01T09:23:37.524Z</time></trkpt><trkpt lat="45.7657527" lon="8.7514666"><ele>308.6666666666667</ele><time>2026-05-01T09:23:38.524Z</time></trkpt><trkpt lat="45.7656913" lon="8.7515507"><ele>308.33333333333337</ele><time>2026-05-01T09:23:39.523Z</time></trkpt><trkpt lat="45.7656289" lon="8.7516302"><ele>308.0</ele><time>2026-05-01T09:23:40.524Z</time></trkpt><trkpt lat="45.7655728" lon="8.7517149"><ele>308.0</ele><time>2026-05-01T09:23:41.523Z</time></trkpt><trkpt lat="45.7655107" lon="8.7517846"><ele>308.0</ele><time>2026-05-01T09:23:42.524Z</time></trkpt><trkpt lat="45.7654442" lon="8.7518298"><ele>308.0</ele><time>2026-05-01T09:23:43.524Z</time></trkpt><trkpt lat="45.7653754" lon="8.7518547"><ele>308.0</ele><time>2026-05-01T09:23:44.524Z</time></trkpt><trkpt lat="45.7653016" lon="8.7518668"><ele>308.0</ele><time>2026-05-01T09:23:45.524Z</time></trkpt><trkpt lat="45.7652309" lon="8.7518504"><ele>308.0</ele><time>2026-05-01T09:23:46.524Z</time></trkpt><trkpt lat="45.7651576" lon="8.7518142"><ele>308.0</ele><time>2026-05-01T09:23:47.525Z</time></trkpt><trkpt lat="45.7650882" lon="8.7517777"><ele>308.14285714285717</ele><time>2026-05-01T09:23:48.524Z</time></trkpt><trkpt lat="45.7650216" lon="8.7517395"><ele>308.2857142857143</ele><time>2026-05-01T09:23:49.524Z</time></trkpt><trkpt lat="45.7649544" lon="8.7517044"><ele>308.42857142857144</ele><time>2026-05-01T09:23:50.524Z</time></trkpt><trkpt lat="45.76489" lon="8.7516652"><ele>308.57142857142856</ele><time>2026-05-01T09:23:51.523Z</time></trkpt><trkpt lat="45.7648251" lon="8.7516248"><ele>308.7142857142857</ele><time>2026-05-01T09:23:52.524Z</time></trkpt><trkpt lat="45.7647605" lon="8.7515831"><ele>308.8571428571429</ele><time>2026-05-01T09:23:53.524Z</time></trkpt><trkpt lat="45.7646924" lon="8.7515405"><ele>309.0</ele><time>2026-05-01T09:23:54.523Z</time></trkpt><trkpt lat="45.7646273" lon="8.7514955"><ele>309.00000000000006</ele><time>2026-05-01T09:23:55.524Z</time></trkpt><trkpt lat="45.7645684" lon="8.7514404"><ele>309.0</ele><time>2026-05-01T09:23:56.523Z</time></trkpt><trkpt lat="45.7645157" lon="8.7513795"><ele>309.0</ele><time>2026-05-01T09:23:57.523Z</time></trkpt><trkpt lat="45.7644687" lon="8.7513049"><ele>309.0</ele><time>2026-05-01T09:23:58.523Z</time></trkpt><trkpt lat="45.7644148" lon="8.7512359"><ele>309.0</ele><time>2026-05-01T09:23:59.524Z</time></trkpt><trkpt lat="45.7643584" lon="8.7511615"><ele>309.00000000000006</ele><time>2026-05-01T09:24:00.524Z</time></trkpt><trkpt lat="45.7642994" lon="8.7510839"><ele>309.0</ele><time>2026-05-01T09:24:01.523Z</time></trkpt><trkpt lat="45.7642416" lon="8.7510037"><ele>307.5</ele><time>2026-05-01T09:24:02.524Z</time></trkpt><trkpt lat="45.7641802" lon="8.7509291"><ele>306.0</ele><time>2026-05-01T09:24:03.524Z</time></trkpt><trkpt lat="45.7641234" lon="8.7508549"><ele>304.5</ele><time>2026-05-01T09:24:04.523Z</time></trkpt><trkpt lat="45.7640655" lon="8.7507819"><ele>303.0</ele><time>2026-05-01T09:24:05.523Z</time></trkpt><trkpt lat="45.7640092" lon="8.75071"><ele>301.5</ele><time>2026-05-01T09:24:06.523Z</time></trkpt><trkpt lat="45.763953" lon="8.7506359"><ele>300.0</ele><time>2026-05-01T09:24:07.524Z</time></trkpt><trkpt lat="45.7638993" lon="8.7505649"><ele>299.99999999999994</ele><time>2026-05-01T09:24:08.524Z</time></trkpt><trkpt lat="45.7638464" lon="8.7504894"><ele>300.0</ele><time>2026-05-01T09:24:09.523Z</time></trkpt><trkpt lat="45.7637913" lon="8.7504211"><ele>300.0</ele><time>2026-05-01T09:24:10.524Z</time></trkpt><trkpt lat="45.7637381" lon="8.7503541"><ele>300.0</ele><time>2026-05-01T09:24:11.523Z</time></trkpt><trkpt lat="45.7636841" lon="8.7502917"><ele>300.0</ele><time>2026-05-01T09:24:12.523Z</time></trkpt><trkpt lat="45.7636293" lon="8.7502318"><ele>299.99999999999994</ele><time>2026-05-01T09:24:13.524Z</time></trkpt><trkpt lat="45.7635799" lon="8.7501725"><ele>300.0</ele><time>2026-05-01T09:24:14.524Z</time></trkpt><trkpt lat="45.7635323" lon="8.7501099"><ele>298.75</ele><time>2026-05-01T09:24:15.524Z</time></trkpt><trkpt lat="45.7634406" lon="8.7499915"><ele>297.5</ele><time>2026-05-01T09:24:17.524Z</time></trkpt><trkpt lat="45.7633531" lon="8.7498743"><ele>296.25</ele><time>2026-05-01T09:24:19.523Z</time></trkpt><trkpt lat="45.7632562" lon="8.7497558"><ele>295.0</ele><time>2026-05-01T09:24:21.524Z</time></trkpt><trkpt lat="45.7631586" lon="8.749639"><ele>295.00000000000006</ele><time>2026-05-01T09:24:23.524Z</time></trkpt><trkpt lat="45.7631089" lon="8.7495729"><ele>295.0</ele><time>2026-05-01T09:24:24.524Z</time></trkpt><trkpt lat="45.763059" lon="8.7495084"><ele>295.0</ele><time>2026-05-01T09:24:25.524Z</time></trkpt><trkpt lat="45.7630115" lon="8.7494459"><ele>295.0</ele><time>2026-05-01T09:24:26.524Z</time></trkpt><trkpt lat="45.7629624" lon="8.7493855"><ele>295.0</ele><time>2026-05-01T09:24:27.525Z</time></trkpt><trkpt lat="45.762913" lon="8.7493205"><ele>295.00000000000006</ele><time>2026-05-01T09:24:28.523Z</time></trkpt><trkpt lat="45.7628635" lon="8.7492549"><ele>295.0</ele><time>2026-05-01T09:24:29.523Z</time></trkpt><trkpt lat="45.7628138" lon="8.7491891"><ele>295.42857142857144</ele><time>2026-05-01T09:24:30.524Z</time></trkpt><trkpt lat="45.7627558" lon="8.7491258"><ele>295.8571428571429</ele><time>2026-05-01T09:24:31.524Z</time></trkpt><trkpt lat="45.7627017" lon="8.7490587"><ele>296.2857142857143</ele><time>2026-05-01T09:24:32.524Z</time></trkpt><trkpt lat="45.762648" lon="8.7489902"><ele>296.7142857142857</ele><time>2026-05-01T09:24:33.524Z</time></trkpt><trkpt lat="45.7625975" lon="8.7489222"><ele>297.1428571428571</ele><time>2026-05-01T09:24:34.524Z</time></trkpt><trkpt lat="45.7625465" lon="8.7488546"><ele>297.57142857142856</ele><time>2026-05-01T09:24:35.524Z</time></trkpt><trkpt lat="45.7624952" lon="8.7487893"><ele>298.0</ele><time>2026-05-01T09:24:36.524Z</time></trkpt><trkpt lat="45.7624182" lon="8.7486725"><ele>298.0</ele><time>2026-05-01T09:24:38.525Z</time></trkpt><trkpt lat="45.7623702" lon="8.7486036"><ele>298.0</ele><time>2026-05-01T09:24:40.524Z</time></trkpt><trkpt lat="45.7623107" lon="8.7485602"><ele>298.0</ele><time>2026-05-01T09:24:42.523Z</time></trkpt><trkpt lat="45.7621782" lon="8.7485941"><ele>298.0</ele><time>2026-05-01T09:24:44.524Z</time></trkpt><trkpt lat="45.7620955" lon="8.748628"><ele>298.0</ele><time>2026-05-01T09:24:45.525Z</time></trkpt><trkpt lat="45.7620057" lon="8.7486663"><ele>298.0</ele><time>2026-05-01T09:24:46.524Z</time></trkpt><trkpt lat="45.761909" lon="8.7487083"><ele>297.8</ele><time>2026-05-01T09:24:47.524Z</time></trkpt><trkpt lat="45.7618091" lon="8.7487525"><ele>297.6</ele><time>2026-05-01T09:24:48.523Z</time></trkpt><trkpt lat="45.7617045" lon="8.7487963"><ele>297.4</ele><time>2026-05-01T09:24:49.525Z</time></trkpt><trkpt lat="45.7615986" lon="8.7488397"><ele>297.2</ele><time>2026-05-01T09:24:50.523Z</time></trkpt><trkpt lat="45.7614922" lon="8.7488853"><ele>297.0</ele><time>2026-05-01T09:24:51.524Z</time></trkpt><trkpt lat="45.7613804" lon="8.7489341"><ele>297.0</ele><time>2026-05-01T09:24:52.523Z</time></trkpt><trkpt lat="45.7612632" lon="8.748983"><ele>297.0</ele><time>2026-05-01T09:24:53.525Z</time></trkpt><trkpt lat="45.7611461" lon="8.7490332"><ele>297.0</ele><time>2026-05-01T09:24:54.524Z</time></trkpt><trkpt lat="45.7610293" lon="8.7490825"><ele>297.0</ele><time>2026-05-01T09:24:55.523Z</time></trkpt><trkpt lat="45.7609139" lon="8.749127"><ele>297.0</ele><time>2026-05-01T09:24:56.524Z</time></trkpt><trkpt lat="45.7607987" lon="8.7491747"><ele>297.0</ele><time>2026-05-01T09:24:57.524Z</time></trkpt><trkpt lat="45.7606831" lon="8.7492197"><ele>297.0</ele><time>2026-05-01T09:24:58.524Z</time></trkpt><trkpt lat="45.7605674" lon="8.7492617"><ele>297.0</ele><time>2026-05-01T09:24:59.524Z</time></trkpt><trkpt lat="45.7604514" lon="8.7493055"><ele>297.0</ele><time>2026-05-01T09:25:00.524Z</time></trkpt><trkpt lat="45.7603352" lon="8.7493481"><ele>297.0</ele><time>2026-05-01T09:25:01.525Z</time></trkpt><trkpt lat="45.7602176" lon="8.7493919"><ele>297.0</ele><time>2026-05-01T09:25:02.523Z</time></trkpt><trkpt lat="45.760101" lon="8.749432"><ele>297.0</ele><time>2026-05-01T09:25:03.523Z</time></trkpt><trkpt lat="45.7599898" lon="8.7494628"><ele>296.0</ele><time>2026-05-01T09:25:04.524Z</time></trkpt><trkpt lat="45.7598827" lon="8.7494751"><ele>295.0</ele><time>2026-05-01T09:25:05.524Z</time></trkpt><trkpt lat="45.7597824" lon="8.749474"><ele>294.0</ele><time>2026-05-01T09:25:06.523Z</time></trkpt><trkpt lat="45.759695" lon="8.74947"><ele>293.0</ele><time>2026-05-01T09:25:07.524Z</time></trkpt><trkpt lat="45.7596279" lon="8.7494595"><ele>292.0</ele><time>2026-05-01T09:25:08.524Z</time></trkpt><trkpt lat="45.7595572" lon="8.7494483"><ele>291.0</ele><time>2026-05-01T09:25:10.525Z</time></trkpt><trkpt lat="45.7595111" lon="8.749528"><ele>291.0</ele><time>2026-05-01T09:25:16.524Z</time></trkpt><trkpt lat="45.7595001" lon="8.7496174"><ele>291.0</ele><time>2026-05-01T09:25:17.523Z</time></trkpt><trkpt lat="45.7594911" lon="8.749721"><ele>291.0</ele><time>2026-05-01T09:25:18.524Z</time></trkpt><trkpt lat="45.7594497" lon="8.7498074"><ele>291.0</ele><time>2026-05-01T09:25:20.523Z</time></trkpt><trkpt lat="45.7593665" lon="8.7497441"><ele>291.0</ele><time>2026-05-01T09:25:24.523Z</time></trkpt><trkpt lat="45.7593165" lon="8.7495826"><ele>291.0</ele><time>2026-05-01T09:25:26.524Z</time></trkpt><trkpt lat="45.7592733" lon="8.7494505"><ele>294.5</ele><time>2026-05-01T09:25:27.523Z</time></trkpt><trkpt lat="45.7592278" lon="8.7492736"><ele>298.0</ele><time>2026-05-01T09:25:28.523Z</time></trkpt><trkpt lat="45.7591548" lon="8.7491321"><ele>301.5</ele><time>2026-05-01T09:25:29.524Z</time></trkpt><trkpt lat="45.7590536" lon="8.749019"><ele>305.0</ele><time>2026-05-01T09:25:30.525Z</time></trkpt><trkpt lat="45.7589786" lon="8.7489106"><ele>305.0</ele><time>2026-05-01T09:25:31.524Z</time></trkpt><trkpt lat="45.7589187" lon="8.748827"><ele>305.0</ele><time>2026-05-01T09:25:32.525Z</time></trkpt><trkpt lat="45.7588487" lon="8.7487432"><ele>305.0</ele><time>2026-05-01T09:25:33.523Z</time></trkpt><trkpt lat="45.758784" lon="8.7486953"><ele>305.0</ele><time>2026-05-01T09:25:34.523Z</time></trkpt><trkpt lat="45.7587043" lon="8.7486444"><ele>305.0</ele><time>2026-05-01T09:25:35.524Z</time></trkpt><trkpt lat="45.7586131" lon="8.7486413"><ele>305.0</ele><time>2026-05-01T09:25:36.524Z</time></trkpt><trkpt lat="45.7585248" lon="8.7486361"><ele>305.33333333333337</ele><time>2026-05-01T09:25:37.525Z</time></trkpt><trkpt lat="45.7584453" lon="8.7486137"><ele>305.6666666666667</ele><time>2026-05-01T09:25:38.525Z</time></trkpt><trkpt lat="45.7583638" lon="8.7485872"><ele>306.0</ele><time>2026-05-01T09:25:39.524Z</time></trkpt><trkpt lat="45.7582842" lon="8.7485691"><ele>306.3333333333333</ele><time>2026-05-01T09:25:40.523Z</time></trkpt><trkpt lat="45.7582023" lon="8.7485604"><ele>306.66666666666663</ele><time>2026-05-01T09:25:41.524Z</time></trkpt><trkpt lat="45.7581213" lon="8.7485436"><ele>307.0</ele><time>2026-05-01T09:25:42.524Z</time></trkpt><trkpt lat="45.7580539" lon="8.7485168"><ele>307.0</ele><time>2026-05-01T09:25:43.524Z</time></trkpt><trkpt lat="45.7579561" lon="8.7485365"><ele>307.0</ele><time>2026-05-01T09:25:45.524Z</time></trkpt><trkpt lat="45.7579196" lon="8.7486116"><ele>307.0</ele><time>2026-05-01T09:25:46.524Z</time></trkpt><trkpt lat="45.757884" lon="8.7487187"><ele>307.0</ele><time>2026-05-01T09:25:47.523Z</time></trkpt><trkpt lat="45.7578383" lon="8.7488523"><ele>307.0</ele><time>2026-05-01T09:25:48.525Z</time></trkpt><trkpt lat="45.7577964" lon="8.7489823"><ele>307.0</ele><time>2026-05-01T09:25:49.523Z</time></trkpt><trkpt lat="45.7577614" lon="8.7491184"><ele>306.4</ele><time>2026-05-01T09:25:50.523Z</time></trkpt><trkpt lat="45.7577175" lon="8.7492671"><ele>305.79999999999995</ele><time>2026-05-01T09:25:51.523Z</time></trkpt><trkpt lat="45.7576704" lon="8.7494022"><ele>305.2</ele><time>2026-05-01T09:25:52.524Z</time></trkpt><trkpt lat="45.7576178" lon="8.7495253"><ele>304.59999999999997</ele><time>2026-05-01T09:25:53.524Z</time></trkpt><trkpt lat="45.7575553" lon="8.7496442"><ele>304.0</ele><time>2026-05-01T09:25:54.524Z</time></trkpt><trkpt lat="45.7574956" lon="8.7497589"><ele>304.0</ele><time>2026-05-01T09:25:55.525Z</time></trkpt><trkpt lat="45.7574377" lon="8.7498673"><ele>304.0</ele><time>2026-05-01T09:25:56.523Z</time></trkpt><trkpt lat="45.7573915" lon="8.7499678"><ele>304.0</ele><time>2026-05-01T09:25:57.523Z</time></trkpt><trkpt lat="45.757361" lon="8.7500706"><ele>304.0</ele><time>2026-05-01T09:25:58.524Z</time></trkpt><trkpt lat="45.7573453" lon="8.7501771"><ele>304.0</ele><time>2026-05-01T09:25:59.524Z</time></trkpt><trkpt lat="45.757333" lon="8.7502802"><ele>304.0</ele><time>2026-05-01T09:26:00.523Z</time></trkpt><trkpt lat="45.7572996" lon="8.7503696"><ele>304.0</ele><time>2026-05-01T09:26:01.524Z</time></trkpt><trkpt lat="45.75725" lon="8.750429"><ele>304.0</ele><time>2026-05-01T09:26:02.523Z</time></trkpt><trkpt lat="45.7571877" lon="8.7504561"><ele>304.0</ele><time>2026-05-01T09:26:03.523Z</time></trkpt><trkpt lat="45.7571073" lon="8.7504804"><ele>304.0</ele><time>2026-05-01T09:26:04.524Z</time></trkpt><trkpt lat="45.7570119" lon="8.7505021"><ele>304.0</ele><time>2026-05-01T09:26:05.524Z</time></trkpt><trkpt lat="45.7569052" lon="8.7505116"><ele>304.0</ele><time>2026-05-01T09:26:06.524Z</time></trkpt><trkpt lat="45.7567936" lon="8.7505198"><ele>302.2</ele><time>2026-05-01T09:26:07.523Z</time></trkpt><trkpt lat="45.756692" lon="8.7505342"><ele>300.4</ele><time>2026-05-01T09:26:08.524Z</time></trkpt><trkpt lat="45.756586" lon="8.7505605"><ele>298.6</ele><time>2026-05-01T09:26:09.524Z</time></trkpt><trkpt lat="45.7564769" lon="8.7505807"><ele>296.8</ele><time>2026-05-01T09:26:10.523Z</time></trkpt><trkpt lat="45.7563705" lon="8.7505899"><ele>295.0</ele><time>2026-05-01T09:26:11.524Z</time></trkpt><trkpt lat="45.7562667" lon="8.7505783"><ele>295.0</ele><time>2026-05-01T09:26:12.525Z</time></trkpt><trkpt lat="45.7561587" lon="8.7505492"><ele>295.0</ele><time>2026-05-01T09:26:13.524Z</time></trkpt><trkpt lat="45.7560489" lon="8.7505107"><ele>295.0</ele><time>2026-05-01T09:26:14.524Z</time></trkpt><trkpt lat="45.7559311" lon="8.7504644"><ele>295.0</ele><time>2026-05-01T09:26:15.525Z</time></trkpt><trkpt lat="45.7558096" lon="8.7504281"><ele>295.0</ele><time>2026-05-01T09:26:16.524Z</time></trkpt><trkpt lat="45.7556866" lon="8.7503993"><ele>295.0</ele><time>2026-05-01T09:26:17.523Z</time></trkpt><trkpt lat="45.7555634" lon="8.7503706"><ele>295.0</ele><time>2026-05-01T09:26:18.523Z</time></trkpt><trkpt lat="45.7554511" lon="8.7503593"><ele>295.0</ele><time>2026-05-01T09:26:19.523Z</time></trkpt><trkpt lat="45.7553318" lon="8.7503376"><ele>295.0</ele><time>2026-05-01T09:26:20.524Z</time></trkpt><trkpt lat="45.7552194" lon="8.7503259"><ele>295.0</ele><time>2026-05-01T09:26:21.524Z</time></trkpt><trkpt lat="45.7551044" lon="8.7503123"><ele>295.0</ele><time>2026-05-01T09:26:22.524Z</time></trkpt><trkpt lat="45.7549989" lon="8.7503035"><ele>295.0</ele><time>2026-05-01T09:26:23.523Z</time></trkpt><trkpt lat="45.7549015" lon="8.7502876"><ele>295.0</ele><time>2026-05-01T09:26:24.524Z</time></trkpt><trkpt lat="45.754831" lon="8.7502753"><ele>296.2</ele><time>2026-05-01T09:26:25.524Z</time></trkpt><trkpt lat="45.7547738" lon="8.7503386"><ele>297.4</ele><time>2026-05-01T09:26:28.525Z</time></trkpt><trkpt lat="45.7547049" lon="8.750452"><ele>298.6</ele><time>2026-05-01T09:26:30.524Z</time></trkpt><trkpt lat="45.7546252" lon="8.7505446"><ele>299.8</ele><time>2026-05-01T09:26:31.524Z</time></trkpt><trkpt lat="45.7545224" lon="8.7506495"><ele>301.0</ele><time>2026-05-01T09:26:32.523Z</time></trkpt><trkpt lat="45.754403" lon="8.7507685"><ele>301.75</ele><time>2026-05-01T09:26:33.524Z</time></trkpt><trkpt lat="45.7543065" lon="8.7508837"><ele>302.5</ele><time>2026-05-01T09:26:34.523Z</time></trkpt><trkpt lat="45.7542295" lon="8.7510066"><ele>303.25</ele><time>2026-05-01T09:26:35.523Z</time></trkpt><trkpt lat="45.7541708" lon="8.7511332"><ele>304.0</ele><time>2026-05-01T09:26:36.524Z</time></trkpt><trkpt lat="45.7541145" lon="8.7512912"><ele>304.0</ele><time>2026-05-01T09:26:37.524Z</time></trkpt><trkpt lat="45.7540825" lon="8.7514338"><ele>304.0</ele><time>2026-05-01T09:26:38.524Z</time></trkpt><trkpt lat="45.7540536" lon="8.7515957"><ele>304.0</ele><time>2026-05-01T09:26:39.524Z</time></trkpt><trkpt lat="45.7540053" lon="8.7517723"><ele>304.0</ele><time>2026-05-01T09:26:40.523Z</time></trkpt><trkpt lat="45.7539562" lon="8.7519669"><ele>301.3333333333333</ele><time>2026-05-01T09:26:41.524Z</time></trkpt><trkpt lat="45.7539035" lon="8.752177"><ele>298.6666666666667</ele><time>2026-05-01T09:26:42.524Z</time></trkpt><trkpt lat="45.7538471" lon="8.7523737"><ele>296.0</ele><time>2026-05-01T09:26:43.523Z</time></trkpt><trkpt lat="45.7537976" lon="8.7525846"><ele>296.0</ele><time>2026-05-01T09:26:44.524Z</time></trkpt><trkpt lat="45.7537533" lon="8.7527819"><ele>296.0</ele><time>2026-05-01T09:26:45.524Z</time></trkpt><trkpt lat="45.7537204" lon="8.753011"><ele>296.0</ele><time>2026-05-01T09:26:46.524Z</time></trkpt><trkpt lat="45.7536878" lon="8.7532331"><ele>296.0</ele><time>2026-05-01T09:26:47.524Z</time></trkpt><trkpt lat="45.7536816" lon="8.7534508"><ele>296.0</ele><time>2026-05-01T09:26:48.525Z</time></trkpt><trkpt lat="45.7536679" lon="8.7536448"><ele>296.0</ele><time>2026-05-01T09:26:49.523Z</time></trkpt><trkpt lat="45.7536455" lon="8.7537785"><ele>296.0</ele><time>2026-05-01T09:26:50.524Z</time></trkpt><trkpt lat="45.7536065" lon="8.7539018"><ele>296.1666666666667</ele><time>2026-05-01T09:26:51.523Z</time></trkpt><trkpt lat="45.7535657" lon="8.7539964"><ele>296.33333333333337</ele><time>2026-05-01T09:26:52.524Z</time></trkpt><trkpt lat="45.7535295" lon="8.7540747"><ele>296.5</ele><time>2026-05-01T09:26:53.524Z</time></trkpt><trkpt lat="45.7534776" lon="8.7541732"><ele>296.6666666666667</ele><time>2026-05-01T09:26:55.524Z</time></trkpt><trkpt lat="45.7534186" lon="8.7542344"><ele>296.8333333333333</ele><time>2026-05-01T09:27:00.524Z</time></trkpt><trkpt lat="45.7533644" lon="8.7543721"><ele>297.0</ele><time>2026-05-01T09:27:02.524Z</time></trkpt><trkpt lat="45.7533696" lon="8.7544906"><ele>299.0</ele><time>2026-05-01T09:27:03.524Z</time></trkpt><trkpt lat="45.7533838" lon="8.7546505"><ele>301.0</ele><time>2026-05-01T09:27:04.523Z</time></trkpt><trkpt lat="45.7533956" lon="8.7548263"><ele>303.0</ele><time>2026-05-01T09:27:05.524Z</time></trkpt><trkpt lat="45.7534219" lon="8.755026"><ele>305.0</ele><time>2026-05-01T09:27:06.525Z</time></trkpt><trkpt lat="45.7534497" lon="8.7552153"><ele>303.75</ele><time>2026-05-01T09:27:07.524Z</time></trkpt><trkpt lat="45.7534849" lon="8.7553743"><ele>302.5</ele><time>2026-05-01T09:27:08.524Z</time></trkpt><trkpt lat="45.753524" lon="8.7555411"><ele>301.25</ele><time>2026-05-01T09:27:09.525Z</time></trkpt><trkpt lat="45.7535541" lon="8.7557038"><ele>300.0</ele><time>2026-05-01T09:27:10.523Z</time></trkpt><trkpt lat="45.7535697" lon="8.7558559"><ele>300.0</ele><time>2026-05-01T09:27:11.524Z</time></trkpt><trkpt lat="45.7535674" lon="8.7559936"><ele>300.0</ele><time>2026-05-01T09:27:12.524Z</time></trkpt><trkpt lat="45.7535566" lon="8.7561127"><ele>300.0</ele><time>2026-05-01T09:27:13.524Z</time></trkpt><trkpt lat="45.7535233" lon="8.7562131"><ele>300.0</ele><time>2026-05-01T09:27:14.524Z</time></trkpt><trkpt lat="45.7534924" lon="8.7563002"><ele>300.0</ele><time>2026-05-01T09:27:15.524Z</time></trkpt><trkpt lat="45.753461" lon="8.7563861"><ele>300.0</ele><time>2026-05-01T09:27:16.523Z</time></trkpt><trkpt lat="45.7534309" lon="8.7564663"><ele>303.4</ele><time>2026-05-01T09:27:17.524Z</time></trkpt><trkpt lat="45.7534096" lon="8.7565925"><ele>306.8</ele><time>2026-05-01T09:27:18.524Z</time></trkpt><trkpt lat="45.7533785" lon="8.7567044"><ele>310.2</ele><time>2026-05-01T09:27:19.524Z</time></trkpt><trkpt lat="45.7533471" lon="8.7568234"><ele>313.6</ele><time>2026-05-01T09:27:20.524Z</time></trkpt><trkpt lat="45.753302" lon="8.7569486"><ele>317.0</ele><time>2026-05-01T09:27:21.525Z</time></trkpt><trkpt lat="45.7532513" lon="8.7571009"><ele>318.2</ele><time>2026-05-01T09:27:23.524Z</time></trkpt><trkpt lat="45.7532247" lon="8.7572724"><ele>319.4</ele><time>2026-05-01T09:27:25.524Z</time></trkpt><trkpt lat="45.7531974" lon="8.757382"><ele>320.59999999999997</ele><time>2026-05-01T09:27:26.524Z</time></trkpt><trkpt lat="45.7531806" lon="8.7574983"><ele>321.79999999999995</ele><time>2026-05-01T09:27:27.525Z</time></trkpt><trkpt lat="45.7531707" lon="8.7576103"><ele>323.0</ele><time>2026-05-01T09:27:28.524Z</time></trkpt><trkpt lat="45.7531614" lon="8.757735"><ele>324.5</ele><time>2026-05-01T09:27:29.524Z</time></trkpt><trkpt lat="45.7531408" lon="8.7578411"><ele>326.0</ele><time>2026-05-01T09:27:30.523Z</time></trkpt><trkpt lat="45.7531243" lon="8.7579299"><ele>327.5</ele><time>2026-05-01T09:27:31.523Z</time></trkpt><trkpt lat="45.7531124" lon="8.7580241"><ele>329.0</ele><time>2026-05-01T09:27:32.523Z</time></trkpt><trkpt lat="45.7531245" lon="8.758189"><ele>330.5</ele><time>2026-05-01T09:27:34.525Z</time></trkpt><trkpt lat="45.7531561" lon="8.7582772"><ele>332.0</ele><time>2026-05-01T09:27:35.524Z</time></trkpt><trkpt lat="45.7532045" lon="8.7583569"><ele>332.0</ele><time>2026-05-01T09:27:36.524Z</time></trkpt><trkpt lat="45.7532491" lon="8.7584326"><ele>332.0</ele><time>2026-05-01T09:27:37.524Z</time></trkpt><trkpt lat="45.753308" lon="8.7585711"><ele>332.0</ele><time>2026-05-01T09:27:39.524Z</time></trkpt><trkpt lat="45.7533564" lon="8.7587183"><ele>332.0</ele><time>2026-05-01T09:27:41.524Z</time></trkpt><trkpt lat="45.7533807" lon="8.7588106"><ele>332.0</ele><time>2026-05-01T09:27:42.524Z</time></trkpt><trkpt lat="45.7533941" lon="8.7589806"><ele>334.20000000000005</ele><time>2026-05-01T09:27:44.524Z</time></trkpt><trkpt lat="45.7534243" lon="8.7591627"><ele>336.4</ele><time>2026-05-01T09:27:46.524Z</time></trkpt><trkpt lat="45.7534512" lon="8.7592618"><ele>338.6</ele><time>2026-05-01T09:27:47.524Z</time></trkpt><trkpt lat="45.7535051" lon="8.759415"><ele>340.79999999999995</ele><time>2026-05-01T09:27:49.524Z</time></trkpt><trkpt lat="45.7535795" lon="8.7595445"><ele>343.0</ele><time>2026-05-01T09:27:51.524Z</time></trkpt><trkpt lat="45.7536299" lon="8.7596037"><ele>343.16666666666663</ele><time>2026-05-01T09:27:52.523Z</time></trkpt><trkpt lat="45.7536831" lon="8.7597787"><ele>343.3333333333333</ele><time>2026-05-01T09:27:54.524Z</time></trkpt><trkpt lat="45.7536908" lon="8.7598912"><ele>343.5</ele><time>2026-05-01T09:27:55.524Z</time></trkpt><trkpt lat="45.7536646" lon="8.7600061"><ele>343.6666666666667</ele><time>2026-05-01T09:27:56.524Z</time></trkpt><trkpt lat="45.7536602" lon="8.7601166"><ele>343.83333333333337</ele><time>2026-05-01T09:27:57.524Z</time></trkpt><trkpt lat="45.753669" lon="8.7602234"><ele>344.0</ele><time>2026-05-01T09:27:58.523Z</time></trkpt><trkpt lat="45.7537457" lon="8.7603657"><ele>344.6666666666667</ele><time>2026-05-01T09:28:00.524Z</time></trkpt><trkpt lat="45.7537908" lon="8.7604554"><ele>345.33333333333337</ele><time>2026-05-01T09:28:01.524Z</time></trkpt><trkpt lat="45.7538226" lon="8.7605546"><ele>346.0</ele><time>2026-05-01T09:28:02.524Z</time></trkpt><trkpt lat="45.753847" lon="8.7606598"><ele>346.6666666666667</ele><time>2026-05-01T09:28:03.524Z</time></trkpt><trkpt lat="45.7538804" lon="8.7607428"><ele>347.3333333333333</ele><time>2026-05-01T09:28:04.523Z</time></trkpt><trkpt lat="45.7539238" lon="8.7608783"><ele>348.0</ele><time>2026-05-01T09:28:06.524Z</time></trkpt><trkpt lat="45.7539336" lon="8.7610208"><ele>348.59999999999997</ele><time>2026-05-01T09:28:08.524Z</time></trkpt><trkpt lat="45.7539036" lon="8.7611641"><ele>349.2</ele><time>2026-05-01T09:28:10.523Z</time></trkpt><trkpt lat="45.7539518" lon="8.7613187"><ele>349.8</ele><time>2026-05-01T09:28:12.524Z</time></trkpt><trkpt lat="45.7540094" lon="8.7614088"><ele>350.4</ele><time>2026-05-01T09:28:13.523Z</time></trkpt><trkpt lat="45.7540369" lon="8.7614953"><ele>351.0</ele><time>2026-05-01T09:28:14.524Z</time></trkpt><trkpt lat="45.7540396" lon="8.7616137"><ele>351.0</ele><time>2026-05-01T09:28:15.524Z</time></trkpt><trkpt lat="45.7540494" lon="8.7617299"><ele>351.0</ele><time>2026-05-01T09:28:16.524Z</time></trkpt><trkpt lat="45.7541131" lon="8.7619256"><ele>351.0</ele><time>2026-05-01T09:28:18.524Z</time></trkpt><trkpt lat="45.7541694" lon="8.7620301"><ele>351.0</ele><time>2026-05-01T09:28:19.524Z</time></trkpt><trkpt lat="45.7542223" lon="8.7621553"><ele>351.0</ele><time>2026-05-01T09:28:20.525Z</time></trkpt><trkpt lat="45.754277" lon="8.7622623"><ele>350.1666666666667</ele><time>2026-05-01T09:28:21.524Z</time></trkpt><trkpt lat="45.754334" lon="8.7623792"><ele>349.3333333333333</ele><time>2026-05-01T09:28:22.524Z</time></trkpt><trkpt lat="45.7543782" lon="8.7624831"><ele>348.5</ele><time>2026-05-01T09:28:23.524Z</time></trkpt><trkpt lat="45.7544422" lon="8.7625971"><ele>347.66666666666663</ele><time>2026-05-01T09:28:24.524Z</time></trkpt><trkpt lat="45.7544519" lon="8.7627028"><ele>346.8333333333333</ele><time>2026-05-01T09:28:25.523Z</time></trkpt><trkpt lat="45.754488" lon="8.7628079"><ele>346.0</ele><time>2026-05-01T09:28:26.524Z</time></trkpt><trkpt lat="45.7545239" lon="8.7629299"><ele>344.4</ele><time>2026-05-01T09:28:28.524Z</time></trkpt><trkpt lat="45.7545272" lon="8.7630249"><ele>342.8</ele><time>2026-05-01T09:28:30.523Z</time></trkpt><trkpt lat="45.7544551" lon="8.7630637"><ele>341.2</ele><time>2026-05-01T09:28:31.524Z</time></trkpt><trkpt lat="45.7543831" lon="8.7632161"><ele>339.59999999999997</ele><time>2026-05-01T09:28:33.524Z</time></trkpt><trkpt lat="45.7543417" lon="8.7633977"><ele>338.0</ele><time>2026-05-01T09:28:35.523Z</time></trkpt><trkpt lat="45.7543422" lon="8.7635462"><ele>337.1666666666667</ele><time>2026-05-01T09:28:36.524Z</time></trkpt><trkpt lat="45.7543519" lon="8.7636928"><ele>336.33333333333337</ele><time>2026-05-01T09:28:37.524Z</time></trkpt><trkpt lat="45.7543413" lon="8.7638402"><ele>335.5</ele><time>2026-05-01T09:28:38.523Z</time></trkpt><trkpt lat="45.7543275" lon="8.7639537"><ele>334.6666666666667</ele><time>2026-05-01T09:28:39.524Z</time></trkpt><trkpt lat="45.7543194" lon="8.7640433"><ele>333.8333333333333</ele><time>2026-05-01T09:28:40.524Z</time></trkpt><trkpt lat="45.7543118" lon="8.7641448"><ele>333.0</ele><time>2026-05-01T09:28:41.523Z</time></trkpt><trkpt lat="45.7542625" lon="8.7642231"><ele>333.0</ele><time>2026-05-01T09:28:42.524Z</time></trkpt><trkpt lat="45.7541744" lon="8.7642384"><ele>333.0</ele><time>2026-05-01T09:28:43.524Z</time></trkpt><trkpt lat="45.7541277" lon="8.7643009"><ele>333.0</ele><time>2026-05-01T09:28:44.524Z</time></trkpt><trkpt lat="45.7540428" lon="8.7642444"><ele>333.0</ele><time>2026-05-01T09:28:45.524Z</time></trkpt><trkpt lat="45.7539743" lon="8.7641946"><ele>333.0</ele><time>2026-05-01T09:28:46.524Z</time></trkpt><trkpt lat="45.7538926" lon="8.7641279"><ele>333.0</ele><time>2026-05-01T09:28:47.523Z</time></trkpt><trkpt lat="45.7537894" lon="8.764029"><ele>333.0</ele><time>2026-05-01T09:28:48.524Z</time></trkpt><trkpt lat="45.7537002" lon="8.7639203"><ele>333.0</ele><time>2026-05-01T09:28:49.524Z</time></trkpt><trkpt lat="45.7536271" lon="8.7638233"><ele>333.0</ele><time>2026-05-01T09:28:50.523Z</time></trkpt><trkpt lat="45.7535589" lon="8.7637201"><ele>333.0</ele><time>2026-05-01T09:28:51.524Z</time></trkpt><trkpt lat="45.7535148" lon="8.7636378"><ele>333.0</ele><time>2026-05-01T09:28:52.524Z</time></trkpt><trkpt lat="45.7534629" lon="8.7635722"><ele>332.4</ele><time>2026-05-01T09:28:53.524Z</time></trkpt><trkpt lat="45.7534101" lon="8.7635012"><ele>331.79999999999995</ele><time>2026-05-01T09:28:54.524Z</time></trkpt><trkpt lat="45.7533618" lon="8.7635698"><ele>331.2</ele><time>2026-05-01T09:28:55.525Z</time></trkpt><trkpt lat="45.7532231" lon="8.7636844"><ele>330.6</ele><time>2026-05-01T09:28:57.524Z</time></trkpt><trkpt lat="45.7531512" lon="8.7637771"><ele>330.0</ele><time>2026-05-01T09:28:58.524Z</time></trkpt><trkpt lat="45.7530888" lon="8.7638824"><ele>328.8</ele><time>2026-05-01T09:28:59.523Z</time></trkpt><trkpt lat="45.7530091" lon="8.7639851"><ele>327.6</ele><time>2026-05-01T09:29:00.524Z</time></trkpt><trkpt lat="45.7529263" lon="8.7640728"><ele>326.4</ele><time>2026-05-01T09:29:01.523Z</time></trkpt><trkpt lat="45.7528547" lon="8.7641569"><ele>325.2</ele><time>2026-05-01T09:29:02.523Z</time></trkpt><trkpt lat="45.7527854" lon="8.7642622"><ele>324.0</ele><time>2026-05-01T09:29:03.524Z</time></trkpt><trkpt lat="45.752727" lon="8.76436"><ele>322.1666666666667</ele><time>2026-05-01T09:29:04.524Z</time></trkpt><trkpt lat="45.7526778" lon="8.7644425"><ele>320.3333333333333</ele><time>2026-05-01T09:29:05.525Z</time></trkpt><trkpt lat="45.7526301" lon="8.7645346"><ele>318.5</ele><time>2026-05-01T09:29:07.524Z</time></trkpt><trkpt lat="45.7525492" lon="8.7645417"><ele>316.66666666666663</ele><time>2026-05-01T09:29:10.524Z</time></trkpt><trkpt lat="45.7524885" lon="8.7646396"><ele>314.8333333333333</ele><time>2026-05-01T09:29:13.523Z</time></trkpt><trkpt lat="45.7525417" lon="8.7647326"><ele>313.0</ele><time>2026-05-01T09:29:15.524Z</time></trkpt><trkpt lat="45.7525332" lon="8.7648827"><ele>313.0</ele><time>2026-05-01T09:29:17.524Z</time></trkpt><trkpt lat="45.7525173" lon="8.7649931"><ele>313.0</ele><time>2026-05-01T09:29:18.524Z</time></trkpt><trkpt lat="45.7524934" lon="8.76515"><ele>313.0</ele><time>2026-05-01T09:29:19.524Z</time></trkpt><trkpt lat="45.7524567" lon="8.7652744"><ele>313.0</ele><time>2026-05-01T09:29:20.524Z</time></trkpt><trkpt lat="45.7524095" lon="8.7653816"><ele>313.0</ele><time>2026-05-01T09:29:21.523Z</time></trkpt><trkpt lat="45.7523526" lon="8.765467"><ele>312.16666666666663</ele><time>2026-05-01T09:29:22.523Z</time></trkpt><trkpt lat="45.7523137" lon="8.7655389"><ele>311.3333333333333</ele><time>2026-05-01T09:29:23.524Z</time></trkpt><trkpt lat="45.7522704" lon="8.7656123"><ele>310.5</ele><time>2026-05-01T09:29:25.523Z</time></trkpt><trkpt lat="45.7523061" lon="8.7656958"><ele>309.6666666666667</ele><time>2026-05-01T09:29:34.524Z</time></trkpt><trkpt lat="45.7523618" lon="8.7657515"><ele>308.83333333333337</ele><time>2026-05-01T09:29:35.524Z</time></trkpt><trkpt lat="45.752452" lon="8.7658479"><ele>308.0</ele><time>2026-05-01T09:29:36.525Z</time></trkpt><trkpt lat="45.7525614" lon="8.7659689"><ele>308.0</ele><time>2026-05-01T09:29:37.524Z</time></trkpt><trkpt lat="45.7526811" lon="8.7660957"><ele>308.0</ele><time>2026-05-01T09:29:38.523Z</time></trkpt><trkpt lat="45.752781" lon="8.7662098"><ele>308.0</ele><time>2026-05-01T09:29:39.524Z</time></trkpt><trkpt lat="45.7528669" lon="8.7662823"><ele>308.0</ele><time>2026-05-01T09:29:40.525Z</time></trkpt><trkpt lat="45.752978" lon="8.7662842"><ele>308.0</ele><time>2026-05-01T09:29:42.524Z</time></trkpt><trkpt lat="45.7531256" lon="8.7660974"><ele>308.0</ele><time>2026-05-01T09:29:44.523Z</time></trkpt><trkpt lat="45.7532184" lon="8.7659632"><ele>308.0</ele><time>2026-05-01T09:29:45.523Z</time></trkpt><trkpt lat="45.7532868" lon="8.7658459"><ele>308.0</ele><time>2026-05-01T09:29:46.524Z</time></trkpt><trkpt lat="45.7533308" lon="8.7657725"><ele>309.8</ele><time>2026-05-01T09:29:47.523Z</time></trkpt><trkpt lat="45.7534433" lon="8.7657734"><ele>311.6</ele><time>2026-05-01T09:29:49.524Z</time></trkpt><trkpt lat="45.7535098" lon="8.7658527"><ele>313.4</ele><time>2026-05-01T09:29:50.524Z</time></trkpt><trkpt lat="45.753583" lon="8.7659417"><ele>315.2</ele><time>2026-05-01T09:29:51.524Z</time></trkpt><trkpt lat="45.7536392" lon="8.7659893"><ele>317.0</ele><time>2026-05-01T09:29:52.525Z</time></trkpt><trkpt lat="45.7537496" lon="8.76599"><ele>318.0</ele><time>2026-05-01T09:29:54.524Z</time></trkpt><trkpt lat="45.7538052" lon="8.765917"><ele>319.0</ele><time>2026-05-01T09:29:55.524Z</time></trkpt><trkpt lat="45.7538629" lon="8.765819"><ele>320.0</ele><time>2026-05-01T09:29:56.524Z</time></trkpt><trkpt lat="45.7539221" lon="8.7656957"><ele>321.0</ele><time>2026-05-01T09:29:57.524Z</time></trkpt><trkpt lat="45.753987" lon="8.7655763"><ele>322.0</ele><time>2026-05-01T09:29:58.525Z</time></trkpt><trkpt lat="45.7540655" lon="8.7654523"><ele>322.0</ele><time>2026-05-01T09:29:59.524Z</time></trkpt><trkpt lat="45.7541438" lon="8.7653315"><ele>322.0</ele><time>2026-05-01T09:30:00.524Z</time></trkpt><trkpt lat="45.7542323" lon="8.76522"><ele>322.0</ele><time>2026-05-01T09:30:01.524Z</time></trkpt><trkpt lat="45.7543072" lon="8.7651199"><ele>322.0</ele><time>2026-05-01T09:30:02.524Z</time></trkpt><trkpt lat="45.7543688" lon="8.7650547"><ele>322.0</ele><time>2026-05-01T09:30:03.523Z</time></trkpt><trkpt lat="45.754493" lon="8.7650273"><ele>323.6</ele><time>2026-05-01T09:30:05.524Z</time></trkpt><trkpt lat="45.754562" lon="8.7650206"><ele>325.20000000000005</ele><time>2026-05-01T09:30:06.525Z</time></trkpt><trkpt lat="45.7546764" lon="8.7649456"><ele>326.8</ele><time>2026-05-01T09:30:08.524Z</time></trkpt><trkpt lat="45.7547346" lon="8.7648197"><ele>328.4</ele><time>2026-05-01T09:30:09.523Z</time></trkpt><trkpt lat="45.7548119" lon="8.7647185"><ele>330.0</ele><time>2026-05-01T09:30:10.523Z</time></trkpt><trkpt lat="45.7548893" lon="8.7646061"><ele>330.0</ele><time>2026-05-01T09:30:11.524Z</time></trkpt><trkpt lat="45.7549346" lon="8.7644931"><ele>330.0</ele><time>2026-05-01T09:30:12.525Z</time></trkpt><trkpt lat="45.7549726" lon="8.7643693"><ele>330.0</ele><time>2026-05-01T09:30:13.524Z</time></trkpt><trkpt lat="45.7550278" lon="8.7642391"><ele>330.0</ele><time>2026-05-01T09:30:14.524Z</time></trkpt><trkpt lat="45.7551139" lon="8.7641256"><ele>330.0</ele><time>2026-05-01T09:30:15.524Z</time></trkpt><trkpt lat="45.7551783" lon="8.7640265"><ele>331.0</ele><time>2026-05-01T09:30:16.524Z</time></trkpt><trkpt lat="45.7552487" lon="8.7639484"><ele>332.0</ele><time>2026-05-01T09:30:18.524Z</time></trkpt><trkpt lat="45.7553269" lon="8.7640349"><ele>333.0</ele><time>2026-05-01T09:30:20.524Z</time></trkpt><trkpt lat="45.7554016" lon="8.7641474"><ele>334.0</ele><time>2026-05-01T09:30:21.525Z</time></trkpt><trkpt lat="45.7554874" lon="8.7642793"><ele>335.0</ele><time>2026-05-01T09:30:22.524Z</time></trkpt><trkpt lat="45.7555789" lon="8.7644481"><ele>335.0</ele><time>2026-05-01T09:30:23.524Z</time></trkpt><trkpt lat="45.7556878" lon="8.7645884"><ele>335.0</ele><time>2026-05-01T09:30:24.523Z</time></trkpt><trkpt lat="45.7557834" lon="8.7647075"><ele>335.0</ele><time>2026-05-01T09:30:25.523Z</time></trkpt><trkpt lat="45.7559181" lon="8.7647959"><ele>335.0</ele><time>2026-05-01T09:30:26.525Z</time></trkpt><trkpt lat="45.7560361" lon="8.7649027"><ele>335.2</ele><time>2026-05-01T09:30:27.524Z</time></trkpt><trkpt lat="45.7561403" lon="8.7650232"><ele>335.4</ele><time>2026-05-01T09:30:28.524Z</time></trkpt><trkpt lat="45.7562269" lon="8.7651209"><ele>335.6</ele><time>2026-05-01T09:30:29.524Z</time></trkpt><trkpt lat="45.7562948" lon="8.7651952"><ele>335.8</ele><time>2026-05-01T09:30:30.524Z</time></trkpt><trkpt lat="45.7562981" lon="8.7653089"><ele>336.0</ele><time>2026-05-01T09:30:31.524Z</time></trkpt><trkpt lat="45.7563143" lon="8.7654271"><ele>336.0</ele><time>2026-05-01T09:30:32.524Z</time></trkpt><trkpt lat="45.7563273" lon="8.7655351"><ele>336.0</ele><time>2026-05-01T09:30:33.523Z</time></trkpt><trkpt lat="45.7563617" lon="8.7656652"><ele>336.0</ele><time>2026-05-01T09:30:35.523Z</time></trkpt><trkpt lat="45.7563731" lon="8.7657846"><ele>336.0</ele><time>2026-05-01T09:30:38.523Z</time></trkpt><trkpt lat="45.7563834" lon="8.7659252"><ele>336.0</ele><time>2026-05-01T09:30:40.524Z</time></trkpt><trkpt lat="45.7563826" lon="8.7660334"><ele>336.0</ele><time>2026-05-01T09:30:41.524Z</time></trkpt><trkpt lat="45.756391" lon="8.766129"><ele>335.7142857142857</ele><time>2026-05-01T09:30:42.524Z</time></trkpt><trkpt lat="45.756412" lon="8.766225"><ele>335.42857142857144</ele><time>2026-05-01T09:30:43.523Z</time></trkpt><trkpt lat="45.7564611" lon="8.7662874"><ele>335.1428571428571</ele><time>2026-05-01T09:30:44.524Z</time></trkpt><trkpt lat="45.756501" lon="8.7663836"><ele>334.8571428571429</ele><time>2026-05-01T09:30:45.524Z</time></trkpt><trkpt lat="45.7565329" lon="8.7664726"><ele>334.57142857142856</ele><time>2026-05-01T09:30:46.523Z</time></trkpt><trkpt lat="45.7565214" lon="8.7665643"><ele>334.2857142857143</ele><time>2026-05-01T09:30:47.524Z</time></trkpt><trkpt lat="45.7564884" lon="8.7666502"><ele>334.0</ele><time>2026-05-01T09:30:48.523Z</time></trkpt><trkpt lat="45.7564355" lon="8.7667323"><ele>334.0</ele><time>2026-05-01T09:30:49.523Z</time></trkpt><trkpt lat="45.7563673" lon="8.7668334"><ele>334.0</ele><time>2026-05-01T09:30:50.523Z</time></trkpt><trkpt lat="45.7563017" lon="8.7669381"><ele>334.0</ele><time>2026-05-01T09:30:51.523Z</time></trkpt><trkpt lat="45.7562417" lon="8.7670223"><ele>334.0</ele><time>2026-05-01T09:30:52.525Z</time></trkpt><trkpt lat="45.7562358" lon="8.7671648"><ele>334.0</ele><time>2026-05-01T09:30:54.524Z</time></trkpt><trkpt lat="45.756286" lon="8.7672557"><ele>332.75</ele><time>2026-05-01T09:30:55.524Z</time></trkpt><trkpt lat="45.756345" lon="8.7673729"><ele>331.5</ele><time>2026-05-01T09:30:56.523Z</time></trkpt><trkpt lat="45.7564148" lon="8.767514"><ele>330.25</ele><time>2026-05-01T09:30:57.524Z</time></trkpt><trkpt lat="45.7564677" lon="8.7676705"><ele>329.0</ele><time>2026-05-01T09:30:58.524Z</time></trkpt><trkpt lat="45.7565106" lon="8.767821"><ele>329.0</ele><time>2026-05-01T09:30:59.524Z</time></trkpt><trkpt lat="45.7565595" lon="8.7679599"><ele>329.0</ele><time>2026-05-01T09:31:00.524Z</time></trkpt><trkpt lat="45.7566263" lon="8.7680797"><ele>329.0</ele><time>2026-05-01T09:31:01.524Z</time></trkpt><trkpt lat="45.7566948" lon="8.7681744"><ele>329.0</ele><time>2026-05-01T09:31:02.524Z</time></trkpt><trkpt lat="45.7567626" lon="8.7682725"><ele>329.0</ele><time>2026-05-01T09:31:03.525Z</time></trkpt><trkpt lat="45.7568345" lon="8.768371"><ele>328.79999999999995</ele><time>2026-05-01T09:31:04.524Z</time></trkpt><trkpt lat="45.7569105" lon="8.7684741"><ele>328.59999999999997</ele><time>2026-05-01T09:31:05.524Z</time></trkpt><trkpt lat="45.7569925" lon="8.7685791"><ele>328.4</ele><time>2026-05-01T09:31:06.524Z</time></trkpt><trkpt lat="45.7570743" lon="8.7686724"><ele>328.2</ele><time>2026-05-01T09:31:07.523Z</time></trkpt><trkpt lat="45.7571537" lon="8.7687585"><ele>328.0</ele><time>2026-05-01T09:31:08.524Z</time></trkpt><trkpt lat="45.7572248" lon="8.7688439"><ele>327.99999999999994</ele><time>2026-05-01T09:31:09.524Z</time></trkpt><trkpt lat="45.7572878" lon="8.7689277"><ele>328.0</ele><time>2026-05-01T09:31:10.523Z</time></trkpt><trkpt lat="45.7573451" lon="8.7689976"><ele>328.0</ele><time>2026-05-01T09:31:11.524Z</time></trkpt><trkpt lat="45.7573944" lon="8.7690708"><ele>328.0</ele><time>2026-05-01T09:31:12.524Z</time></trkpt><trkpt lat="45.7574034" lon="8.7691642"><ele>328.0</ele><time>2026-05-01T09:31:13.523Z</time></trkpt><trkpt lat="45.7573843" lon="8.7692614"><ele>327.99999999999994</ele><time>2026-05-01T09:31:14.524Z</time></trkpt><trkpt lat="45.7573449" lon="8.7693495"><ele>328.0</ele><time>2026-05-01T09:31:15.524Z</time></trkpt><trkpt lat="45.7573186" lon="8.7694343"><ele>327.59999999999997</ele><time>2026-05-01T09:31:16.524Z</time></trkpt><trkpt lat="45.7573442" lon="8.769547"><ele>327.2</ele><time>2026-05-01T09:31:18.524Z</time></trkpt><trkpt lat="45.7574299" lon="8.7695614"><ele>326.8</ele><time>2026-05-01T09:31:20.524Z</time></trkpt><trkpt lat="45.7575008" lon="8.7695794"><ele>326.4</ele><time>2026-05-01T09:31:21.524Z</time></trkpt><trkpt lat="45.7576023" lon="8.769608"><ele>326.0</ele><time>2026-05-01T09:31:22.524Z</time></trkpt><trkpt lat="45.7577128" lon="8.7696373"><ele>326.0</ele><time>2026-05-01T09:31:23.524Z</time></trkpt><trkpt lat="45.7578284" lon="8.7696692"><ele>326.0</ele><time>2026-05-01T09:31:24.524Z</time></trkpt><trkpt lat="45.7579559" lon="8.7697063"><ele>326.0</ele><time>2026-05-01T09:31:25.525Z</time></trkpt><trkpt lat="45.7580835" lon="8.7697445"><ele>326.0</ele><time>2026-05-01T09:31:26.523Z</time></trkpt><trkpt lat="45.7582096" lon="8.7697823"><ele>326.0</ele><time>2026-05-01T09:31:27.524Z</time></trkpt><trkpt lat="45.7583316" lon="8.7698209"><ele>326.0</ele><time>2026-05-01T09:31:28.524Z</time></trkpt><trkpt lat="45.7584432" lon="8.7698498"><ele>326.0</ele><time>2026-05-01T09:31:29.523Z</time></trkpt><trkpt lat="45.7585373" lon="8.769866"><ele>326.0</ele><time>2026-05-01T09:31:30.524Z</time></trkpt><trkpt lat="45.7586165" lon="8.7698717"><ele>326.0</ele><time>2026-05-01T09:31:31.523Z</time></trkpt><trkpt lat="45.7586795" lon="8.7698722"><ele>325.6</ele><time>2026-05-01T09:31:32.523Z</time></trkpt><trkpt lat="45.7588023" lon="8.7698848"><ele>325.20000000000005</ele><time>2026-05-01T09:31:34.524Z</time></trkpt><trkpt lat="45.7588814" lon="8.769884"><ele>324.79999999999995</ele><time>2026-05-01T09:31:35.524Z</time></trkpt><trkpt lat="45.7589683" lon="8.7698883"><ele>324.4</ele><time>2026-05-01T09:31:36.523Z</time></trkpt><trkpt lat="45.7590508" lon="8.7698913"><ele>324.0</ele><time>2026-05-01T09:31:37.523Z</time></trkpt><trkpt lat="45.7591294" lon="8.769892"><ele>324.0</ele><time>2026-05-01T09:31:38.523Z</time></trkpt><trkpt lat="45.7592307" lon="8.7699021"><ele>324.0</ele><time>2026-05-01T09:31:40.524Z</time></trkpt><trkpt lat="45.7593097" lon="8.7699227"><ele>324.0</ele><time>2026-05-01T09:31:42.523Z</time></trkpt><trkpt lat="45.7593738" lon="8.7699431"><ele>324.0</ele><time>2026-05-01T09:31:43.524Z</time></trkpt><trkpt lat="45.7594516" lon="8.7699381"><ele>324.0</ele><time>2026-05-01T09:31:44.524Z</time></trkpt><trkpt lat="45.7595454" lon="8.7699485"><ele>324.0</ele><time>2026-05-01T09:31:46.525Z</time></trkpt><trkpt lat="45.7596335" lon="8.7700909"><ele>324.2</ele><time>2026-05-01T09:31:48.523Z</time></trkpt><trkpt lat="45.7596759" lon="8.7702093"><ele>324.4</ele><time>2026-05-01T09:31:49.524Z</time></trkpt><trkpt lat="45.7597188" lon="8.7703414"><ele>324.6</ele><time>2026-05-01T09:31:50.524Z</time></trkpt><trkpt lat="45.7597638" lon="8.770469"><ele>324.8</ele><time>2026-05-01T09:31:51.524Z</time></trkpt><trkpt lat="45.7598064" lon="8.7705921"><ele>325.0</ele><time>2026-05-01T09:31:52.524Z</time></trkpt><trkpt lat="45.7598429" lon="8.7707112"><ele>325.0</ele><time>2026-05-01T09:31:53.524Z</time></trkpt><trkpt lat="45.7598658" lon="8.7708217"><ele>325.0</ele><time>2026-05-01T09:31:54.524Z</time></trkpt><trkpt lat="45.7598516" lon="8.7709254"><ele>325.0</ele><time>2026-05-01T09:31:55.524Z</time></trkpt><trkpt lat="45.7598116" lon="8.7710257"><ele>325.0</ele><time>2026-05-01T09:31:56.524Z</time></trkpt><trkpt lat="45.7597595" lon="8.7711196"><ele>325.0</ele><time>2026-05-01T09:31:57.524Z</time></trkpt><trkpt lat="45.7597031" lon="8.7712267"><ele>325.0</ele><time>2026-05-01T09:31:58.524Z</time></trkpt><trkpt lat="45.7596437" lon="8.77134"><ele>325.0</ele><time>2026-05-01T09:31:59.524Z</time></trkpt><trkpt lat="45.7595807" lon="8.7714588"><ele>325.0</ele><time>2026-05-01T09:32:00.524Z</time></trkpt><trkpt lat="45.7595091" lon="8.7715888"><ele>325.0</ele><time>2026-05-01T09:32:01.523Z</time></trkpt><trkpt lat="45.7594386" lon="8.7717184"><ele>325.0</ele><time>2026-05-01T09:32:02.524Z</time></trkpt><trkpt lat="45.7593717" lon="8.7718449"><ele>325.0</ele><time>2026-05-01T09:32:03.524Z</time></trkpt><trkpt lat="45.7593049" lon="8.7719761"><ele>325.0</ele><time>2026-05-01T09:32:04.524Z</time></trkpt><trkpt lat="45.759239" lon="8.7721068"><ele>325.0</ele><time>2026-05-01T09:32:05.524Z</time></trkpt><trkpt lat="45.7591711" lon="8.7722411"><ele>325.0</ele><time>2026-05-01T09:32:06.524Z</time></trkpt><trkpt lat="45.7591009" lon="8.7723797"><ele>325.0</ele><time>2026-05-01T09:32:07.524Z</time></trkpt><trkpt lat="45.7590281" lon="8.7725207"><ele>325.0</ele><time>2026-05-01T09:32:08.523Z</time></trkpt><trkpt lat="45.7589517" lon="8.7726633"><ele>325.0</ele><time>2026-05-01T09:32:09.524Z</time></trkpt><trkpt lat="45.7588741" lon="8.7727944"><ele>325.0</ele><time>2026-05-01T09:32:10.524Z</time></trkpt><trkpt lat="45.7587875" lon="8.7729021"><ele>325.0</ele><time>2026-05-01T09:32:11.523Z</time></trkpt><trkpt lat="45.758689" lon="8.7729765"><ele>325.25</ele><time>2026-05-01T09:32:12.524Z</time></trkpt><trkpt lat="45.7585786" lon="8.7730185"><ele>325.5</ele><time>2026-05-01T09:32:13.524Z</time></trkpt><trkpt lat="45.7584601" lon="8.7730254"><ele>325.75</ele><time>2026-05-01T09:32:14.524Z</time></trkpt><trkpt lat="45.7583409" lon="8.7729966"><ele>326.0</ele><time>2026-05-01T09:32:15.523Z</time></trkpt><trkpt lat="45.7582236" lon="8.7729464"><ele>325.0</ele><time>2026-05-01T09:32:16.524Z</time></trkpt><trkpt lat="45.7581056" lon="8.7728982"><ele>324.0</ele><time>2026-05-01T09:32:17.524Z</time></trkpt><trkpt lat="45.7579855" lon="8.7728592"><ele>323.0</ele><time>2026-05-01T09:32:18.524Z</time></trkpt><trkpt lat="45.7578668" lon="8.7728153"><ele>322.0</ele><time>2026-05-01T09:32:19.525Z</time></trkpt><trkpt lat="45.7577495" lon="8.7727732"><ele>321.25</ele><time>2026-05-01T09:32:20.523Z</time></trkpt><trkpt lat="45.7576351" lon="8.7727332"><ele>320.5</ele><time>2026-05-01T09:32:21.523Z</time></trkpt><trkpt lat="45.757521" lon="8.7726987"><ele>319.75</ele><time>2026-05-01T09:32:22.524Z</time></trkpt><trkpt lat="45.7574084" lon="8.7726923"><ele>319.0</ele><time>2026-05-01T09:32:23.524Z</time></trkpt><trkpt lat="45.7573011" lon="8.7727385"><ele>319.0</ele><time>2026-05-01T09:32:24.524Z</time></trkpt><trkpt lat="45.7571942" lon="8.7728095"><ele>319.0</ele><time>2026-05-01T09:32:25.524Z</time></trkpt><trkpt lat="45.7570842" lon="8.7728946"><ele>319.0</ele><time>2026-05-01T09:32:26.524Z</time></trkpt><trkpt lat="45.7569719" lon="8.7729818"><ele>319.0</ele><time>2026-05-01T09:32:27.523Z</time></trkpt><trkpt lat="45.756864" lon="8.7730816"><ele>317.75</ele><time>2026-05-01T09:32:28.524Z</time></trkpt><trkpt lat="45.756763" lon="8.7731997"><ele>316.5</ele><time>2026-05-01T09:32:29.524Z</time></trkpt><trkpt lat="45.7566698" lon="8.7733365"><ele>315.25</ele><time>2026-05-01T09:32:30.524Z</time></trkpt><trkpt lat="45.7565801" lon="8.77348"><ele>314.0</ele><time>2026-05-01T09:32:31.524Z</time></trkpt><trkpt lat="45.7564931" lon="8.773627"><ele>313.0</ele><time>2026-05-01T09:32:32.525Z</time></trkpt><trkpt lat="45.7564065" lon="8.7737714"><ele>312.0</ele><time>2026-05-01T09:32:33.524Z</time></trkpt><trkpt lat="45.7563187" lon="8.7739111"><ele>311.0</ele><time>2026-05-01T09:32:34.524Z</time></trkpt><trkpt lat="45.7562294" lon="8.7740475"><ele>310.0</ele><time>2026-05-01T09:32:35.524Z</time></trkpt><trkpt lat="45.7561413" lon="8.7741835"><ele>310.0</ele><time>2026-05-01T09:32:36.523Z</time></trkpt><trkpt lat="45.756054" lon="8.7743154"><ele>310.0</ele><time>2026-05-01T09:32:37.524Z</time></trkpt><trkpt lat="45.7559651" lon="8.7744436"><ele>310.0</ele><time>2026-05-01T09:32:38.524Z</time></trkpt><trkpt lat="45.7558778" lon="8.7745713"><ele>310.0</ele><time>2026-05-01T09:32:39.524Z</time></trkpt><trkpt lat="45.7557952" lon="8.7747006"><ele>311.25</ele><time>2026-05-01T09:32:40.524Z</time></trkpt><trkpt lat="45.7557225" lon="8.77484"><ele>312.5</ele><time>2026-05-01T09:32:41.523Z</time></trkpt><trkpt lat="45.7556647" lon="8.7749904"><ele>313.75</ele><time>2026-05-01T09:32:42.524Z</time></trkpt><trkpt lat="45.7556117" lon="8.7751474"><ele>315.0</ele><time>2026-05-01T09:32:43.524Z</time></trkpt><trkpt lat="45.7555445" lon="8.7752927"><ele>316.25</ele><time>2026-05-01T09:32:44.524Z</time></trkpt><trkpt lat="45.7554657" lon="8.7754244"><ele>317.5</ele><time>2026-05-01T09:32:45.524Z</time></trkpt><trkpt lat="45.7553841" lon="8.7755512"><ele>318.75</ele><time>2026-05-01T09:32:46.523Z</time></trkpt><trkpt lat="45.7553024" lon="8.7756748"><ele>320.0</ele><time>2026-05-01T09:32:47.523Z</time></trkpt><trkpt lat="45.7552303" lon="8.7757884"><ele>320.4</ele><time>2026-05-01T09:32:48.523Z</time></trkpt><trkpt lat="45.7551605" lon="8.7758922"><ele>320.8</ele><time>2026-05-01T09:32:49.523Z</time></trkpt><trkpt lat="45.7550845" lon="8.7759868"><ele>321.20000000000005</ele><time>2026-05-01T09:32:50.524Z</time></trkpt><trkpt lat="45.7550007" lon="8.7760605"><ele>321.6</ele><time>2026-05-01T09:32:51.523Z</time></trkpt><trkpt lat="45.7549119" lon="8.776108"><ele>322.0</ele><time>2026-05-01T09:32:52.523Z</time></trkpt><trkpt lat="45.7548173" lon="8.7761302"><ele>322.8</ele><time>2026-05-01T09:32:53.523Z</time></trkpt><trkpt lat="45.7547144" lon="8.7761333"><ele>323.6</ele><time>2026-05-01T09:32:54.524Z</time></trkpt><trkpt lat="45.7546035" lon="8.7761187"><ele>324.40000000000003</ele><time>2026-05-01T09:32:55.524Z</time></trkpt><trkpt lat="45.7544985" lon="8.7760848"><ele>325.20000000000005</ele><time>2026-05-01T09:32:56.524Z</time></trkpt><trkpt lat="45.7544014" lon="8.7760345"><ele>326.0</ele><time>2026-05-01T09:32:57.523Z</time></trkpt><trkpt lat="45.7543189" lon="8.7759734"><ele>326.0</ele><time>2026-05-01T09:32:58.524Z</time></trkpt><trkpt lat="45.754246" lon="8.7759174"><ele>326.0</ele><time>2026-05-01T09:32:59.523Z</time></trkpt><trkpt lat="45.7541828" lon="8.775883"><ele>326.0</ele><time>2026-05-01T09:33:00.524Z</time></trkpt><trkpt lat="45.7540897" lon="8.7759179"><ele>326.0</ele><time>2026-05-01T09:33:02.524Z</time></trkpt><trkpt lat="45.7540111" lon="8.7760396"><ele>326.0</ele><time>2026-05-01T09:33:04.524Z</time></trkpt><trkpt lat="45.7539453" lon="8.7761689"><ele>328.8</ele><time>2026-05-01T09:33:06.524Z</time></trkpt><trkpt lat="45.7539117" lon="8.776262"><ele>331.6</ele><time>2026-05-01T09:33:07.524Z</time></trkpt><trkpt lat="45.753849" lon="8.776398"><ele>334.4</ele><time>2026-05-01T09:33:09.524Z</time></trkpt><trkpt lat="45.753853" lon="8.7765175"><ele>337.2</ele><time>2026-05-01T09:33:11.524Z</time></trkpt><trkpt lat="45.7539073" lon="8.7766154"><ele>340.0</ele><time>2026-05-01T09:33:13.524Z</time></trkpt><trkpt lat="45.7540181" lon="8.7766866"><ele>340.0</ele><time>2026-05-01T09:33:15.524Z</time></trkpt><trkpt lat="45.7541202" lon="8.776747"><ele>340.0</ele><time>2026-05-01T09:33:17.523Z</time></trkpt><trkpt lat="45.7542162" lon="8.7768631"><ele>340.0</ele><time>2026-05-01T09:33:19.524Z</time></trkpt><trkpt lat="45.7542749" lon="8.7769399"><ele>340.0</ele><time>2026-05-01T09:33:20.524Z</time></trkpt><trkpt lat="45.7543635" lon="8.7770517"><ele>340.0</ele><time>2026-05-01T09:33:22.525Z</time></trkpt><trkpt lat="45.7543404" lon="8.7771902"><ele>342.2857142857143</ele><time>2026-05-01T09:33:24.525Z</time></trkpt><trkpt lat="45.7542856" lon="8.7772777"><ele>344.57142857142856</ele><time>2026-05-01T09:33:26.523Z</time></trkpt><trkpt lat="45.7542194" lon="8.7772565"><ele>346.85714285714283</ele><time>2026-05-01T09:33:27.523Z</time></trkpt><trkpt lat="45.7541518" lon="8.777254"><ele>349.1428571428571</ele><time>2026-05-01T09:33:28.524Z</time></trkpt><trkpt lat="45.7540875" lon="8.777249"><ele>351.42857142857144</ele><time>2026-05-01T09:33:29.524Z</time></trkpt><trkpt lat="45.754049" lon="8.7773364"><ele>353.71428571428567</ele><time>2026-05-01T09:33:32.524Z</time></trkpt><trkpt lat="45.7541154" lon="8.777417"><ele>356.0</ele><time>2026-05-01T09:33:34.524Z</time></trkpt><trkpt lat="45.7541823" lon="8.7775413"><ele>356.0</ele><time>2026-05-01T09:33:36.523Z</time></trkpt><trkpt lat="45.7542756" lon="8.7776179"><ele>356.0</ele><time>2026-05-01T09:33:38.523Z</time></trkpt><trkpt lat="45.7543124" lon="8.7777421"><ele>356.0</ele><time>2026-05-01T09:33:40.525Z</time></trkpt><trkpt lat="45.7543047" lon="8.7779082"><ele>356.0</ele><time>2026-05-01T09:33:42.524Z</time></trkpt><trkpt lat="45.7542631" lon="8.7780123"><ele>356.0</ele><time>2026-05-01T09:33:45.523Z</time></trkpt><trkpt lat="45.7541807" lon="8.7780583"><ele>358.0</ele><time>2026-05-01T09:33:47.523Z</time></trkpt><trkpt lat="45.7540782" lon="8.7780793"><ele>360.0</ele><time>2026-05-01T09:33:49.524Z</time></trkpt><trkpt lat="45.7539906" lon="8.7781099"><ele>362.0</ele><time>2026-05-01T09:33:51.523Z</time></trkpt><trkpt lat="45.7539057" lon="8.7781502"><ele>364.0</ele><time>2026-05-01T09:33:53.523Z</time></trkpt><trkpt lat="45.7538468" lon="8.7782019"><ele>366.0</ele><time>2026-05-01T09:33:54.524Z</time></trkpt><trkpt lat="45.7537723" lon="8.7782458"><ele>368.0</ele><time>2026-05-01T09:33:55.524Z</time></trkpt><trkpt lat="45.7536941" lon="8.7782859"><ele>368.0</ele><time>2026-05-01T09:33:56.523Z</time></trkpt><trkpt lat="45.7536111" lon="8.7783233"><ele>368.0</ele><time>2026-05-01T09:33:57.524Z</time></trkpt><trkpt lat="45.7535321" lon="8.7783513"><ele>368.0</ele><time>2026-05-01T09:33:58.523Z</time></trkpt><trkpt lat="45.7534577" lon="8.7783705"><ele>368.0</ele><time>2026-05-01T09:33:59.523Z</time></trkpt><trkpt lat="45.7533933" lon="8.7783753"><ele>368.0</ele><time>2026-05-01T09:34:00.524Z</time></trkpt><trkpt lat="45.7533189" lon="8.7783491"><ele>368.0</ele><time>2026-05-01T09:34:01.524Z</time></trkpt><trkpt lat="45.7532301" lon="8.7783098"><ele>368.5</ele><time>2026-05-01T09:34:02.524Z</time></trkpt><trkpt lat="45.7531439" lon="8.7782883"><ele>369.0</ele><time>2026-05-01T09:34:03.524Z</time></trkpt><trkpt lat="45.7530676" lon="8.7782733"><ele>369.5</ele><time>2026-05-01T09:34:04.524Z</time></trkpt><trkpt lat="45.7530043" lon="8.7782621"><ele>370.0</ele><time>2026-05-01T09:34:05.523Z</time></trkpt><trkpt lat="45.7529417" lon="8.7783315"><ele>370.5</ele><time>2026-05-01T09:34:07.524Z</time></trkpt><trkpt lat="45.7529176" lon="8.7784254"><ele>371.0</ele><time>2026-05-01T09:34:08.523Z</time></trkpt><trkpt lat="45.7528713" lon="8.7785495"><ele>372.75</ele><time>2026-05-01T09:34:09.525Z</time></trkpt><trkpt lat="45.7528304" lon="8.7786872"><ele>374.5</ele><time>2026-05-01T09:34:10.524Z</time></trkpt><trkpt lat="45.7527938" lon="8.7788642"><ele>376.25</ele><time>2026-05-01T09:34:11.524Z</time></trkpt><trkpt lat="45.7527615" lon="8.779056"><ele>378.0</ele><time>2026-05-01T09:34:12.524Z</time></trkpt><trkpt lat="45.7527285" lon="8.779215"><ele>378.0</ele><time>2026-05-01T09:34:13.524Z</time></trkpt><trkpt lat="45.7527077" lon="8.7793285"><ele>378.0</ele><time>2026-05-01T09:34:14.524Z</time></trkpt><trkpt lat="45.7527246" lon="8.7794581"><ele>378.0</ele><time>2026-05-01T09:34:16.524Z</time></trkpt><trkpt lat="45.7528495" lon="8.7795303"><ele>378.0</ele><time>2026-05-01T09:34:18.524Z</time></trkpt><trkpt lat="45.7529563" lon="8.7795748"><ele>378.0</ele><time>2026-05-01T09:34:19.524Z</time></trkpt><trkpt lat="45.7530894" lon="8.7796333"><ele>379.2</ele><time>2026-05-01T09:34:20.523Z</time></trkpt><trkpt lat="45.7532061" lon="8.7796912"><ele>380.4</ele><time>2026-05-01T09:34:21.524Z</time></trkpt><trkpt lat="45.7533102" lon="8.7797411"><ele>381.59999999999997</ele><time>2026-05-01T09:34:22.524Z</time></trkpt><trkpt lat="45.7534086" lon="8.7797651"><ele>382.79999999999995</ele><time>2026-05-01T09:34:23.524Z</time></trkpt><trkpt lat="45.753498" lon="8.7797769"><ele>384.0</ele><time>2026-05-01T09:34:24.524Z</time></trkpt><trkpt lat="45.7535888" lon="8.7798043"><ele>384.0</ele><time>2026-05-01T09:34:25.524Z</time></trkpt><trkpt lat="45.7536797" lon="8.7798317"><ele>384.0</ele><time>2026-05-01T09:34:26.523Z</time></trkpt><trkpt lat="45.7537683" lon="8.7798606"><ele>384.0</ele><time>2026-05-01T09:34:27.524Z</time></trkpt><trkpt lat="45.7538567" lon="8.7798864"><ele>384.0</ele><time>2026-05-01T09:34:28.524Z</time></trkpt><trkpt lat="45.753937" lon="8.7799196"><ele>384.0</ele><time>2026-05-01T09:34:29.523Z</time></trkpt><trkpt lat="45.7540181" lon="8.7799559"><ele>384.0</ele><time>2026-05-01T09:34:30.524Z</time></trkpt><trkpt lat="45.7541015" lon="8.7799935"><ele>384.0</ele><time>2026-05-01T09:34:31.524Z</time></trkpt><trkpt lat="45.7541839" lon="8.7800346"><ele>384.0</ele><time>2026-05-01T09:34:32.524Z</time></trkpt><trkpt lat="45.7542689" lon="8.7800757"><ele>384.0</ele><time>2026-05-01T09:34:33.523Z</time></trkpt><trkpt lat="45.7543511" lon="8.7801095"><ele>384.0</ele><time>2026-05-01T09:34:34.524Z</time></trkpt><trkpt lat="45.7544343" lon="8.7801385"><ele>384.0</ele><time>2026-05-01T09:34:35.524Z</time></trkpt><trkpt lat="45.7545162" lon="8.780173"><ele>384.0</ele><time>2026-05-01T09:34:36.525Z</time></trkpt><trkpt lat="45.7545946" lon="8.7802152"><ele>384.1666666666667</ele><time>2026-05-01T09:34:37.524Z</time></trkpt><trkpt lat="45.7546684" lon="8.780256"><ele>384.33333333333337</ele><time>2026-05-01T09:34:38.523Z</time></trkpt><trkpt lat="45.7547209" lon="8.7803067"><ele>384.5</ele><time>2026-05-01T09:34:39.524Z</time></trkpt><trkpt lat="45.7547654" lon="8.7804427"><ele>384.6666666666667</ele><time>2026-05-01T09:34:41.524Z</time></trkpt><trkpt lat="45.7547677" lon="8.780558"><ele>384.83333333333337</ele><time>2026-05-01T09:34:42.523Z</time></trkpt><trkpt lat="45.7547696" lon="8.7806816"><ele>385.0</ele><time>2026-05-01T09:34:43.523Z</time></trkpt><trkpt lat="45.7547753" lon="8.780832"><ele>385.0</ele><time>2026-05-01T09:34:44.523Z</time></trkpt><trkpt lat="45.7547708" lon="8.7809769"><ele>385.0</ele><time>2026-05-01T09:34:45.524Z</time></trkpt><trkpt lat="45.7547633" lon="8.7811263"><ele>385.0</ele><time>2026-05-01T09:34:46.525Z</time></trkpt><trkpt lat="45.7547458" lon="8.7812529"><ele>385.0</ele><time>2026-05-01T09:34:47.523Z</time></trkpt><trkpt lat="45.7547231" lon="8.7813662"><ele>385.0</ele><time>2026-05-01T09:34:48.524Z</time></trkpt><trkpt lat="45.7547006" lon="8.7814674"><ele>387.0</ele><time>2026-05-01T09:34:49.523Z</time></trkpt><trkpt lat="45.7547063" lon="8.7816458"><ele>389.0</ele><time>2026-05-01T09:34:51.524Z</time></trkpt><trkpt lat="45.7547747" lon="8.7817962"><ele>391.0</ele><time>2026-05-01T09:34:53.524Z</time></trkpt><trkpt lat="45.7548597" lon="8.7818326"><ele>393.0</ele><time>2026-05-01T09:34:54.524Z</time></trkpt><trkpt lat="45.7549349" lon="8.7819058"><ele>395.0</ele><time>2026-05-01T09:34:55.523Z</time></trkpt><trkpt lat="45.7549983" lon="8.7819973"><ele>395.66666666666663</ele><time>2026-05-01T09:34:56.525Z</time></trkpt><trkpt lat="45.7550443" lon="8.7820925"><ele>396.3333333333333</ele><time>2026-05-01T09:34:57.524Z</time></trkpt><trkpt lat="45.7550721" lon="8.782209"><ele>397.0</ele><time>2026-05-01T09:34:58.524Z</time></trkpt><trkpt lat="45.755085" lon="8.7823318"><ele>397.66666666666663</ele><time>2026-05-01T09:34:59.524Z</time></trkpt><trkpt lat="45.7550855" lon="8.7824687"><ele>398.3333333333333</ele><time>2026-05-01T09:35:00.524Z</time></trkpt><trkpt lat="45.7550878" lon="8.7826036"><ele>399.0</ele><time>2026-05-01T09:35:01.524Z</time></trkpt><trkpt lat="45.7550966" lon="8.7827348"><ele>400.0</ele><time>2026-05-01T09:35:02.525Z</time></trkpt><trkpt lat="45.7550946" lon="8.7828355"><ele>401.0</ele><time>2026-05-01T09:35:03.524Z</time></trkpt><trkpt lat="45.7551221" lon="8.7829565"><ele>402.0</ele><time>2026-05-01T09:35:04.524Z</time></trkpt><trkpt lat="45.7551279" lon="8.7830714"><ele>403.0</ele><time>2026-05-01T09:35:05.524Z</time></trkpt><trkpt lat="45.7551323" lon="8.7831965"><ele>404.0</ele><time>2026-05-01T09:35:06.523Z</time></trkpt><trkpt lat="45.7551" lon="8.7833123"><ele>405.0</ele><time>2026-05-01T09:35:07.524Z</time></trkpt><trkpt lat="45.7550705" lon="8.7834005"><ele>405.0</ele><time>2026-05-01T09:35:08.524Z</time></trkpt><trkpt lat="45.7550352" lon="8.7834904"><ele>405.0</ele><time>2026-05-01T09:35:09.524Z</time></trkpt><trkpt lat="45.7549759" lon="8.783563"><ele>405.0</ele><time>2026-05-01T09:35:10.523Z</time></trkpt><trkpt lat="45.754914" lon="8.7836586"><ele>405.0</ele><time>2026-05-01T09:35:11.524Z</time></trkpt><trkpt lat="45.7548586" lon="8.7837144"><ele>405.0</ele><time>2026-05-01T09:35:12.524Z</time></trkpt><trkpt lat="45.7547803" lon="8.7837514"><ele>405.0</ele><time>2026-05-01T09:35:13.523Z</time></trkpt><trkpt lat="45.7546717" lon="8.7837932"><ele>405.6</ele><time>2026-05-01T09:35:15.523Z</time></trkpt><trkpt lat="45.7545583" lon="8.7839073"><ele>406.2</ele><time>2026-05-01T09:35:17.524Z</time></trkpt><trkpt lat="45.754472" lon="8.7840123"><ele>406.79999999999995</ele><time>2026-05-01T09:35:18.524Z</time></trkpt><trkpt lat="45.7543967" lon="8.784063"><ele>407.4</ele><time>2026-05-01T09:35:19.524Z</time></trkpt><trkpt lat="45.7543119" lon="8.7841302"><ele>408.0</ele><time>2026-05-01T09:35:20.524Z</time></trkpt><trkpt lat="45.7541912" lon="8.7842366"><ele>408.6666666666667</ele><time>2026-05-01T09:35:22.524Z</time></trkpt><trkpt lat="45.7541095" lon="8.7842959"><ele>409.33333333333337</ele><time>2026-05-01T09:35:23.524Z</time></trkpt><trkpt lat="45.7540363" lon="8.7843552"><ele>410.0</ele><time>2026-05-01T09:35:24.524Z</time></trkpt><trkpt lat="45.7539682" lon="8.7844047"><ele>410.6666666666667</ele><time>2026-05-01T09:35:25.524Z</time></trkpt><trkpt lat="45.7539093" lon="8.784463"><ele>411.33333333333337</ele><time>2026-05-01T09:35:26.524Z</time></trkpt><trkpt lat="45.7538575" lon="8.7845416"><ele>412.0</ele><time>2026-05-01T09:35:27.523Z</time></trkpt><trkpt lat="45.7538303" lon="8.7846307"><ele>412.0</ele><time>2026-05-01T09:35:28.525Z</time></trkpt><trkpt lat="45.7537938" lon="8.7847654"><ele>412.0</ele><time>2026-05-01T09:35:30.524Z</time></trkpt><trkpt lat="45.7537346" lon="8.7848663"><ele>412.0</ele><time>2026-05-01T09:35:32.524Z</time></trkpt><trkpt lat="45.7536144" lon="8.7848575"><ele>412.0</ele><time>2026-05-01T09:35:34.523Z</time></trkpt><trkpt lat="45.7535131" lon="8.7848238"><ele>412.0</ele><time>2026-05-01T09:35:35.523Z</time></trkpt><trkpt lat="45.7533885" lon="8.7847846"><ele>410.5</ele><time>2026-05-01T09:35:36.524Z</time></trkpt><trkpt lat="45.7532647" lon="8.7847437"><ele>409.0</ele><time>2026-05-01T09:35:37.525Z</time></trkpt><trkpt lat="45.7531495" lon="8.7847168"><ele>407.5</ele><time>2026-05-01T09:35:38.524Z</time></trkpt><trkpt lat="45.7530332" lon="8.7847112"><ele>406.0</ele><time>2026-05-01T09:35:39.524Z</time></trkpt><trkpt lat="45.7529159" lon="8.7847021"><ele>406.0</ele><time>2026-05-01T09:35:40.523Z</time></trkpt><trkpt lat="45.7527993" lon="8.7846935"><ele>406.0</ele><time>2026-05-01T09:35:41.524Z</time></trkpt><trkpt lat="45.7526859" lon="8.7846851"><ele>406.0</ele><time>2026-05-01T09:35:42.524Z</time></trkpt><trkpt lat="45.752582" lon="8.7846745"><ele>406.0</ele><time>2026-05-01T09:35:43.524Z</time></trkpt><trkpt lat="45.752489" lon="8.7846602"><ele>406.0</ele><time>2026-05-01T09:35:44.523Z</time></trkpt><trkpt lat="45.7524093" lon="8.7846471"><ele>406.0</ele><time>2026-05-01T09:35:45.524Z</time></trkpt><trkpt lat="45.7523082" lon="8.7846772"><ele>406.0</ele><time>2026-05-01T09:35:47.524Z</time></trkpt><trkpt lat="45.7522468" lon="8.7848286"><ele>406.0</ele><time>2026-05-01T09:35:49.523Z</time></trkpt><trkpt lat="45.7522226" lon="8.7849657"><ele>406.0</ele><time>2026-05-01T09:35:50.524Z</time></trkpt><trkpt lat="45.7522029" lon="8.7851334"><ele>406.0</ele><time>2026-05-01T09:35:51.523Z</time></trkpt><trkpt lat="45.7521749" lon="8.7853144"><ele>406.75</ele><time>2026-05-01T09:35:52.524Z</time></trkpt><trkpt lat="45.752139" lon="8.7855124"><ele>407.5</ele><time>2026-05-01T09:35:53.523Z</time></trkpt><trkpt lat="45.7520865" lon="8.7857076"><ele>408.25</ele><time>2026-05-01T09:35:54.523Z</time></trkpt><trkpt lat="45.7520088" lon="8.785889"><ele>409.0</ele><time>2026-05-01T09:35:55.524Z</time></trkpt><trkpt lat="45.7519197" lon="8.7860618"><ele>412.25</ele><time>2026-05-01T09:35:56.524Z</time></trkpt><trkpt lat="45.7518354" lon="8.7862388"><ele>415.5</ele><time>2026-05-01T09:35:57.523Z</time></trkpt><trkpt lat="45.7517606" lon="8.7864216"><ele>418.75</ele><time>2026-05-01T09:35:58.524Z</time></trkpt><trkpt lat="45.7516954" lon="8.7866085"><ele>422.0</ele><time>2026-05-01T09:35:59.524Z</time></trkpt><trkpt lat="45.7516384" lon="8.7867975"><ele>423.75</ele><time>2026-05-01T09:36:00.524Z</time></trkpt><trkpt lat="45.7515878" lon="8.7869841"><ele>425.5</ele><time>2026-05-01T09:36:01.523Z</time></trkpt><trkpt lat="45.7515437" lon="8.7871707"><ele>427.25</ele><time>2026-05-01T09:36:02.525Z</time></trkpt><trkpt lat="45.7515053" lon="8.7873492"><ele>429.0</ele><time>2026-05-01T09:36:03.524Z</time></trkpt><trkpt lat="45.751469" lon="8.7875158"><ele>429.0</ele><time>2026-05-01T09:36:04.524Z</time></trkpt><trkpt lat="45.751433" lon="8.7876625"><ele>429.0</ele><time>2026-05-01T09:36:05.524Z</time></trkpt><trkpt lat="45.7514001" lon="8.7877834"><ele>429.0</ele><time>2026-05-01T09:36:06.523Z</time></trkpt><trkpt lat="45.7513725" lon="8.7878885"><ele>429.0</ele><time>2026-05-01T09:36:07.525Z</time></trkpt><trkpt lat="45.7513469" lon="8.7879733"><ele>429.0</ele><time>2026-05-01T09:36:08.524Z</time></trkpt><trkpt lat="45.7513263" lon="8.7880645"><ele>429.0</ele><time>2026-05-01T09:36:11.523Z</time></trkpt><trkpt lat="45.7513494" lon="8.7881555"><ele>428.79999999999995</ele><time>2026-05-01T09:36:15.523Z</time></trkpt><trkpt lat="45.7513968" lon="8.7882182"><ele>428.59999999999997</ele><time>2026-05-01T09:36:16.525Z</time></trkpt><trkpt lat="45.7514897" lon="8.7882835"><ele>428.4</ele><time>2026-05-01T09:36:17.524Z</time></trkpt><trkpt lat="45.7515965" lon="8.7883382"><ele>428.2</ele><time>2026-05-01T09:36:18.524Z</time></trkpt><trkpt lat="45.7517022" lon="8.7883866"><ele>428.0</ele><time>2026-05-01T09:36:19.524Z</time></trkpt><trkpt lat="45.7518002" lon="8.7884289"><ele>427.8333333333333</ele><time>2026-05-01T09:36:20.523Z</time></trkpt><trkpt lat="45.751884" lon="8.7884742"><ele>427.66666666666663</ele><time>2026-05-01T09:36:21.525Z</time></trkpt><trkpt lat="45.7519344" lon="8.7885413"><ele>427.5</ele><time>2026-05-01T09:36:22.523Z</time></trkpt><trkpt lat="45.752011" lon="8.7886307"><ele>427.33333333333337</ele><time>2026-05-01T09:36:24.523Z</time></trkpt><trkpt lat="45.752079" lon="8.7886507"><ele>427.1666666666667</ele><time>2026-05-01T09:36:25.523Z</time></trkpt><trkpt lat="45.7521596" lon="8.7886708"><ele>427.0</ele><time>2026-05-01T09:36:26.524Z</time></trkpt><trkpt lat="45.752249" lon="8.7886916"><ele>426.25</ele><time>2026-05-01T09:36:27.524Z</time></trkpt><trkpt lat="45.7523503" lon="8.7887033"><ele>425.5</ele><time>2026-05-01T09:36:28.523Z</time></trkpt><trkpt lat="45.7524619" lon="8.7886952"><ele>424.75</ele><time>2026-05-01T09:36:29.524Z</time></trkpt><trkpt lat="45.7525813" lon="8.7886709"><ele>424.0</ele><time>2026-05-01T09:36:30.524Z</time></trkpt><trkpt lat="45.752709" lon="8.7886347"><ele>424.0</ele><time>2026-05-01T09:36:31.524Z</time></trkpt><trkpt lat="45.7528232" lon="8.7885967"><ele>424.0</ele><time>2026-05-01T09:36:32.524Z</time></trkpt><trkpt lat="45.7529322" lon="8.788562"><ele>424.0</ele><time>2026-05-01T09:36:33.523Z</time></trkpt><trkpt lat="45.753034" lon="8.7885308"><ele>424.0</ele><time>2026-05-01T09:36:34.524Z</time></trkpt><trkpt lat="45.7531325" lon="8.7885032"><ele>424.0</ele><time>2026-05-01T09:36:35.523Z</time></trkpt><trkpt lat="45.7532315" lon="8.7884767"><ele>423.83333333333337</ele><time>2026-05-01T09:36:36.524Z</time></trkpt><trkpt lat="45.7533224" lon="8.7884483"><ele>423.6666666666667</ele><time>2026-05-01T09:36:37.525Z</time></trkpt><trkpt lat="45.7534074" lon="8.7884233"><ele>423.5</ele><time>2026-05-01T09:36:38.524Z</time></trkpt><trkpt lat="45.7534773" lon="8.7884047"><ele>423.33333333333337</ele><time>2026-05-01T09:36:39.524Z</time></trkpt><trkpt lat="45.7535499" lon="8.7884453"><ele>423.1666666666667</ele><time>2026-05-01T09:36:41.524Z</time></trkpt><trkpt lat="45.75358" lon="8.7885861"><ele>423.0</ele><time>2026-05-01T09:36:43.523Z</time></trkpt><trkpt lat="45.7535835" lon="8.7886774"><ele>423.0</ele><time>2026-05-01T09:36:44.524Z</time></trkpt><trkpt lat="45.753587" lon="8.7887739"><ele>423.0</ele><time>2026-05-01T09:36:45.524Z</time></trkpt><trkpt lat="45.7535892" lon="8.7888782"><ele>423.0</ele><time>2026-05-01T09:36:46.523Z</time></trkpt><trkpt lat="45.7535948" lon="8.7889903"><ele>423.0</ele><time>2026-05-01T09:36:47.523Z</time></trkpt><trkpt lat="45.7536061" lon="8.7891099"><ele>423.0</ele><time>2026-05-01T09:36:48.524Z</time></trkpt><trkpt lat="45.7536212" lon="8.789237"><ele>423.0</ele><time>2026-05-01T09:36:49.524Z</time></trkpt><trkpt lat="45.7536389" lon="8.7893625"><ele>422.5</ele><time>2026-05-01T09:36:50.523Z</time></trkpt><trkpt lat="45.7536556" lon="8.7894873"><ele>422.0</ele><time>2026-05-01T09:36:51.525Z</time></trkpt><trkpt lat="45.7536708" lon="8.7896093"><ele>421.5</ele><time>2026-05-01T09:36:52.524Z</time></trkpt><trkpt lat="45.7536798" lon="8.7897067"><ele>421.0</ele><time>2026-05-01T09:36:53.523Z</time></trkpt><trkpt lat="45.753687" lon="8.7898263"><ele>420.5</ele><time>2026-05-01T09:36:55.524Z</time></trkpt><trkpt lat="45.7537167" lon="8.7899938"><ele>420.0</ele><time>2026-05-01T09:36:57.523Z</time></trkpt><trkpt lat="45.7537363" lon="8.7901191"><ele>419.4</ele><time>2026-05-01T09:36:58.524Z</time></trkpt><trkpt lat="45.7537621" lon="8.7902705"><ele>418.8</ele><time>2026-05-01T09:36:59.524Z</time></trkpt><trkpt lat="45.7537916" lon="8.7904228"><ele>418.20000000000005</ele><time>2026-05-01T09:37:00.523Z</time></trkpt><trkpt lat="45.7538236" lon="8.7905645"><ele>417.6</ele><time>2026-05-01T09:37:01.524Z</time></trkpt><trkpt lat="45.7538539" lon="8.7907011"><ele>417.0</ele><time>2026-05-01T09:37:02.523Z</time></trkpt><trkpt lat="45.7538738" lon="8.7908396"><ele>417.0</ele><time>2026-05-01T09:37:03.525Z</time></trkpt><trkpt lat="45.7538842" lon="8.7909799"><ele>417.0</ele><time>2026-05-01T09:37:04.524Z</time></trkpt><trkpt lat="45.753891" lon="8.7911204"><ele>417.0</ele><time>2026-05-01T09:37:05.523Z</time></trkpt><trkpt lat="45.7538883" lon="8.7912616"><ele>417.0</ele><time>2026-05-01T09:37:06.524Z</time></trkpt><trkpt lat="45.7538767" lon="8.7914043"><ele>417.0</ele><time>2026-05-01T09:37:07.525Z</time></trkpt><trkpt lat="45.7538644" lon="8.7915466"><ele>417.0</ele><time>2026-05-01T09:37:08.523Z</time></trkpt><trkpt lat="45.7538464" lon="8.7916852"><ele>417.0</ele><time>2026-05-01T09:37:09.524Z</time></trkpt><trkpt lat="45.7538328" lon="8.7918168"><ele>417.0</ele><time>2026-05-01T09:37:10.524Z</time></trkpt><trkpt lat="45.7538177" lon="8.7919445"><ele>417.0</ele><time>2026-05-01T09:37:11.523Z</time></trkpt><trkpt lat="45.7538054" lon="8.7920585"><ele>417.0</ele><time>2026-05-01T09:37:12.524Z</time></trkpt><trkpt lat="45.7537997" lon="8.7921677"><ele>417.0</ele><time>2026-05-01T09:37:13.524Z</time></trkpt><trkpt lat="45.7537943" lon="8.7922671"><ele>416.6</ele><time>2026-05-01T09:37:14.524Z</time></trkpt><trkpt lat="45.7537538" lon="8.7923807"><ele>416.20000000000005</ele><time>2026-05-01T09:37:16.525Z</time></trkpt><trkpt lat="45.7536602" lon="8.7923877"><ele>415.8</ele><time>2026-05-01T09:37:18.524Z</time></trkpt><trkpt lat="45.7535878" lon="8.7923561"><ele>415.4</ele><time>2026-05-01T09:37:19.523Z</time></trkpt><trkpt lat="45.7534885" lon="8.7923383"><ele>415.0</ele><time>2026-05-01T09:37:20.523Z</time></trkpt><trkpt lat="45.7533846" lon="8.7923352"><ele>413.6</ele><time>2026-05-01T09:37:21.524Z</time></trkpt><trkpt lat="45.7532809" lon="8.7923401"><ele>412.2</ele><time>2026-05-01T09:37:22.523Z</time></trkpt><trkpt lat="45.7531778" lon="8.7923671"><ele>410.79999999999995</ele><time>2026-05-01T09:37:23.524Z</time></trkpt><trkpt lat="45.7530822" lon="8.7923998"><ele>409.4</ele><time>2026-05-01T09:37:24.524Z</time></trkpt><trkpt lat="45.7529942" lon="8.7924344"><ele>408.0</ele><time>2026-05-01T09:37:25.524Z</time></trkpt><trkpt lat="45.7529128" lon="8.7924912"><ele>408.0</ele><time>2026-05-01T09:37:26.524Z</time></trkpt><trkpt lat="45.7528414" lon="8.7925541"><ele>408.0</ele><time>2026-05-01T09:37:27.524Z</time></trkpt><trkpt lat="45.7527779" lon="8.7926004"><ele>408.0</ele><time>2026-05-01T09:37:28.524Z</time></trkpt><trkpt lat="45.7526995" lon="8.792618"><ele>408.0</ele><time>2026-05-01T09:37:29.524Z</time></trkpt><trkpt lat="45.7526032" lon="8.7926151"><ele>408.0</ele><time>2026-05-01T09:37:30.524Z</time></trkpt><trkpt lat="45.7525031" lon="8.7925978"><ele>408.0</ele><time>2026-05-01T09:37:31.524Z</time></trkpt><trkpt lat="45.7524055" lon="8.792584"><ele>406.8333333333333</ele><time>2026-05-01T09:37:32.524Z</time></trkpt><trkpt lat="45.7523117" lon="8.792575"><ele>405.66666666666663</ele><time>2026-05-01T09:37:33.524Z</time></trkpt><trkpt lat="45.7522275" lon="8.7925779"><ele>404.5</ele><time>2026-05-01T09:37:34.524Z</time></trkpt><trkpt lat="45.7521411" lon="8.7926313"><ele>403.3333333333333</ele><time>2026-05-01T09:37:36.524Z</time></trkpt><trkpt lat="45.7521603" lon="8.7927484"><ele>402.16666666666663</ele><time>2026-05-01T09:37:39.524Z</time></trkpt><trkpt lat="45.7522471" lon="8.792768"><ele>401.0</ele><time>2026-05-01T09:37:41.524Z</time></trkpt><trkpt lat="45.7523098" lon="8.792807"><ele>400.99999999999994</ele><time>2026-05-01T09:37:42.524Z</time></trkpt><trkpt lat="45.752383" lon="8.7928854"><ele>401.0</ele><time>2026-05-01T09:37:44.524Z</time></trkpt><trkpt lat="45.7523649" lon="8.7929879"><ele>401.0</ele><time>2026-05-01T09:37:46.523Z</time></trkpt><trkpt lat="45.7522906" lon="8.7930131"><ele>401.0</ele><time>2026-05-01T09:37:48.523Z</time></trkpt><trkpt lat="45.7521929" lon="8.7929517"><ele>400.99999999999994</ele><time>2026-05-01T09:37:50.524Z</time></trkpt><trkpt lat="45.7521317" lon="8.7929264"><ele>401.0</ele><time>2026-05-01T09:37:51.523Z</time></trkpt><trkpt lat="45.7520215" lon="8.7928717"><ele>400.99999999999994</ele><time>2026-05-01T09:37:53.523Z</time></trkpt><trkpt lat="45.7519409" lon="8.7928177"><ele>401.0</ele><time>2026-05-01T09:37:55.524Z</time></trkpt><trkpt lat="45.7519076" lon="8.7927303"><ele>401.0</ele><time>2026-05-01T09:37:57.523Z</time></trkpt><trkpt lat="45.7518993" lon="8.7926096"><ele>401.0</ele><time>2026-05-01T09:37:59.523Z</time></trkpt><trkpt lat="45.751834" lon="8.7926752"><ele>400.99999999999994</ele><time>2026-05-01T09:38:04.525Z</time></trkpt><trkpt lat="45.7518465" lon="8.7928103"><ele>401.0</ele><time>2026-05-01T09:38:06.524Z</time></trkpt><trkpt lat="45.7518918" lon="8.7929568"><ele>401.0</ele><time>2026-05-01T09:38:08.524Z</time></trkpt><trkpt lat="45.7519249" lon="8.7930349"><ele>401.0</ele><time>2026-05-01T09:38:09.523Z</time></trkpt><trkpt lat="45.7519657" lon="8.7931089"><ele>401.0</ele><time>2026-05-01T09:38:10.524Z</time></trkpt><trkpt lat="45.752031" lon="8.7932259"><ele>401.0</ele><time>2026-05-01T09:38:12.525Z</time></trkpt><trkpt lat="45.7520043" lon="8.7933742"><ele>401.0</ele><time>2026-05-01T09:38:14.523Z</time></trkpt><trkpt lat="45.7519994" lon="8.7935339"><ele>400.8333333333333</ele><time>2026-05-01T09:38:16.524Z</time></trkpt><trkpt lat="45.7519911" lon="8.7937072"><ele>400.66666666666663</ele><time>2026-05-01T09:38:18.524Z</time></trkpt><trkpt lat="45.7519835" lon="8.7938049"><ele>400.5</ele><time>2026-05-01T09:38:19.524Z</time></trkpt><trkpt lat="45.7519744" lon="8.7939053"><ele>400.33333333333337</ele><time>2026-05-01T09:38:20.523Z</time></trkpt><trkpt lat="45.7519718" lon="8.7940055"><ele>400.1666666666667</ele><time>2026-05-01T09:38:21.523Z</time></trkpt><trkpt lat="45.7519121" lon="8.7940865"><ele>400.0</ele><time>2026-05-01T09:38:22.524Z</time></trkpt><trkpt lat="45.7518732" lon="8.7941607"><ele>398.33333333333337</ele><time>2026-05-01T09:38:23.524Z</time></trkpt><trkpt lat="45.7518323" lon="8.7942331"><ele>396.6666666666667</ele><time>2026-05-01T09:38:24.524Z</time></trkpt><trkpt lat="45.7517968" lon="8.7943127"><ele>395.0</ele><time>2026-05-01T09:38:25.524Z</time></trkpt><trkpt lat="45.7517589" lon="8.7944096"><ele>393.33333333333337</ele><time>2026-05-01T09:38:26.524Z</time></trkpt><trkpt lat="45.7517434" lon="8.7945229"><ele>391.6666666666667</ele><time>2026-05-01T09:38:27.524Z</time></trkpt><trkpt lat="45.7517285" lon="8.7946569"><ele>390.0</ele><time>2026-05-01T09:38:28.524Z</time></trkpt><trkpt lat="45.7517098" lon="8.7948013"><ele>389.2</ele><time>2026-05-01T09:38:29.524Z</time></trkpt><trkpt lat="45.7516978" lon="8.7949623"><ele>388.4</ele><time>2026-05-01T09:38:30.523Z</time></trkpt><trkpt lat="45.7516759" lon="8.7951088"><ele>387.6</ele><time>2026-05-01T09:38:31.523Z</time></trkpt><trkpt lat="45.7516628" lon="8.7952521"><ele>386.8</ele><time>2026-05-01T09:38:32.523Z</time></trkpt><trkpt lat="45.7516619" lon="8.7953944"><ele>386.0</ele><time>2026-05-01T09:38:33.524Z</time></trkpt><trkpt lat="45.7516789" lon="8.7955271"><ele>385.0</ele><time>2026-05-01T09:38:34.524Z</time></trkpt><trkpt lat="45.7517014" lon="8.7956874"><ele>384.0</ele><time>2026-05-01T09:38:35.523Z</time></trkpt><trkpt lat="45.7517198" lon="8.7958218"><ele>383.0</ele><time>2026-05-01T09:38:36.523Z</time></trkpt><trkpt lat="45.7517463" lon="8.7959369"><ele>382.0</ele><time>2026-05-01T09:38:37.524Z</time></trkpt><trkpt lat="45.7517835" lon="8.796043"><ele>381.0</ele><time>2026-05-01T09:38:38.525Z</time></trkpt><trkpt lat="45.7518481" lon="8.796131"><ele>380.4</ele><time>2026-05-01T09:38:39.524Z</time></trkpt><trkpt lat="45.751895" lon="8.7962449"><ele>379.8</ele><time>2026-05-01T09:38:40.523Z</time></trkpt><trkpt lat="45.7519414" lon="8.796367"><ele>379.2</ele><time>2026-05-01T09:38:41.523Z</time></trkpt><trkpt lat="45.7519893" lon="8.7965101"><ele>378.59999999999997</ele><time>2026-05-01T09:38:42.524Z</time></trkpt><trkpt lat="45.7520467" lon="8.7966554"><ele>378.0</ele><time>2026-05-01T09:38:43.525Z</time></trkpt><trkpt lat="45.7521033" lon="8.7967959"><ele>374.0</ele><time>2026-05-01T09:38:44.524Z</time></trkpt><trkpt lat="45.7521705" lon="8.7969313"><ele>370.0</ele><time>2026-05-01T09:38:45.524Z</time></trkpt><trkpt lat="45.7522331" lon="8.7970749"><ele>366.0</ele><time>2026-05-01T09:38:46.523Z</time></trkpt><trkpt lat="45.7522946" lon="8.797213"><ele>362.0</ele><time>2026-05-01T09:38:47.525Z</time></trkpt><trkpt lat="45.7523555" lon="8.7973304"><ele>362.0</ele><time>2026-05-01T09:38:48.525Z</time></trkpt><trkpt lat="45.7524328" lon="8.7974429"><ele>362.0</ele><time>2026-05-01T09:38:49.524Z</time></trkpt><trkpt lat="45.75251" lon="8.7975457"><ele>362.0</ele><time>2026-05-01T09:38:50.524Z</time></trkpt><trkpt lat="45.7525693" lon="8.797656"><ele>362.0</ele><time>2026-05-01T09:38:51.523Z</time></trkpt><trkpt lat="45.7526172" lon="8.7977723"><ele>362.0</ele><time>2026-05-01T09:38:52.524Z</time></trkpt><trkpt lat="45.7526565" lon="8.7979016"><ele>361.83333333333337</ele><time>2026-05-01T09:38:53.524Z</time></trkpt><trkpt lat="45.7526958" lon="8.7980261"><ele>361.6666666666667</ele><time>2026-05-01T09:38:54.524Z</time></trkpt><trkpt lat="45.7527313" lon="8.7981468"><ele>361.5</ele><time>2026-05-01T09:38:55.524Z</time></trkpt><trkpt lat="45.7527717" lon="8.7982551"><ele>361.3333333333333</ele><time>2026-05-01T09:38:56.524Z</time></trkpt><trkpt lat="45.7528254" lon="8.798351"><ele>361.16666666666663</ele><time>2026-05-01T09:38:57.525Z</time></trkpt><trkpt lat="45.7528878" lon="8.7984312"><ele>361.0</ele><time>2026-05-01T09:38:58.523Z</time></trkpt><trkpt lat="45.7529693" lon="8.7985271"><ele>357.6</ele><time>2026-05-01T09:38:59.523Z</time></trkpt><trkpt lat="45.7530719" lon="8.7986262"><ele>354.20000000000005</ele><time>2026-05-01T09:39:00.523Z</time></trkpt><trkpt lat="45.7531632" lon="8.7987173"><ele>350.79999999999995</ele><time>2026-05-01T09:39:01.524Z</time></trkpt><trkpt lat="45.753251" lon="8.7988022"><ele>347.4</ele><time>2026-05-01T09:39:02.523Z</time></trkpt><trkpt lat="45.7533134" lon="8.7988627"><ele>344.0</ele><time>2026-05-01T09:39:03.524Z</time></trkpt><trkpt lat="45.7533888" lon="8.7989449"><ele>344.0</ele><time>2026-05-01T09:39:05.523Z</time></trkpt><trkpt lat="45.7533382" lon="8.7990628"><ele>344.0</ele><time>2026-05-01T09:39:08.524Z</time></trkpt><trkpt lat="45.7532626" lon="8.799124"><ele>344.0</ele><time>2026-05-01T09:39:09.523Z</time></trkpt><trkpt lat="45.7531736" lon="8.799171"><ele>344.0</ele><time>2026-05-01T09:39:10.523Z</time></trkpt><trkpt lat="45.7530646" lon="8.799216"><ele>344.0</ele><time>2026-05-01T09:39:11.524Z</time></trkpt><trkpt lat="45.7529421" lon="8.7992621"><ele>344.0</ele><time>2026-05-01T09:39:12.523Z</time></trkpt><trkpt lat="45.7528332" lon="8.7993039"><ele>344.0</ele><time>2026-05-01T09:39:13.525Z</time></trkpt><trkpt lat="45.752725" lon="8.7993531"><ele>344.0</ele><time>2026-05-01T09:39:14.523Z</time></trkpt><trkpt lat="45.7526183" lon="8.7993977"><ele>344.0</ele><time>2026-05-01T09:39:15.524Z</time></trkpt><trkpt lat="45.7525153" lon="8.79944"><ele>344.0</ele><time>2026-05-01T09:39:16.523Z</time></trkpt><trkpt lat="45.7524119" lon="8.7994728"><ele>344.2</ele><time>2026-05-01T09:39:17.523Z</time></trkpt><trkpt lat="45.7523057" lon="8.7994976"><ele>344.4</ele><time>2026-05-01T09:39:18.524Z</time></trkpt><trkpt lat="45.7522016" lon="8.7995104"><ele>344.6</ele><time>2026-05-01T09:39:19.523Z</time></trkpt><trkpt lat="45.7520883" lon="8.7995108"><ele>344.8</ele><time>2026-05-01T09:39:20.524Z</time></trkpt><trkpt lat="45.7519715" lon="8.7994896"><ele>345.0</ele><time>2026-05-01T09:39:21.524Z</time></trkpt><trkpt lat="45.751854" lon="8.7994661"><ele>344.4</ele><time>2026-05-01T09:39:22.524Z</time></trkpt><trkpt lat="45.7517352" lon="8.7994434"><ele>343.8</ele><time>2026-05-01T09:39:23.524Z</time></trkpt><trkpt lat="45.7516171" lon="8.7994281"><ele>343.20000000000005</ele><time>2026-05-01T09:39:24.524Z</time></trkpt><trkpt lat="45.7515083" lon="8.7994204"><ele>342.6</ele><time>2026-05-01T09:39:25.524Z</time></trkpt><trkpt lat="45.7514072" lon="8.7994089"><ele>342.0</ele><time>2026-05-01T09:39:26.524Z</time></trkpt><trkpt lat="45.7513129" lon="8.799414"><ele>342.0</ele><time>2026-05-01T09:39:27.524Z</time></trkpt><trkpt lat="45.7512287" lon="8.7994532"><ele>342.0</ele><time>2026-05-01T09:39:28.524Z</time></trkpt><trkpt lat="45.7511601" lon="8.7995216"><ele>342.0</ele><time>2026-05-01T09:39:29.524Z</time></trkpt><trkpt lat="45.7511166" lon="8.7996157"><ele>342.0</ele><time>2026-05-01T09:39:30.525Z</time></trkpt><trkpt lat="45.7510969" lon="8.7997275"><ele>342.0</ele><time>2026-05-01T09:39:31.523Z</time></trkpt><trkpt lat="45.7510813" lon="8.7998608"><ele>342.0</ele><time>2026-05-01T09:39:32.523Z</time></trkpt><trkpt lat="45.751056" lon="8.7999972"><ele>341.8</ele><time>2026-05-01T09:39:33.524Z</time></trkpt><trkpt lat="45.751014" lon="8.8001237"><ele>341.6</ele><time>2026-05-01T09:39:34.524Z</time></trkpt><trkpt lat="45.7509577" lon="8.8002274"><ele>341.40000000000003</ele><time>2026-05-01T09:39:35.524Z</time></trkpt><trkpt lat="45.7508876" lon="8.8003235"><ele>341.20000000000005</ele><time>2026-05-01T09:39:36.524Z</time></trkpt><trkpt lat="45.750818" lon="8.8004152"><ele>341.0</ele><time>2026-05-01T09:39:37.524Z</time></trkpt><trkpt lat="45.7507604" lon="8.8005104"><ele>341.0</ele><time>2026-05-01T09:39:38.523Z</time></trkpt><trkpt lat="45.7507069" lon="8.8006067"><ele>341.0</ele><time>2026-05-01T09:39:39.523Z</time></trkpt><trkpt lat="45.7506624" lon="8.8006967"><ele>341.0</ele><time>2026-05-01T09:39:40.524Z</time></trkpt><trkpt lat="45.7506252" lon="8.8007808"><ele>341.0</ele><time>2026-05-01T09:39:41.523Z</time></trkpt><trkpt lat="45.7505926" lon="8.8009576"><ele>341.0</ele><time>2026-05-01T09:39:43.523Z</time></trkpt><trkpt lat="45.7506034" lon="8.801049"><ele>341.0</ele><time>2026-05-01T09:39:44.524Z</time></trkpt><trkpt lat="45.75057" lon="8.8011415"><ele>341.6</ele><time>2026-05-01T09:39:45.524Z</time></trkpt><trkpt lat="45.7505406" lon="8.8012904"><ele>342.20000000000005</ele><time>2026-05-01T09:39:47.524Z</time></trkpt><trkpt lat="45.7505206" lon="8.8014456"><ele>342.79999999999995</ele><time>2026-05-01T09:39:49.524Z</time></trkpt><trkpt lat="45.7504507" lon="8.8014071"><ele>343.4</ele><time>2026-05-01T09:39:51.523Z</time></trkpt><trkpt lat="45.7503528" lon="8.8013377"><ele>344.0</ele><time>2026-05-01T09:39:53.525Z</time></trkpt><trkpt lat="45.750282" lon="8.8012834"><ele>344.0</ele><time>2026-05-01T09:39:54.524Z</time></trkpt><trkpt lat="45.7502306" lon="8.8012178"><ele>344.0</ele><time>2026-05-01T09:39:55.524Z</time></trkpt><trkpt lat="45.7501739" lon="8.8011344"><ele>344.0</ele><time>2026-05-01T09:39:56.524Z</time></trkpt><trkpt lat="45.7501095" lon="8.8010025"><ele>344.0</ele><time>2026-05-01T09:39:57.524Z</time></trkpt><trkpt lat="45.7500357" lon="8.8008758"><ele>344.0</ele><time>2026-05-01T09:39:58.523Z</time></trkpt><trkpt lat="45.7499703" lon="8.8007577"><ele>343.6666666666667</ele><time>2026-05-01T09:39:59.525Z</time></trkpt><trkpt lat="45.7499177" lon="8.8006517"><ele>343.33333333333337</ele><time>2026-05-01T09:40:00.523Z</time></trkpt><trkpt lat="45.7498482" lon="8.8005629"><ele>343.0</ele><time>2026-05-01T09:40:01.524Z</time></trkpt><trkpt lat="45.7497735" lon="8.8004844"><ele>342.6666666666667</ele><time>2026-05-01T09:40:02.524Z</time></trkpt><trkpt lat="45.7496947" lon="8.8004339"><ele>342.3333333333333</ele><time>2026-05-01T09:40:03.524Z</time></trkpt><trkpt lat="45.7496121" lon="8.8004159"><ele>342.0</ele><time>2026-05-01T09:40:04.523Z</time></trkpt><trkpt lat="45.7495312" lon="8.8003998"><ele>342.0</ele><time>2026-05-01T09:40:05.525Z</time></trkpt><trkpt lat="45.7494535" lon="8.8003958"><ele>342.0</ele><time>2026-05-01T09:40:06.524Z</time></trkpt><trkpt lat="45.7493698" lon="8.8004046"><ele>342.0</ele><time>2026-05-01T09:40:07.523Z</time></trkpt><trkpt lat="45.7492616" lon="8.800406"><ele>342.0</ele><time>2026-05-01T09:40:08.524Z</time></trkpt><trkpt lat="45.7491749" lon="8.8004132"><ele>342.0</ele><time>2026-05-01T09:40:09.525Z</time></trkpt><trkpt lat="45.7490753" lon="8.8004215"><ele>344.0</ele><time>2026-05-01T09:40:10.524Z</time></trkpt><trkpt lat="45.7489892" lon="8.800429"><ele>346.0</ele><time>2026-05-01T09:40:11.525Z</time></trkpt><trkpt lat="45.7488825" lon="8.8004542"><ele>348.0</ele><time>2026-05-01T09:40:12.524Z</time></trkpt><trkpt lat="45.7487947" lon="8.8005268"><ele>350.0</ele><time>2026-05-01T09:40:13.524Z</time></trkpt><trkpt lat="45.7487117" lon="8.800569"><ele>352.0</ele><time>2026-05-01T09:40:14.523Z</time></trkpt><trkpt lat="45.7486483" lon="8.8006499"><ele>352.0</ele><time>2026-05-01T09:40:15.524Z</time></trkpt><trkpt lat="45.7485693" lon="8.8007272"><ele>352.0</ele><time>2026-05-01T09:40:16.524Z</time></trkpt><trkpt lat="45.7484713" lon="8.8008037"><ele>352.0</ele><time>2026-05-01T09:40:17.524Z</time></trkpt><trkpt lat="45.748389" lon="8.8008498"><ele>352.0</ele><time>2026-05-01T09:40:18.524Z</time></trkpt><trkpt lat="45.7482712" lon="8.8009413"><ele>352.0</ele><time>2026-05-01T09:40:19.524Z</time></trkpt><trkpt lat="45.7481681" lon="8.8009857"><ele>352.40000000000003</ele><time>2026-05-01T09:40:20.523Z</time></trkpt><trkpt lat="45.7480731" lon="8.8010439"><ele>352.8</ele><time>2026-05-01T09:40:21.523Z</time></trkpt><trkpt lat="45.7479567" lon="8.8011441"><ele>353.2</ele><time>2026-05-01T09:40:22.523Z</time></trkpt><trkpt lat="45.7478665" lon="8.8012182"><ele>353.6</ele><time>2026-05-01T09:40:23.524Z</time></trkpt><trkpt lat="45.7477904" lon="8.8013108"><ele>354.0</ele><time>2026-05-01T09:40:24.523Z</time></trkpt><trkpt lat="45.7477432" lon="8.8014098"><ele>353.4</ele><time>2026-05-01T09:40:25.524Z</time></trkpt><trkpt lat="45.7476584" lon="8.8015371"><ele>352.79999999999995</ele><time>2026-05-01T09:40:26.524Z</time></trkpt><trkpt lat="45.747586" lon="8.8016294"><ele>352.20000000000005</ele><time>2026-05-01T09:40:27.524Z</time></trkpt><trkpt lat="45.7475067" lon="8.8017295"><ele>351.6</ele><time>2026-05-01T09:40:28.523Z</time></trkpt><trkpt lat="45.7474302" lon="8.8018328"><ele>351.0</ele><time>2026-05-01T09:40:29.524Z</time></trkpt><trkpt lat="45.747355" lon="8.8019247"><ele>351.0</ele><time>2026-05-01T09:40:30.523Z</time></trkpt><trkpt lat="45.7472759" lon="8.8019731"><ele>351.0</ele><time>2026-05-01T09:40:31.524Z</time></trkpt><trkpt lat="45.7472029" lon="8.802045"><ele>351.0</ele><time>2026-05-01T09:40:32.523Z</time></trkpt><trkpt lat="45.7471333" lon="8.8021144"><ele>351.0</ele><time>2026-05-01T09:40:33.524Z</time></trkpt><trkpt lat="45.7470584" lon="8.8022566"><ele>351.0</ele><time>2026-05-01T09:40:34.524Z</time></trkpt><trkpt lat="45.7469673" lon="8.802393"><ele>351.0</ele><time>2026-05-01T09:40:35.524Z</time></trkpt><trkpt lat="45.7468779" lon="8.8025393"><ele>351.0</ele><time>2026-05-01T09:40:36.523Z</time></trkpt><trkpt lat="45.7467884" lon="8.8026605"><ele>351.0</ele><time>2026-05-01T09:40:37.524Z</time></trkpt><trkpt lat="45.7467056" lon="8.8027882"><ele>351.0</ele><time>2026-05-01T09:40:38.525Z</time></trkpt><trkpt lat="45.7466136" lon="8.8028787"><ele>349.75</ele><time>2026-05-01T09:40:39.524Z</time></trkpt><trkpt lat="45.7465185" lon="8.8029774"><ele>348.5</ele><time>2026-05-01T09:40:40.523Z</time></trkpt><trkpt lat="45.746419" lon="8.8030839"><ele>347.25</ele><time>2026-05-01T09:40:41.524Z</time></trkpt><trkpt lat="45.746311" lon="8.8031821"><ele>346.0</ele><time>2026-05-01T09:40:42.524Z</time></trkpt><trkpt lat="45.7462081" lon="8.8032782"><ele>346.0</ele><time>2026-05-01T09:40:43.524Z</time></trkpt><trkpt lat="45.7461193" lon="8.8033783"><ele>346.0</ele><time>2026-05-01T09:40:44.524Z</time></trkpt><trkpt lat="45.7460434" lon="8.8034646"><ele>346.0</ele><time>2026-05-01T09:40:45.524Z</time></trkpt><trkpt lat="45.7459657" lon="8.8035375"><ele>346.0</ele><time>2026-05-01T09:40:46.524Z</time></trkpt><trkpt lat="45.7458705" lon="8.8035734"><ele>346.0</ele><time>2026-05-01T09:40:47.523Z</time></trkpt><trkpt lat="45.7457657" lon="8.8036234"><ele>343.20000000000005</ele><time>2026-05-01T09:40:48.524Z</time></trkpt><trkpt lat="45.7456662" lon="8.8036744"><ele>340.40000000000003</ele><time>2026-05-01T09:40:49.524Z</time></trkpt><trkpt lat="45.745572" lon="8.8037226"><ele>337.6</ele><time>2026-05-01T09:40:50.524Z</time></trkpt><trkpt lat="45.745486" lon="8.8037697"><ele>334.8</ele><time>2026-05-01T09:40:51.524Z</time></trkpt><trkpt lat="45.7454178" lon="8.8038153"><ele>332.0</ele><time>2026-05-01T09:40:52.524Z</time></trkpt><trkpt lat="45.7453167" lon="8.8038361"><ele>332.0</ele><time>2026-05-01T09:40:54.524Z</time></trkpt><trkpt lat="45.7452417" lon="8.8037227"><ele>332.0</ele><time>2026-05-01T09:40:56.523Z</time></trkpt><trkpt lat="45.745215" lon="8.8036174"><ele>332.0</ele><time>2026-05-01T09:40:57.523Z</time></trkpt><trkpt lat="45.745188" lon="8.8034774"><ele>332.0</ele><time>2026-05-01T09:40:58.524Z</time></trkpt><trkpt lat="45.745142" lon="8.8033456"><ele>332.0</ele><time>2026-05-01T09:40:59.523Z</time></trkpt><trkpt lat="45.7450794" lon="8.8032007"><ele>331.8</ele><time>2026-05-01T09:41:00.524Z</time></trkpt><trkpt lat="45.7450187" lon="8.8030653"><ele>331.6</ele><time>2026-05-01T09:41:01.524Z</time></trkpt><trkpt lat="45.7449478" lon="8.8029453"><ele>331.40000000000003</ele><time>2026-05-01T09:41:02.525Z</time></trkpt><trkpt lat="45.7448581" lon="8.8029446"><ele>331.20000000000005</ele><time>2026-05-01T09:41:03.524Z</time></trkpt><trkpt lat="45.7447774" lon="8.8029114"><ele>331.0</ele><time>2026-05-01T09:41:04.524Z</time></trkpt><trkpt lat="45.7447023" lon="8.8029113"><ele>331.0</ele><time>2026-05-01T09:41:05.525Z</time></trkpt><trkpt lat="45.7446231" lon="8.8029415"><ele>331.0</ele><time>2026-05-01T09:41:06.524Z</time></trkpt><trkpt lat="45.744511" lon="8.8030401"><ele>331.0</ele><time>2026-05-01T09:41:07.524Z</time></trkpt><trkpt lat="45.7443893" lon="8.803153"><ele>331.0</ele><time>2026-05-01T09:41:08.524Z</time></trkpt><trkpt lat="45.7442885" lon="8.8032424"><ele>331.25</ele><time>2026-05-01T09:41:09.523Z</time></trkpt><trkpt lat="45.7441904" lon="8.8033505"><ele>331.5</ele><time>2026-05-01T09:41:10.524Z</time></trkpt><trkpt lat="45.7440942" lon="8.8034612"><ele>331.75</ele><time>2026-05-01T09:41:11.523Z</time></trkpt><trkpt lat="45.7440332" lon="8.8035744"><ele>332.0</ele><time>2026-05-01T09:41:12.524Z</time></trkpt><trkpt lat="45.7439677" lon="8.8036976"><ele>332.0</ele><time>2026-05-01T09:41:13.524Z</time></trkpt><trkpt lat="45.7439025" lon="8.803812"><ele>332.0</ele><time>2026-05-01T09:41:14.523Z</time></trkpt><trkpt lat="45.7438446" lon="8.8039182"><ele>332.0</ele><time>2026-05-01T09:41:15.524Z</time></trkpt><trkpt lat="45.7437871" lon="8.8040497"><ele>332.0</ele><time>2026-05-01T09:41:16.524Z</time></trkpt><trkpt lat="45.7437237" lon="8.8041871"><ele>332.0</ele><time>2026-05-01T09:41:17.524Z</time></trkpt><trkpt lat="45.7436504" lon="8.8043443"><ele>330.6666666666667</ele><time>2026-05-01T09:41:18.523Z</time></trkpt><trkpt lat="45.7435636" lon="8.8045198"><ele>329.3333333333333</ele><time>2026-05-01T09:41:19.524Z</time></trkpt><trkpt lat="45.7434598" lon="8.8047066"><ele>328.0</ele><time>2026-05-01T09:41:20.524Z</time></trkpt><trkpt lat="45.743377" lon="8.8048782"><ele>328.0</ele><time>2026-05-01T09:41:21.524Z</time></trkpt><trkpt lat="45.7433072" lon="8.805036"><ele>328.0</ele><time>2026-05-01T09:41:22.523Z</time></trkpt><trkpt lat="45.7432426" lon="8.8051512"><ele>328.0</ele><time>2026-05-01T09:41:23.523Z</time></trkpt><trkpt lat="45.7431676" lon="8.805224"><ele>328.0</ele><time>2026-05-01T09:41:24.524Z</time></trkpt><trkpt lat="45.7430983" lon="8.8052589"><ele>328.0</ele><time>2026-05-01T09:41:25.523Z</time></trkpt><trkpt lat="45.7430063" lon="8.8052833"><ele>325.75</ele><time>2026-05-01T09:41:26.524Z</time></trkpt><trkpt lat="45.742874" lon="8.8053141"><ele>323.5</ele><time>2026-05-01T09:41:27.523Z</time></trkpt><trkpt lat="45.7427432" lon="8.8053385"><ele>321.25</ele><time>2026-05-01T09:41:28.524Z</time></trkpt><trkpt lat="45.7426211" lon="8.8053436"><ele>319.0</ele><time>2026-05-01T09:41:29.525Z</time></trkpt><trkpt lat="45.7425058" lon="8.8053536"><ele>318.8</ele><time>2026-05-01T09:41:30.524Z</time></trkpt><trkpt lat="45.7424059" lon="8.8054181"><ele>318.59999999999997</ele><time>2026-05-01T09:41:31.523Z</time></trkpt><trkpt lat="45.7423303" lon="8.8055084"><ele>318.4</ele><time>2026-05-01T09:41:32.524Z</time></trkpt><trkpt lat="45.7422728" lon="8.8056016"><ele>318.2</ele><time>2026-05-01T09:41:33.524Z</time></trkpt><trkpt lat="45.742217" lon="8.8057075"><ele>318.0</ele><time>2026-05-01T09:41:35.523Z</time></trkpt><trkpt lat="45.7420873" lon="8.8057074"><ele>318.0</ele><time>2026-05-01T09:41:37.524Z</time></trkpt><trkpt lat="45.7419781" lon="8.8056761"><ele>318.0</ele><time>2026-05-01T09:41:38.524Z</time></trkpt><trkpt lat="45.7418409" lon="8.80567"><ele>318.0</ele><time>2026-05-01T09:41:39.524Z</time></trkpt><trkpt lat="45.7417729" lon="8.8056871"><ele>318.0</ele><time>2026-05-01T09:41:40.524Z</time></trkpt><trkpt lat="45.7417382" lon="8.80577"><ele>318.0</ele><time>2026-05-01T09:41:41.524Z</time></trkpt><trkpt lat="45.7417163" lon="8.8058983"><ele>317.75</ele><time>2026-05-01T09:41:42.524Z</time></trkpt><trkpt lat="45.7417215" lon="8.8060737"><ele>317.5</ele><time>2026-05-01T09:41:43.525Z</time></trkpt><trkpt lat="45.741725" lon="8.8062505"><ele>317.25</ele><time>2026-05-01T09:41:44.523Z</time></trkpt><trkpt lat="45.7417329" lon="8.8064202"><ele>317.0</ele><time>2026-05-01T09:41:45.524Z</time></trkpt><trkpt lat="45.741754" lon="8.8065678"><ele>317.0</ele><time>2026-05-01T09:41:46.523Z</time></trkpt><trkpt lat="45.7417659" lon="8.8066789"><ele>317.0</ele><time>2026-05-01T09:41:47.523Z</time></trkpt><trkpt lat="45.7417485" lon="8.8067711"><ele>317.0</ele><time>2026-05-01T09:41:48.524Z</time></trkpt><trkpt lat="45.7417005" lon="8.8068533"><ele>317.0</ele><time>2026-05-01T09:41:49.524Z</time></trkpt><trkpt lat="45.741622" lon="8.8069394"><ele>317.0</ele><time>2026-05-01T09:41:50.523Z</time></trkpt><trkpt lat="45.7415218" lon="8.8070268"><ele>317.0</ele><time>2026-05-01T09:41:51.524Z</time></trkpt><trkpt lat="45.7414065" lon="8.8071049"><ele>316.25</ele><time>2026-05-01T09:41:52.524Z</time></trkpt><trkpt lat="45.7412742" lon="8.8071645"><ele>315.5</ele><time>2026-05-01T09:41:53.524Z</time></trkpt><trkpt lat="45.7411313" lon="8.8072393"><ele>314.75</ele><time>2026-05-01T09:41:54.524Z</time></trkpt><trkpt lat="45.7409989" lon="8.8072934"><ele>314.0</ele><time>2026-05-01T09:41:55.523Z</time></trkpt><trkpt lat="45.7408653" lon="8.8073034"><ele>314.0</ele><time>2026-05-01T09:41:56.523Z</time></trkpt><trkpt lat="45.7407329" lon="8.8072926"><ele>314.0</ele><time>2026-05-01T09:41:57.524Z</time></trkpt><trkpt lat="45.7405975" lon="8.8072752"><ele>314.0</ele><time>2026-05-01T09:41:58.524Z</time></trkpt><trkpt lat="45.7404636" lon="8.8072551"><ele>314.0</ele><time>2026-05-01T09:41:59.524Z</time></trkpt><trkpt lat="45.74033" lon="8.8072378"><ele>314.0</ele><time>2026-05-01T09:42:00.523Z</time></trkpt><trkpt lat="45.740202" lon="8.8072218"><ele>314.0</ele><time>2026-05-01T09:42:01.523Z</time></trkpt><trkpt lat="45.7400808" lon="8.8071937"><ele>314.0</ele><time>2026-05-01T09:42:02.524Z</time></trkpt><trkpt lat="45.7399704" lon="8.8071495"><ele>314.0</ele><time>2026-05-01T09:42:03.523Z</time></trkpt><trkpt lat="45.7398668" lon="8.8071045"><ele>314.0</ele><time>2026-05-01T09:42:04.524Z</time></trkpt><trkpt lat="45.7397691" lon="8.807066"><ele>314.0</ele><time>2026-05-01T09:42:05.524Z</time></trkpt><trkpt lat="45.7396739" lon="8.8070444"><ele>314.0</ele><time>2026-05-01T09:42:06.524Z</time></trkpt><trkpt lat="45.7395833" lon="8.8070589"><ele>314.0</ele><time>2026-05-01T09:42:07.524Z</time></trkpt><trkpt lat="45.7395021" lon="8.8071264"><ele>314.0</ele><time>2026-05-01T09:42:08.523Z</time></trkpt><trkpt lat="45.7394417" lon="8.8072396"><ele>314.0</ele><time>2026-05-01T09:42:09.523Z</time></trkpt><trkpt lat="45.7394081" lon="8.8073828"><ele>314.0</ele><time>2026-05-01T09:42:10.524Z</time></trkpt><trkpt lat="45.7393953" lon="8.8075196"><ele>314.0</ele><time>2026-05-01T09:42:11.525Z</time></trkpt><trkpt lat="45.739365" lon="8.8076475"><ele>314.0</ele><time>2026-05-01T09:42:12.523Z</time></trkpt><trkpt lat="45.739304" lon="8.8077439"><ele>314.0</ele><time>2026-05-01T09:42:13.524Z</time></trkpt><trkpt lat="45.7392312" lon="8.8077845"><ele>313.8</ele><time>2026-05-01T09:42:14.523Z</time></trkpt><trkpt lat="45.7391599" lon="8.8077721"><ele>313.59999999999997</ele><time>2026-05-01T09:42:15.524Z</time></trkpt><trkpt lat="45.7390731" lon="8.8077299"><ele>313.4</ele><time>2026-05-01T09:42:16.523Z</time></trkpt><trkpt lat="45.7389798" lon="8.8076661"><ele>313.2</ele><time>2026-05-01T09:42:17.523Z</time></trkpt><trkpt lat="45.7388705" lon="8.8075922"><ele>313.0</ele><time>2026-05-01T09:42:18.524Z</time></trkpt><trkpt lat="45.7387499" lon="8.8075155"><ele>313.0</ele><time>2026-05-01T09:42:19.523Z</time></trkpt><trkpt lat="45.7386427" lon="8.8074406"><ele>313.0</ele><time>2026-05-01T09:42:20.523Z</time></trkpt><trkpt lat="45.7385509" lon="8.8073672"><ele>313.0</ele><time>2026-05-01T09:42:21.524Z</time></trkpt><trkpt lat="45.7384793" lon="8.8073078"><ele>313.0</ele><time>2026-05-01T09:42:22.525Z</time></trkpt><trkpt lat="45.7383924" lon="8.8072399"><ele>313.0</ele><time>2026-05-01T09:42:24.524Z</time></trkpt><trkpt lat="45.7383199" lon="8.8072771"><ele>313.0</ele><time>2026-05-01T09:42:27.524Z</time></trkpt><trkpt lat="45.7382834" lon="8.8073589"><ele>313.0</ele><time>2026-05-01T09:42:28.525Z</time></trkpt><trkpt lat="45.7382379" lon="8.807466"><ele>313.0</ele><time>2026-05-01T09:42:29.524Z</time></trkpt><trkpt lat="45.7381951" lon="8.8076334"><ele>313.0</ele><time>2026-05-01T09:42:30.524Z</time></trkpt><trkpt lat="45.7381488" lon="8.8078103"><ele>313.0</ele><time>2026-05-01T09:42:31.524Z</time></trkpt><trkpt lat="45.7381252" lon="8.8079868"><ele>312.8</ele><time>2026-05-01T09:42:32.524Z</time></trkpt><trkpt lat="45.7381171" lon="8.8081488"><ele>312.6</ele><time>2026-05-01T09:42:33.525Z</time></trkpt><trkpt lat="45.7381127" lon="8.8082963"><ele>312.4</ele><time>2026-05-01T09:42:34.524Z</time></trkpt><trkpt lat="45.7381102" lon="8.8084134"><ele>312.2</ele><time>2026-05-01T09:42:35.524Z</time></trkpt><trkpt lat="45.7381088" lon="8.8085093"><ele>312.0</ele><time>2026-05-01T09:42:36.524Z</time></trkpt><trkpt lat="45.7380651" lon="8.8086129"><ele>312.0</ele><time>2026-05-01T09:42:38.523Z</time></trkpt><trkpt lat="45.737941" lon="8.8086078"><ele>312.0</ele><time>2026-05-01T09:42:40.523Z</time></trkpt><trkpt lat="45.7378403" lon="8.8085876"><ele>312.0</ele><time>2026-05-01T09:42:41.523Z</time></trkpt><trkpt lat="45.7377349" lon="8.8085419"><ele>312.0</ele><time>2026-05-01T09:42:42.523Z</time></trkpt><trkpt lat="45.7376386" lon="8.8084882"><ele>312.0</ele><time>2026-05-01T09:42:43.524Z</time></trkpt><trkpt lat="45.7375514" lon="8.8084597"><ele>312.0</ele><time>2026-05-01T09:42:44.523Z</time></trkpt><trkpt lat="45.7374752" lon="8.8084485"><ele>312.0</ele><time>2026-05-01T09:42:45.524Z</time></trkpt><trkpt lat="45.7374058" lon="8.8084195"><ele>312.0</ele><time>2026-05-01T09:42:46.524Z</time></trkpt><trkpt lat="45.7373424" lon="8.8083817"><ele>312.0</ele><time>2026-05-01T09:42:47.524Z</time></trkpt><trkpt lat="45.7372542" lon="8.8083649"><ele>312.0</ele><time>2026-05-01T09:42:48.523Z</time></trkpt><trkpt lat="45.7371302" lon="8.8083482"><ele>312.0</ele><time>2026-05-01T09:42:49.524Z</time></trkpt><trkpt lat="45.7369793" lon="8.8082967"><ele>311.0</ele><time>2026-05-01T09:42:50.525Z</time></trkpt><trkpt lat="45.7368231" lon="8.8082239"><ele>310.0</ele><time>2026-05-01T09:42:51.524Z</time></trkpt><trkpt lat="45.7366761" lon="8.8081639"><ele>309.0</ele><time>2026-05-01T09:42:52.524Z</time></trkpt><trkpt lat="45.7365362" lon="8.808117"><ele>309.0</ele><time>2026-05-01T09:42:53.523Z</time></trkpt><trkpt lat="45.7363997" lon="8.8080815"><ele>309.0</ele><time>2026-05-01T09:42:54.524Z</time></trkpt><trkpt lat="45.7362714" lon="8.8080438"><ele>309.0</ele><time>2026-05-01T09:42:55.524Z</time></trkpt><trkpt lat="45.7361502" lon="8.8080065"><ele>309.0</ele><time>2026-05-01T09:42:56.523Z</time></trkpt><trkpt lat="45.7360342" lon="8.8079699"><ele>308.25</ele><time>2026-05-01T09:42:57.524Z</time></trkpt><trkpt lat="45.7359184" lon="8.8079318"><ele>307.5</ele><time>2026-05-01T09:42:58.523Z</time></trkpt><trkpt lat="45.7358114" lon="8.8078954"><ele>306.75</ele><time>2026-05-01T09:42:59.524Z</time></trkpt><trkpt lat="45.735704" lon="8.8078621"><ele>306.0</ele><time>2026-05-01T09:43:00.524Z</time></trkpt><trkpt lat="45.7355936" lon="8.8078279"><ele>306.0</ele><time>2026-05-01T09:43:01.524Z</time></trkpt><trkpt lat="45.7354795" lon="8.8077906"><ele>306.0</ele><time>2026-05-01T09:43:02.524Z</time></trkpt><trkpt lat="45.7353636" lon="8.8077507"><ele>306.0</ele><time>2026-05-01T09:43:03.524Z</time></trkpt><trkpt lat="45.735244" lon="8.8077189"><ele>306.0</ele><time>2026-05-01T09:43:04.523Z</time></trkpt><trkpt lat="45.73513" lon="8.8076993"><ele>305.6666666666667</ele><time>2026-05-01T09:43:05.523Z</time></trkpt><trkpt lat="45.735027" lon="8.8076813"><ele>305.3333333333333</ele><time>2026-05-01T09:43:06.523Z</time></trkpt><trkpt lat="45.7349464" lon="8.8076743"><ele>305.0</ele><time>2026-05-01T09:43:07.524Z</time></trkpt><trkpt lat="45.7348896" lon="8.8077249"><ele>304.66666666666663</ele><time>2026-05-01T09:43:08.524Z</time></trkpt><trkpt lat="45.7348696" lon="8.8078153"><ele>304.3333333333333</ele><time>2026-05-01T09:43:09.525Z</time></trkpt><trkpt lat="45.7348756" lon="8.8079299"><ele>304.0</ele><time>2026-05-01T09:43:10.524Z</time></trkpt><trkpt lat="45.7348888" lon="8.8080685"><ele>304.0</ele><time>2026-05-01T09:43:11.523Z</time></trkpt><trkpt lat="45.7349119" lon="8.8082381"><ele>304.0</ele><time>2026-05-01T09:43:12.524Z</time></trkpt><trkpt lat="45.73495" lon="8.808453"><ele>304.0</ele><time>2026-05-01T09:43:13.524Z</time></trkpt><trkpt lat="45.7349863" lon="8.8087121"><ele>303.66666666666663</ele><time>2026-05-01T09:43:14.523Z</time></trkpt><trkpt lat="45.7350143" lon="8.8089732"><ele>303.3333333333333</ele><time>2026-05-01T09:43:15.524Z</time></trkpt><trkpt lat="45.7350385" lon="8.8092241"><ele>303.0</ele><time>2026-05-01T09:43:16.524Z</time></trkpt><trkpt lat="45.7350536" lon="8.8094894"><ele>303.0</ele><time>2026-05-01T09:43:17.524Z</time></trkpt><trkpt lat="45.7350587" lon="8.8097817"><ele>303.0</ele><time>2026-05-01T09:43:18.525Z</time></trkpt><trkpt lat="45.7350589" lon="8.8100494"><ele>303.0</ele><time>2026-05-01T09:43:19.524Z</time></trkpt><trkpt lat="45.7350549" lon="8.8102916"><ele>305.0</ele><time>2026-05-01T09:43:20.524Z</time></trkpt><trkpt lat="45.7350471" lon="8.8105066"><ele>307.0</ele><time>2026-05-01T09:43:21.524Z</time></trkpt><trkpt lat="45.7350378" lon="8.8107239"><ele>309.0</ele><time>2026-05-01T09:43:22.524Z</time></trkpt><trkpt lat="45.7350312" lon="8.8108697"><ele>311.0</ele><time>2026-05-01T09:43:23.524Z</time></trkpt><trkpt lat="45.7350155" lon="8.8109799"><ele>315.25</ele><time>2026-05-01T09:43:24.524Z</time></trkpt><trkpt lat="45.734903" lon="8.811097"><ele>319.5</ele><time>2026-05-01T09:43:26.523Z</time></trkpt><trkpt lat="45.7347912" lon="8.8111686"><ele>323.75</ele><time>2026-05-01T09:43:27.525Z</time></trkpt><trkpt lat="45.7346578" lon="8.8112707"><ele>328.0</ele><time>2026-05-01T09:43:28.523Z</time></trkpt><trkpt lat="45.7345505" lon="8.8113508"><ele>328.0</ele><time>2026-05-01T09:43:29.524Z</time></trkpt><trkpt lat="45.7344629" lon="8.8114322"><ele>328.0</ele><time>2026-05-01T09:43:30.523Z</time></trkpt><trkpt lat="45.7343897" lon="8.8115435"><ele>328.0</ele><time>2026-05-01T09:43:31.524Z</time></trkpt><trkpt lat="45.7343419" lon="8.8116627"><ele>328.0</ele><time>2026-05-01T09:43:32.524Z</time></trkpt><trkpt lat="45.7342832" lon="8.8117686"><ele>328.0</ele><time>2026-05-01T09:43:33.524Z</time></trkpt><trkpt lat="45.7341989" lon="8.8118716"><ele>325.5</ele><time>2026-05-01T09:43:34.525Z</time></trkpt><trkpt lat="45.7340914" lon="8.8119786"><ele>323.0</ele><time>2026-05-01T09:43:35.523Z</time></trkpt><trkpt lat="45.7339808" lon="8.8121109"><ele>320.5</ele><time>2026-05-01T09:43:36.524Z</time></trkpt><trkpt lat="45.7338571" lon="8.812279"><ele>318.0</ele><time>2026-05-01T09:43:37.524Z</time></trkpt><trkpt lat="45.7337153" lon="8.8124688"><ele>316.3333333333333</ele><time>2026-05-01T09:43:38.523Z</time></trkpt><trkpt lat="45.733562" lon="8.8126926"><ele>314.66666666666663</ele><time>2026-05-01T09:43:39.524Z</time></trkpt><trkpt lat="45.7334107" lon="8.8129321"><ele>313.0</ele><time>2026-05-01T09:43:40.525Z</time></trkpt><trkpt lat="45.7332755" lon="8.8131572"><ele>313.0</ele><time>2026-05-01T09:43:41.523Z</time></trkpt><trkpt lat="45.7331518" lon="8.8133694"><ele>313.0</ele><time>2026-05-01T09:43:42.523Z</time></trkpt><trkpt lat="45.7330448" lon="8.8135459"><ele>313.0</ele><time>2026-05-01T09:43:43.524Z</time></trkpt><trkpt lat="45.7329563" lon="8.8136845"><ele>314.16666666666663</ele><time>2026-05-01T09:43:44.523Z</time></trkpt><trkpt lat="45.7328746" lon="8.8138164"><ele>315.3333333333333</ele><time>2026-05-01T09:43:45.524Z</time></trkpt><trkpt lat="45.7328108" lon="8.8139203"><ele>316.5</ele><time>2026-05-01T09:43:46.524Z</time></trkpt><trkpt lat="45.7327706" lon="8.8140031"><ele>317.6666666666667</ele><time>2026-05-01T09:43:47.523Z</time></trkpt><trkpt lat="45.7327502" lon="8.8141121"><ele>318.83333333333337</ele><time>2026-05-01T09:43:48.523Z</time></trkpt><trkpt lat="45.7327659" lon="8.8142243"><ele>320.0</ele><time>2026-05-01T09:43:49.525Z</time></trkpt><trkpt lat="45.7328115" lon="8.8143629"><ele>320.0</ele><time>2026-05-01T09:43:50.523Z</time></trkpt><trkpt lat="45.7328738" lon="8.8145408"><ele>320.0</ele><time>2026-05-01T09:43:51.524Z</time></trkpt><trkpt lat="45.732929" lon="8.8146741"><ele>320.0</ele><time>2026-05-01T09:43:52.523Z</time></trkpt><trkpt lat="45.7329851" lon="8.8147993"><ele>320.0</ele><time>2026-05-01T09:43:53.524Z</time></trkpt><trkpt lat="45.7330453" lon="8.81488"><ele>320.0</ele><time>2026-05-01T09:43:54.524Z</time></trkpt><trkpt lat="45.7330616" lon="8.8149673"><ele>320.0</ele><time>2026-05-01T09:43:55.523Z</time></trkpt><trkpt lat="45.733008" lon="8.8150681"><ele>320.0</ele><time>2026-05-01T09:43:57.523Z</time></trkpt><trkpt lat="45.7328628" lon="8.815028"><ele>320.0</ele><time>2026-05-01T09:43:59.524Z</time></trkpt><trkpt lat="45.7327601" lon="8.8149788"><ele>320.0</ele><time>2026-05-01T09:44:00.524Z</time></trkpt><trkpt lat="45.7326008" lon="8.8149519"><ele>316.6</ele><time>2026-05-01T09:44:01.524Z</time></trkpt><trkpt lat="45.7324737" lon="8.8149247"><ele>313.2</ele><time>2026-05-01T09:44:02.523Z</time></trkpt><trkpt lat="45.7323564" lon="8.8149064"><ele>309.8</ele><time>2026-05-01T09:44:03.525Z</time></trkpt><trkpt lat="45.7322573" lon="8.8149014"><ele>306.4</ele><time>2026-05-01T09:44:04.524Z</time></trkpt><trkpt lat="45.7321781" lon="8.8149141"><ele>303.0</ele><time>2026-05-01T09:44:05.524Z</time></trkpt><trkpt lat="45.7321119" lon="8.8149435"><ele>303.0</ele><time>2026-05-01T09:44:06.523Z</time></trkpt><trkpt lat="45.7320767" lon="8.815041"><ele>303.0</ele><time>2026-05-01T09:44:09.524Z</time></trkpt><trkpt lat="45.7320871" lon="8.8151499"><ele>303.0</ele><time>2026-05-01T09:44:12.524Z</time></trkpt><trkpt lat="45.7320597" lon="8.8152752"><ele>303.0</ele><time>2026-05-01T09:44:16.524Z</time></trkpt><trkpt lat="45.7319913" lon="8.815369"><ele>303.0</ele><time>2026-05-01T09:44:18.524Z</time></trkpt><trkpt lat="45.7319524" lon="8.8155078"><ele>303.0</ele><time>2026-05-01T09:44:20.524Z</time></trkpt><trkpt lat="45.7320243" lon="8.8154605"><ele>305.5</ele><time>2026-05-01T09:44:21.524Z</time></trkpt><trkpt lat="45.7321411" lon="8.8154534"><ele>308.0</ele><time>2026-05-01T09:44:23.523Z</time></trkpt><trkpt lat="45.7321968" lon="8.8155772"><ele>310.5</ele><time>2026-05-01T09:44:25.523Z</time></trkpt><trkpt lat="45.732218" lon="8.8157516"><ele>313.0</ele><time>2026-05-01T09:44:27.524Z</time></trkpt><trkpt lat="45.7321318" lon="8.8158599"><ele>313.0</ele><time>2026-05-01T09:44:28.524Z</time></trkpt><trkpt lat="45.7320871" lon="8.8159514"><ele>313.0</ele><time>2026-05-01T09:44:30.524Z</time></trkpt><trkpt lat="45.7320922" lon="8.8160488"><ele>313.0</ele><time>2026-05-01T09:44:31.524Z</time></trkpt><trkpt lat="45.7320872" lon="8.8161628"><ele>313.0</ele><time>2026-05-01T09:44:32.524Z</time></trkpt><trkpt lat="45.7320906" lon="8.816304"><ele>313.0</ele><time>2026-05-01T09:44:33.524Z</time></trkpt><trkpt lat="45.7320756" lon="8.816433"><ele>313.0</ele><time>2026-05-01T09:44:34.524Z</time></trkpt><trkpt lat="45.7320525" lon="8.8165776"><ele>315.25</ele><time>2026-05-01T09:44:35.524Z</time></trkpt><trkpt lat="45.7320341" lon="8.8167381"><ele>317.5</ele><time>2026-05-01T09:44:36.524Z</time></trkpt><trkpt lat="45.732013" lon="8.8169188"><ele>319.75</ele><time>2026-05-01T09:44:37.525Z</time></trkpt><trkpt lat="45.7319963" lon="8.8171029"><ele>322.0</ele><time>2026-05-01T09:44:38.524Z</time></trkpt><trkpt lat="45.731985" lon="8.817256"><ele>322.0</ele><time>2026-05-01T09:44:39.524Z</time></trkpt><trkpt lat="45.7319837" lon="8.8174008"><ele>322.0</ele><time>2026-05-01T09:44:40.524Z</time></trkpt><trkpt lat="45.7319922" lon="8.8175251"><ele>322.0</ele><time>2026-05-01T09:44:41.524Z</time></trkpt><trkpt lat="45.7320143" lon="8.8176385"><ele>322.0</ele><time>2026-05-01T09:44:42.523Z</time></trkpt><trkpt lat="45.7320544" lon="8.8177438"><ele>322.0</ele><time>2026-05-01T09:44:43.524Z</time></trkpt><trkpt lat="45.7321074" lon="8.8178418"><ele>322.0</ele><time>2026-05-01T09:44:44.524Z</time></trkpt><trkpt lat="45.7321668" lon="8.817921"><ele>322.8</ele><time>2026-05-01T09:44:45.524Z</time></trkpt><trkpt lat="45.7322233" lon="8.8179982"><ele>323.6</ele><time>2026-05-01T09:44:46.523Z</time></trkpt><trkpt lat="45.7322702" lon="8.8181201"><ele>324.40000000000003</ele><time>2026-05-01T09:44:48.524Z</time></trkpt><trkpt lat="45.732263" lon="8.8182151"><ele>325.20000000000005</ele><time>2026-05-01T09:44:49.523Z</time></trkpt><trkpt lat="45.7322268" lon="8.818336"><ele>326.0</ele><time>2026-05-01T09:44:50.524Z</time></trkpt><trkpt lat="45.7321723" lon="8.8184864"><ele>327.6</ele><time>2026-05-01T09:44:51.524Z</time></trkpt><trkpt lat="45.7321333" lon="8.8186197"><ele>329.20000000000005</ele><time>2026-05-01T09:44:52.524Z</time></trkpt><trkpt lat="45.7321173" lon="8.8187539"><ele>330.79999999999995</ele><time>2026-05-01T09:44:53.524Z</time></trkpt><trkpt lat="45.7321048" lon="8.8188968"><ele>332.4</ele><time>2026-05-01T09:44:54.524Z</time></trkpt><trkpt lat="45.7320929" lon="8.8190333"><ele>334.0</ele><time>2026-05-01T09:44:55.524Z</time></trkpt><trkpt lat="45.732082" lon="8.8191505"><ele>334.0</ele><time>2026-05-01T09:44:56.524Z</time></trkpt><trkpt lat="45.732075" lon="8.8192994"><ele>334.0</ele><time>2026-05-01T09:44:58.523Z</time></trkpt><trkpt lat="45.732074" lon="8.8194428"><ele>334.0</ele><time>2026-05-01T09:45:00.524Z</time></trkpt><trkpt lat="45.7320861" lon="8.8196284"><ele>334.0</ele><time>2026-05-01T09:45:02.524Z</time></trkpt><trkpt lat="45.7321006" lon="8.8197416"><ele>334.0</ele><time>2026-05-01T09:45:03.525Z</time></trkpt><trkpt lat="45.732112" lon="8.8198649"><ele>334.8333333333333</ele><time>2026-05-01T09:45:04.524Z</time></trkpt><trkpt lat="45.7321285" lon="8.8199758"><ele>335.66666666666663</ele><time>2026-05-01T09:45:05.524Z</time></trkpt><trkpt lat="45.7321343" lon="8.8200729"><ele>336.5</ele><time>2026-05-01T09:45:06.524Z</time></trkpt><trkpt lat="45.7321437" lon="8.8201622"><ele>337.3333333333333</ele><time>2026-05-01T09:45:07.524Z</time></trkpt><trkpt lat="45.7321329" lon="8.820292"><ele>338.1666666666667</ele><time>2026-05-01T09:45:09.524Z</time></trkpt><trkpt lat="45.7320626" lon="8.8203702"><ele>339.0</ele><time>2026-05-01T09:45:11.523Z</time></trkpt><trkpt lat="45.7320486" lon="8.8205027"><ele>339.4</ele><time>2026-05-01T09:45:13.523Z</time></trkpt><trkpt lat="45.7321002" lon="8.8206778"><ele>339.79999999999995</ele><time>2026-05-01T09:45:15.524Z</time></trkpt><trkpt lat="45.7321487" lon="8.8207471"><ele>340.20000000000005</ele><time>2026-05-01T09:45:16.523Z</time></trkpt><trkpt lat="45.732198" lon="8.8208173"><ele>340.6</ele><time>2026-05-01T09:45:17.524Z</time></trkpt><trkpt lat="45.7322391" lon="8.8209918"><ele>341.0</ele><time>2026-05-01T09:45:19.524Z</time></trkpt><trkpt lat="45.7322363" lon="8.8210864"><ele>341.2857142857143</ele><time>2026-05-01T09:45:20.524Z</time></trkpt><trkpt lat="45.7322211" lon="8.8211865"><ele>341.57142857142856</ele><time>2026-05-01T09:45:21.525Z</time></trkpt><trkpt lat="45.7321941" lon="8.8212857"><ele>341.8571428571429</ele><time>2026-05-01T09:45:22.524Z</time></trkpt><trkpt lat="45.7321624" lon="8.8213822"><ele>342.1428571428571</ele><time>2026-05-01T09:45:23.523Z</time></trkpt><trkpt lat="45.7321346" lon="8.8214761"><ele>342.42857142857144</ele><time>2026-05-01T09:45:24.524Z</time></trkpt><trkpt lat="45.7321089" lon="8.8215636"><ele>342.7142857142857</ele><time>2026-05-01T09:45:25.524Z</time></trkpt><trkpt lat="45.7320821" lon="8.8216484"><ele>343.0</ele><time>2026-05-01T09:45:26.524Z</time></trkpt><trkpt lat="45.7320435" lon="8.8217907"><ele>343.0</ele><time>2026-05-01T09:45:28.524Z</time></trkpt><trkpt lat="45.7320176" lon="8.8218949"><ele>346.0</ele><time>2026-05-01T09:45:30.523Z</time></trkpt></trkseg></trk></gpx>